[[{"header":{"parameterUnit":"m.s-1","parameterCategory":1,"la1":30.6,"la2":29.2853,"lo1":-89.7004,"lo2":-87.6739,"dx":0.0162,"dy":0.0183,"nx":112,"ny":82,"refTime":"2022-11-06T00:00:00:Z","depth":0,"parameterNumber":2,"parameterNumberName":"U-component_of_WINDS"},"data":[0.0,0.0,0.0,0.0,0.0,0.0,0.0,0.0,0.0,0.0,0.0,0.0,0.0,0.0,0.0,0.0,0.0,0.0,0.0,0.0,0.0,0.0,0.0,0.0,0.0,0.0,0.0,0.0,0.0,0.0,0.0,0.0,0.0,0.0,0.0,0.0,0.0,0.0,0.0,0.0,0.0,0.0,0.0,0.0,0.0,0.0,0.0,0.0,0.0,0.0,0.0,0.0,0.0,0.0,0.0,0.0,0.0,0.0,0.0,0.0,0.0,0.0,0.0,0.0,0.0,0.0,0.0,0.0,0.0,0.0,0.0,0.0,0.0,0.0,0.0,0.0,0.0,0.0,0.0,0.0,0.0,0.0,0.0,0.0,0.0,0.0,0.0,0.0,0.0,0.0,0.0,0.0,0.0,0.0,0.0,0.0,-0.0288,-0.1032,0.0,0.0,0.0,0.0,0.0,0.0,0.0,0.0,0.0,0.0,0.0,0.0,0.0,0.0,0.0,0.0,0.0,0.0,0.0,0.0,0.0,0.0,0.0,0.0,0.0,0.0,0.0,0.0,0.0,0.0,0.0,0.0,0.0,0.0,0.0,0.0,0.0,0.0,0.0,0.0,0.0,0.0,0.0,0.0,0.0,0.0,0.0,0.0,0.0,0.0,0.0,0.0,0.0,0.0,0.0,0.0,0.0,0.0,0.0,0.0,0.0,0.0,0.0,0.0,0.0,0.0,0.0,0.0,0.0,0.0,0.0,0.0,0.0,0.0,0.0,0.0,0.0,0.0,0.0,0.0,0.0,0.0,0.0,0.0,0.0,0.0,0.0,0.0,0.0,0.0,0.0,0.0,0.0,0.0,0.0,0.0,0.0,0.0,0.0,0.0,0.0,0.0,0.0,0.0,0.0,0.0,0.0,0.0,0.0,0.0,-0.0518,-0.174,0.0,0.0,0.0,0.0,0.0,0.0,0.0,0.0,0.0,0.0,0.0,0.0,0.0,0.0,0.0,0.0,0.0,0.0,0.0,0.0,0.0,0.0,0.0,0.0,0.0,0.0,0.0,0.0,0.0,0.0,0.0,0.0,0.0,0.0,0.0,0.0,0.0,0.0,0.0,0.0,0.0,0.0,0.0,0.0,0.0,0.0,0.0,0.0,0.0,0.0,0.0,0.0,0.0,0.0,0.0,0.0,0.0,0.0,0.0,0.0,0.0,0.0,0.0,0.0,0.0,0.0,0.0,0.0,0.0,0.0,0.0,0.0,0.0,0.0,0.0,0.0,0.0,0.0,0.0,0.0,0.0,0.0,0.0,0.0,0.0,0.0,0.0,0.0,0.0,0.0,0.0,0.0,0.0,0.0,0.0,0.0,0.0,0.0,0.0,0.0,0.0,0.0,0.0,0.0,0.0,0.0,0.0,0.0,0.0,-0.0549,-0.1004,-0.1396,-0.1065,0.0,0.0,0.0,0.0,0.0,0.0,0.0,0.0,0.0,0.0,0.0,0.0,0.0,0.0,0.0,0.0,0.0,0.0,0.0,0.0,0.0,0.0,0.0,0.0,0.0,0.0,0.0,0.0,0.0,0.0,0.0,0.0,0.0,0.0,0.0,0.0,0.0,0.0,0.0,0.0,0.0,0.0,0.0,0.0,0.0,0.0,0.0,0.0,0.0,0.0,0.0,0.0,0.0,0.0,0.0,0.0,0.0,0.0,0.0,0.0,0.0,0.0,0.0,0.0,0.0,0.0,0.0,0.0,0.0,0.0,0.0,0.0,0.0,0.0,0.0,0.0,0.0,0.0,0.0,0.0,0.0,0.0,0.0,0.0,0.0,0.0,0.0,0.0,0.0,0.0,0.0,0.0,0.0,0.0,0.0,0.0,0.0,0.0,0.0,0.0,0.0,0.0,0.0,0.0,0.0,0.0,-0.0118,-0.0353,-0.0897,-0.129,-0.1477,-0.1323,0.0,0.0,0.0,0.0,0.0,0.0,0.0,0.0,0.0,0.0,0.0,0.0,0.0,0.0,0.0,0.0,0.0,0.0,0.0,0.0,0.0,0.0,0.0,0.0,0.0,0.0,0.0,0.0,0.0,0.0,0.0,0.0,0.0,0.0,0.0,0.0,0.0,0.0,0.0,0.0,0.0,0.0,0.0,0.0,0.0,0.0,0.0,0.0,0.0,0.0,0.0,0.0,0.0,0.0,0.0,0.0,0.0,0.0,0.0,0.0,0.0,0.0,0.0,0.0,0.0,0.0,0.0,0.0,0.0,0.0,0.0,0.0,0.0,0.0,0.0,0.0,0.0,0.0,0.0,0.0,0.0,0.0,0.0,0.0,0.0,0.0,0.0,0.0,0.0,0.0,0.0,0.0,0.0,0.0,0.0,0.0,0.0,0.0,0.0,0.0,0.0,0.0,0.0,0.0,0.0,0.0,-0.0392,-0.1411,-0.0653,-0.1004,-0.3078,-0.128,0.0,0.0,0.0,0.0,0.0,0.0,0.0,0.0,0.0,0.0,0.0,0.0,0.0,0.0,0.0,0.0,0.0,0.0,0.0,0.0,0.0,0.0,0.0,0.0,0.0,0.0,0.0,0.0,0.0,0.0,0.0,0.0,0.0,0.0,0.0,0.0,0.0,0.0,0.0,0.0,0.0,0.0,0.0,0.0,0.0,0.0,0.0,0.0,0.0,0.0,0.0,0.0,0.0,0.0,0.0,0.0,0.0,0.0,0.0,0.0,0.0,0.0,0.0,0.0,0.0,0.0,0.0,0.0,0.0,0.0,0.0,0.0,0.0,0.0,0.0,0.0,0.0,0.0,0.0,0.0,0.0,0.0,0.0,0.0,0.0,0.0,0.0,0.0,0.0,0.0,0.0,0.0,0.0,0.0,0.0,0.0,0.0,0.0,0.0,0.0,0.0,0.0,0.0,0.0,0.0,0.0,-0.0432,-0.1528,-0.1724,-0.2108,-0.2791,0.0,0.0,0.0,0.0,0.0,0.0,0.0,0.0,0.0,0.0,0.0,0.0,0.0,0.0,0.0,0.0,0.0,0.0,0.0,0.0,0.0,0.0,0.0,0.0,0.0,0.0,0.0,0.0,0.0,0.0,0.0,0.0,0.0,0.0,0.0,0.0,0.0,0.0,0.0,0.0,0.0,0.0,0.0,0.0,0.0,0.0,0.0,0.0,0.0,0.0,0.0,0.0,0.0,0.0,0.0,0.0,0.0,0.0,0.0,0.0,0.0,0.0,0.0,0.0,0.0,0.0,0.0,0.0,0.0,0.0,0.0,0.0,0.0,0.0,0.0,0.0,0.0,0.0,0.0,0.0,0.0,0.0,0.0,0.0,0.0,0.0,0.0,0.0,0.0,0.0,0.0,0.0,0.0,0.0,0.0,0.0,0.0,0.0,0.0,0.0,0.0,0.0,-0.0423,-0.0429,-0.0425,-0.0413,-0.0155,-0.0432,-0.1528,-0.209,-0.2434,-0.2507,0.0,0.0,0.0,0.0,0.0,0.0,0.0,0.0,0.0,0.0,0.0,0.0,0.0,0.0,0.0,0.0,0.0,0.0,0.0,0.0,0.0,0.0,0.0,0.0,0.0,0.0,0.0,0.0,0.0,0.0,0.0,0.0,0.0,0.0,0.0,0.0,0.0,0.0,0.0,0.0,0.0,0.0,0.0,0.0,0.0,0.0,0.0,0.0,0.0,0.0,0.0,0.0,0.0,0.0,0.0,0.0,0.0,0.0,0.0,0.0,0.0,0.0,0.0,0.0,0.0,0.0,0.0,0.0,0.0,0.0,0.0,0.0,0.0,0.0,0.0,0.0,0.0,0.0,0.0,0.0,0.0,0.0,0.0,0.0,0.0,0.0,0.0,0.0,0.0,0.0,0.0,0.0,0.0,0.0,0.0,0.0,0.0,0.0,0.0,0.0,0.0,0.0,-0.1364,-0.1293,-0.1285,-0.1319,-0.0503,-0.0432,-0.149,-0.1423,-0.1648,0.0,0.0,0.0,0.0,0.0,0.0,0.0,0.0,0.0,0.0,0.0,0.0,0.0,0.0,0.0,0.0,0.0,0.0,0.0,0.0,0.0,0.0,0.0,0.0,0.0,0.0,0.0,0.0,0.0,0.0,0.0,0.0,0.0,0.0,0.0,0.0,0.0,0.0,0.0,0.0,0.0,0.0,0.0,0.0,0.0,0.0,0.0,0.0,0.0,0.0,0.0,0.0,0.0,0.0,0.0,0.0,0.0,0.0,0.0,0.0,0.0,0.0,0.0,0.0,0.0,0.0,0.0,0.0,0.0,0.0,0.0,0.0,0.0,0.0,0.0,0.0,0.0,0.0,0.0,0.0,0.0,0.0,0.0,0.0,0.0,0.0,0.0,0.0,0.0,0.0,0.0,0.0,0.0,0.0,0.0,0.0,0.0,0.0,0.0,0.0,0.0,0.0,0.0,-0.2149,-0.1667,-0.1368,-0.1505,-0.0586,-0.0435,-0.1525,-0.14,-0.1476,-0.1839,0.0,0.0,0.0,0.0,0.0,0.0,0.0,0.0,0.0,0.0,0.0,0.0,0.0,0.0,0.0,0.0,0.0,0.0,0.0,0.0,0.0,0.0,0.0,0.0,0.0,0.0,0.0,0.0,0.0,0.0,0.0,0.0,0.0,0.0,0.0,0.0,0.0,0.0,0.0,0.0,0.0,0.0,0.0,0.0,0.0,0.0,0.0,0.0,0.0,0.0,0.0,0.0,0.0,0.0,0.0,0.0,0.0,0.0,0.0,0.0,0.0,0.0,0.0,0.0,0.0,0.0,0.0,0.0,0.0,0.0,0.0,0.0,0.0,0.0,0.0,0.0,0.0,0.0,0.0,0.0,0.0,0.0,0.0,0.0,0.0,0.0,0.0,0.0,0.0,0.0,0.0,0.0,0.0,0.0,0.0,0.0,0.0,0.0,0.0,0.0,0.0,0.0,-0.3077,-0.2384,-0.1955,-0.2172,-0.0883,-0.0243,-0.0894,-0.1189,-0.1193,-0.0986,0.0,0.0,0.0,0.0,0.0,0.0,0.0,0.0,0.0,0.0,0.0,0.0,0.0,0.0,0.0,0.0,0.0,0.0,0.0,0.0,0.0,0.0,0.0,0.0,0.0,0.0,0.0,0.0,0.0,0.0,0.0,0.0,0.0,0.0,0.0,0.0,0.0,0.0,0.0,0.0,0.0,0.0,0.0,0.0,0.0,0.0,0.0,0.0,0.0,0.0,0.0,0.0,0.0,0.0,0.0,0.0,0.0,0.0,0.0,0.0,0.0,0.0,0.0,0.0,0.0,0.0,0.0,0.0,0.0,0.0,0.0,0.0,0.0,0.0,0.0,0.0,0.0,0.0,0.0,0.0,0.0,0.0,0.0,0.0,0.0,0.0,0.0,0.0,0.0,0.0,0.0,0.0,0.0,0.0,0.0,0.0,0.0,0.0,0.0,0.0,0.0,0.0,-0.4119,-0.3399,-0.2924,-0.3118,-0.1328,-0.0125,0.0,-0.0741,-0.0833,-0.0065,0.0,0.0,0.0,0.0,0.0,0.0,0.0,0.0,0.0,0.0,0.0,0.0,0.0,0.0,0.0,0.0,0.0,0.0,0.0,0.0,0.0,0.0,0.0,0.0,0.0,0.0,0.0,0.0,0.0,0.0,0.0,0.0,0.0,0.0,0.0,0.0,0.0,0.0,0.0,0.0,0.0,0.0,0.0,0.0,0.0,0.0,0.0,0.0,0.0,0.0,0.0,0.0,0.0,0.0,0.0,0.0,0.0,0.0,0.0,0.0,-0.8299,-0.9128,0.0,0.0,0.0,0.0,0.0,0.0,0.0,0.0,0.0,0.0,0.0,0.0,0.0,0.0,0.0,0.0,0.0,0.0,0.0,0.0,0.0,0.0,0.0,0.0,0.0,0.0,0.0,0.0,0.0,0.0,0.0,0.0,0.0,0.0,0.0,0.0,0.0,0.0,0.0,0.0,-0.5009,-0.4509,-0.3893,-0.3301,-0.2154,-0.1013,-0.0086,-0.0159,-0.0183,0.0,0.0242,0.0,0.0,0.0,0.0,0.0,0.0,0.0,0.0,0.0,0.0,0.0,0.0,0.0,0.0,0.0,0.0,0.0,0.0,0.0,0.0,0.0,0.0,0.0,0.0,0.0,0.0,0.0,0.0,0.0,0.0,0.0,0.0,0.0,0.0,0.0,0.0,0.0,0.0,0.0,0.0,0.0,0.0,0.0,0.0,0.0,0.0,0.0,0.0,0.0,0.0,0.0,0.0,0.0,0.0,0.0,0.0,0.0,0.0,0.0,-0.8341,-0.9213,0.0,0.0,0.0,0.0,0.0,0.0,0.0,0.0,0.0,0.0,0.0,0.0,0.0,0.0,0.0,0.0,0.0,0.0,0.0,0.0,0.0,0.0,0.0,0.0,0.0,0.0,0.0,0.0,0.0,0.0,0.0,0.0,0.0,0.0,0.0,0.0,0.0,0.0,0.0,0.0,-0.5405,-0.4958,-0.429,-0.3439,-0.2424,-0.13,-0.0087,0.0,0.0,0.0,0.0225,0.0,0.0,0.0,0.0,0.0,0.0,0.0,0.0,0.0,0.0,0.0,0.0,0.0,0.0,0.0,0.0,0.0,0.0,0.0,0.0,0.0,0.0,0.0,0.0,0.0,0.0,0.0,0.0,0.0,0.0,0.0,0.0,0.0,0.0,0.0,0.0,0.0,0.0,0.0,0.0,0.0,0.0,0.0,0.0,0.0,0.0,0.0,0.0,0.0,0.0,0.0,0.0,0.0,-0.607,-0.6118,-0.6438,-0.644,-0.6897,-0.7674,-0.7823,-0.8678,-0.9976,-1.0369,0.0,0.0,0.0,0.0,0.0,0.0,0.0,0.0,0.0,0.0,0.0,0.0,0.0,0.0,0.0,0.0,0.0,0.0,0.0,0.0,0.0,0.0,-0.7076,-0.5653,-0.5136,-0.486,-0.4362,0.0,0.0,0.0,0.0,0.0,0.0,0.0,0.0,0.0,0.0,0.0,-0.5545,-0.5281,-0.4613,-0.349,-0.2605,-0.1554,-0.0131,0.0,0.0,0.0,0.0,0.0187,0.0,0.0,0.0,0.0,0.0,0.0,0.0,0.0,0.0,0.0,0.0,0.0,0.0,0.0,0.0,0.0,0.0,0.0,0.0,0.0,0.0,0.0,0.0,0.0,0.0,0.0,0.0,0.0,0.0,0.0,0.0,0.0,-1.0402,-1.0061,0.0,0.0,0.0,0.0,0.0,0.0,0.0,0.0,0.0,0.0,0.0,0.0,0.0,-0.7811,-0.7367,-0.7084,-0.6579,-0.5876,-0.6351,-0.6266,-0.5745,-0.5838,-0.604,-0.6372,-0.7977,0.0,-1.0097,-1.027,0.0,0.0,0.0,0.0,0.0,0.0,0.0,0.0,0.0,0.0,0.0,0.0,0.0,0.0,0.0,0.0,0.0,0.0,0.0,0.0,0.0,0.0,-0.7477,-0.5801,-0.5372,-0.5313,-0.5235,-0.4585,-0.4041,-0.4095,-0.4263,-0.4337,0.0,0.0,0.0,0.0,0.0,0.0,-0.5681,-0.6065,-0.5516,-0.3533,-0.3351,-0.2437,-0.0174,0.0,0.0,0.0,0.0,0.0034,0.0096,0.003,0.0,0.0,0.0,0.0,0.0,0.0,0.0,0.0,0.0,0.0,0.0,0.0,0.0,0.0,0.0,0.0,0.0,0.0,0.0,0.0,0.0,0.0,0.0,0.0,0.0,0.0,0.0,0.0,0.0,-0.9998,-1.0107,-1.0275,-1.0237,-1.0179,0.0,0.0,0.0,0.0,0.0,0.0,0.0,0.0,0.0,-0.8765,-0.7637,-0.7036,-0.7034,-0.6426,-0.595,-0.5573,-0.5843,-0.5789,-0.5501,-0.5613,-0.5944,-0.6449,-0.7419,-0.8627,-0.9925,-1.0708,-1.1076,-1.1179,0.0,0.0,0.0,0.0,-1.0525,-1.0494,-1.0652,-1.0586,-1.0436,-1.0434,0.0,0.0,0.0,0.0,0.0,0.0,0.0,-0.9801,-0.8048,-0.797,-0.803,-0.6769,-0.6018,-0.561,-0.561,-0.5298,-0.4918,-0.4537,-0.468,-0.4684,-0.4176,-0.4304,0.0,0.0,0.0,-0.5464,-0.5878,-0.6396,-0.6071,-0.4375,-0.3853,-0.2878,-0.1174,-0.038,0.0,0.0,0.0,0.0215,0.0711,0.0735,0.1305,0.0,0.0,0.0,0.0,0.0,0.0,0.0,0.0,0.0,0.0,0.0,0.0,0.0,0.0,0.0,0.0,0.0,0.0,0.0,0.0,0.0,0.0,0.0,0.0,0.0,0.0,0.0,0.0,-0.9917,-1.02,-1.0491,-1.0398,-1.026,0.0,0.0,0.0,0.0,0.0,0.0,-0.8417,-0.7504,-0.7261,-0.7862,-0.6953,-0.6461,-0.6565,-0.5803,-0.5395,-0.5395,-0.5395,-0.5395,-0.5399,-0.5827,-0.6302,-0.6776,-0.7519,-0.8498,-0.9738,-1.0737,-1.1262,-1.1418,-1.145,-1.1451,-1.133,-1.0927,-1.0814,-1.0915,-1.114,-1.1252,-1.1255,-1.1294,-1.1176,-1.0815,-0.9866,0.0,0.0,0.0,0.0,-1.0451,-0.8925,-0.8751,-0.8764,-0.788,-0.7105,-0.6504,-0.6222,-0.619,-0.5957,-0.5195,-0.5209,-0.514,-0.455,-0.4755,0.0,-0.5081,-0.5528,-0.5915,-0.6067,-0.6539,-0.6397,-0.504,-0.4116,-0.3111,-0.1837,-0.0673,0.0,0.0,0.0,0.0409,0.1322,0.1322,0.1983,0.3393,0.0,0.0,0.0,0.0,0.0,0.0,0.0,0.0,0.0,0.0,0.0,0.0,0.0,0.0,0.0,0.0,0.0,0.0,0.0,0.0,0.0,0.0,0.0,0.0,0.0,0.0,0.0,0.0,0.0,-1.0394,-1.0186,0.0,0.0,0.0,0.0,-0.9724,-0.8082,-0.7422,-0.827,-0.7767,-0.7431,-0.7359,-0.7142,-0.6591,-0.5658,-0.5504,-0.5395,-0.5395,-0.5395,-0.5395,-0.5439,-0.6657,-0.7098,-0.7001,-0.8928,-0.9668,-0.9516,-0.985,-1.0535,-1.141,-1.1411,-1.0812,-1.0053,-1.0302,-0.9788,-0.914,-1.039,-1.0822,-1.1008,-1.1937,-1.167,-1.0929,-1.0626,-1.0526,0.0,0.0,-1.0889,-1.1137,-1.0238,-1.0014,-0.9817,-0.8929,-0.8684,-0.8403,-0.742,-0.7212,-0.6968,-0.6086,-0.5939,-0.5888,-0.5742,0.0,-0.5701,-0.5576,-0.582,-0.6074,-0.6269,-0.6647,-0.6397,-0.504,-0.4108,-0.3071,-0.1717,-0.0611,0.0,0.0,0.0,0.0491,0.1543,0.1396,0.2065,0.3736,0.355,0.0,0.0,0.0,0.0,0.0,0.0,0.0,0.0,0.0,0.0,0.0,0.0,0.0,0.0,0.0,0.0,0.0,0.0,0.0,0.0,0.0,0.0,0.0,0.0,0.0,0.0,0.0,0.0,-0.9391,-0.9436,0.0,-1.0637,-0.9772,-0.9233,-0.9389,-0.8327,-0.7793,-0.8096,-0.7931,-0.7592,-0.706,-0.6924,-0.6453,-0.5624,-0.5474,-0.5443,-0.5542,-0.5443,-0.574,-0.6376,-0.6838,-0.7545,-0.8493,-0.9293,-0.9865,-1.0238,-1.0519,-1.0911,-1.1354,-1.0689,-1.0437,-1.0415,-0.9881,-0.9431,-0.9292,-1.0418,-1.0783,-1.0946,-1.1781,-1.1557,-1.1009,-1.1089,-1.0982,-1.0777,-1.039,-1.0985,-1.1528,-1.0639,-1.0473,-1.0477,-1.0143,-0.96,-0.9017,-0.8648,-0.8574,-0.83,-0.7328,-0.6543,-0.5915,-0.5708,-0.5905,-0.605,-0.5762,-0.6061,-0.6302,-0.6306,-0.6566,-0.6556,-0.5994,-0.443,-0.3225,-0.2721,-0.1056,0.0,0.0,0.0,0.0731,0.2379,0.2373,0.3152,0.4922,0.4854,0.4826,0.0,0.0,0.0,0.0,0.0,0.0,0.0,0.0,0.0,0.0,0.0,0.0,0.0,0.0,0.0,0.0,0.0,0.0,0.0,0.0,0.0,0.0,0.0,0.0,0.0,-0.9273,-0.9337,-0.8914,-0.9335,-0.9834,-1.025,-0.9646,-0.9245,-0.9245,-0.8454,-0.7994,-0.7994,-0.7994,-0.7833,-0.7401,-0.695,-0.6518,-0.6096,-0.5638,-0.5474,-0.5589,-0.5762,-0.6197,-0.6937,-0.755,-0.8373,-0.9318,-0.9802,-1.0223,-1.0613,-1.0875,-1.0955,-1.0833,-1.0288,-0.9938,-0.9696,-0.9026,-0.858,-0.8461,-0.9814,-1.0699,-1.126,-1.1745,-1.1536,-1.1176,-1.1335,-1.1363,-1.1227,-1.0817,-1.1359,-1.1909,-1.1318,-1.1224,-1.1316,-1.1316,-1.0795,-1.0233,-0.9895,-0.982,-0.9518,-0.8504,-0.7378,-0.6451,-0.5923,-0.6102,-0.6231,-0.5986,-0.6289,-0.6477,-0.6381,-0.6549,-0.6517,-0.6003,-0.4387,-0.3159,-0.2767,-0.1036,0.0,0.0,0.0,0.0887,0.2902,0.2832,0.3653,0.5558,0.5538,0.5642,0.5855,0.0,0.0,0.0,0.0,0.0,0.0,0.0,0.0,0.0,0.0,0.0,0.0,0.0,0.0,0.0,0.0,0.0,0.0,0.0,0.0,0.0,0.0,0.0,-0.937,-0.9787,-0.9812,-0.9107,-0.9951,-1.0461,-1.0174,-0.9637,-0.9306,-0.9306,-0.8517,-0.8027,-0.8027,-0.8059,-0.8189,-0.8405,-0.7343,-0.6875,-0.7074,-0.603,-0.5538,-0.5655,-0.6385,-0.6817,-0.7039,-0.8863,-0.9568,-0.9414,-1.0496,-1.0854,-1.0626,-1.0889,-1.0552,-0.9916,-1.0236,-0.9311,-0.7783,-0.7783,-0.7176,-0.6679,-0.8661,-1.0452,-1.1906,-1.1913,-1.1677,-1.1389,-1.1402,-1.1637,-1.1906,-1.1913,-1.2084,-1.2305,-1.2305,-1.2305,-1.2305,-1.2305,-1.2305,-1.2033,-1.105,-1.0864,-1.0565,-0.9561,-0.8575,-0.7553,-0.6528,-0.6338,-0.63,-0.63,-0.6416,0.0,-0.6504,-0.6597,-0.6217,-0.5028,-0.4002,-0.2886,-0.1688,-0.0614,0.0,0.0,0.0,0.0917,0.2965,0.2696,0.3498,0.5568,0.5511,0.6085,0.7309,0.0,0.0,0.0,0.0,0.0,0.0,0.0,0.0,0.0,0.0,0.0,0.0,0.0,0.0,0.0,0.0,0.0,0.0,0.0,0.0,0.0,-0.9144,-0.9325,-0.9267,-0.9114,-0.9219,-0.9746,-0.9895,-1.015,-1.0697,-0.986,-0.9306,-0.9306,-0.9075,-0.8941,-0.8941,-0.9556,-0.9618,-0.9076,-0.8749,-0.8025,-0.6833,-0.711,-0.7021,-0.6565,-0.7277,-0.804,-0.879,-0.9221,-0.9725,-1.0276,-1.0578,-1.0787,-1.0895,-1.1189,-1.0414,-0.9109,-0.9207,-0.8644,-0.7706,-0.6984,-0.748,-0.8675,-1.0176,-1.1205,-1.194,-1.2118,-1.1837,-1.147,-1.1683,-1.1839,-1.1946,-1.2124,-1.2238,-1.2305,-1.2305,-1.2305,-1.2305,-1.2305,-1.2305,-1.2224,-1.1959,-1.1885,-1.1583,-1.0565,-1.0147,-0.9437,-0.7706,-0.6795,-0.63,-0.63,-0.6334,-0.6358,-0.6358,-0.6395,-0.5965,-0.4854,-0.3826,-0.2755,-0.1686,-0.0624,0.0,0.0,0.0,0.0623,0.1957,0.2607,0.3869,0.5838,0.6661,0.7233,0.0,0.0,0.0,0.0,0.0,0.0,0.0,0.0,0.0,0.0,0.0,0.0,0.0,0.0,0.0,0.0,0.0,0.0,0.0,0.0,0.0,0.0,-0.9108,-0.9339,-0.927,-0.9297,-0.9583,-1.0155,-1.0248,-1.0454,-1.0962,-1.0303,-0.9849,-0.9849,-0.9849,-0.9849,-0.9849,-1.0333,-1.0424,-1.0018,-0.966,-0.8996,-0.7966,-0.8098,-0.7931,-0.7444,-0.8204,-0.8864,-0.9493,-0.9742,-1.011,-1.06,-1.072,-1.0909,-1.1196,-1.149,-1.0836,-0.9595,0.0,0.0,0.0,0.0,-0.8291,-1.0182,-1.0948,-1.1571,-1.2134,-1.2392,-1.2091,-1.1663,-1.1964,-1.2087,-1.2084,-1.2258,-1.2305,-1.2305,-1.2305,-1.2305,-1.2305,-1.2305,-1.2305,-1.2305,-1.2305,-1.2305,-1.2114,-1.1539,-1.1087,0.0,-0.8689,-0.7591,-0.6795,-0.6377,-0.63,-0.63,-0.63,-0.63,-0.5906,-0.4805,-0.3748,-0.2696,-0.1685,-0.0622,0.0,0.0,0.0,0.0615,0.2013,0.3447,0.0,0.0,0.0,0.8049,0.9241,0.9819,0.0,0.0,1.0243,1.1009,0.0,0.0,0.0,0.0,0.0,0.0,0.0,0.0,0.0,0.0,0.0,0.0,0.0,0.0,0.0,0.0,-0.928,-0.9334,-0.9448,-1.0118,-1.0593,-1.0593,-1.087,-1.1042,-1.1042,-1.0787,-1.0593,-1.0593,-1.0593,-1.0593,-1.0593,-1.0593,0.0,0.0,0.0,-0.9741,-0.9642,-0.8992,-0.8523,-0.8327,-0.9081,-0.9515,-0.9651,-1.0309,-1.0593,-1.0613,-1.0935,-1.1209,-1.1462,-1.1866,-1.1578,-1.0796,-0.9728,-0.8212,-0.6821,-0.7812,-0.9458,-1.1239,-1.1415,0.0,0.0,-1.273,-1.2435,-1.2,-1.2225,-1.2305,-1.2305,-1.2305,-1.2305,-1.2305,-1.2305,-1.2305,-1.2305,-1.2305,-1.2305,-1.2305,-1.2305,-1.2305,-1.2305,-1.2305,-1.1583,-1.064,-0.9636,-0.8542,-0.7442,-0.6451,-0.63,-0.63,-0.63,-0.63,-0.5906,-0.4805,-0.3748,0.0,-0.1685,-0.0615,0.0,0.0,0.0115,0.1014,0.2858,0.4681,0.6528,0.8304,0.769,0.8676,1.1316,1.0962,1.1224,1.2069,1.0914,1.1392,0.0,0.0,0.0,0.0,0.0,0.0,0.0,0.0,0.0,0.0,0.0,0.0,0.0,0.0,0.0,-0.8658,-0.8993,-0.9599,-1.0415,-1.1347,-1.1918,-1.1918,-1.1556,-1.1309,-1.1309,-1.0868,-1.0593,-1.0593,-1.0593,-1.0593,-1.0593,-1.0593,-1.062,-1.0673,-1.0514,-1.0091,-0.9376,-0.9892,-0.9796,-0.9079,-0.9938,0.0,-1.0379,-1.0518,-1.0593,-1.062,-1.1116,-1.151,-1.1859,-1.2395,-1.2203,-1.1388,-0.9898,-0.9177,-0.9174,-1.0186,-1.08,-1.137,-1.2694,-1.2758,-1.2392,-1.2939,-1.2712,-1.2231,-1.2285,-1.2305,0.0,-1.2305,-1.2305,-1.2305,-1.2305,-1.2305,-1.2305,-1.2305,-1.2305,-1.2305,-1.2305,-1.2305,-1.2305,-1.2305,-1.215,-1.1694,-1.0677,-0.8983,-0.7442,-0.6451,-0.63,-0.63,-0.63,-0.63,-0.5906,-0.4805,-0.3748,-0.2696,-0.1685,-0.0625,0.0,0.0,0.082,0.2211,0.4239,0.4699,0.5866,0.788,0.8547,0.9564,1.0936,1.1629,1.246,1.3331,1.2627,1.304,0.0,0.0,0.0,0.0,0.0,0.0,0.0,0.0,0.0,0.0,0.0,-0.9873,-0.9432,0.0,-0.8647,-0.8824,-0.9511,-1.0228,-1.0746,-1.1657,-1.2305,-1.2305,-1.1784,-1.1389,-1.1389,-1.0902,-1.0593,-1.0593,-1.0593,-1.0593,-1.0593,-1.0593,-1.066,-1.0807,-1.0915,-1.0791,-1.0354,-1.0791,-1.0719,-1.0147,-1.0469,-1.0593,-1.0593,-1.0747,-1.0855,-1.1022,-1.161,-1.2124,-1.2579,-1.3013,-1.2916,-1.2408,-1.217,-1.1519,-1.0734,-1.1086,-1.1633,-1.2283,-1.2982,-1.2899,-1.261,-1.2918,-1.2672,-1.2305,-1.2305,-1.2305,-1.2305,-1.2305,-1.2305,-1.2305,-1.2305,-1.2305,-1.2305,-1.2305,-1.2305,-1.2305,-1.2305,-1.2305,-1.2305,-1.2305,-1.2305,-1.1959,-1.0969,-0.955,-0.8199,-0.7215,-0.6602,-0.63,-0.63,-0.63,-0.6103,-0.555,-0.4062,-0.289,-0.2386,-0.0902,0.0236,0.0784,0.1761,0.3049,0.4649,0.5198,0.6468,0.8504,0.9031,1.0045,1.1545,1.2077,1.2328,1.2342,1.2222,1.2772,0.0,0.0,0.0,0.0,0.0,0.0,0.0,-1.1056,-0.9931,-1.0289,-0.9602,-0.8998,-0.9326,-0.8948,-0.8794,-0.9493,-1.0265,-1.0858,-1.105,-1.1774,-1.2278,-1.2225,-1.175,-1.1369,-1.1349,-1.0868,-1.0593,-1.0593,-1.0744,-1.0776,-1.0624,-1.0798,-1.0941,-1.0989,-1.1276,-1.1491,-1.1696,-1.1696,-1.1674,-1.1657,-1.1315,-1.1263,-1.1414,-1.135,-1.1532,-1.1902,-1.2291,-1.2819,-1.34,-1.3593,-1.3709,-1.376,-1.4538,-1.3944,-1.2644,-1.2279,-1.2843,-1.3743,-1.3516,-1.3241,-1.3006,-1.3061,-1.2726,-1.2305,-1.2305,-1.2305,-1.2305,-1.2305,-1.2305,-1.2305,-1.2305,-1.2305,-1.2305,-1.2305,-1.2305,-1.2305,-1.2305,-1.2305,-1.2305,-1.2305,-1.2305,-1.2033,-1.1242,-1.0265,-0.9183,-0.797,-0.6949,-0.63,-0.63,-0.63,-0.63,-0.63,-0.4373,-0.2929,-0.2539,-0.0979,0.0549,0.1802,0.2657,0.3669,0.496,0.5828,0.7138,0.896,0.9188,1.0088,1.17,1.1943,1.1589,1.0717,1.1095,1.1663,-1.7003,-1.5183,-1.3696,-1.3976,-1.3041,-1.2284,0.0,-1.1786,-1.0295,-1.0616,-0.9913,-0.9247,-0.9313,-0.9258,-0.9493,-1.0479,-1.0746,-1.1124,-1.1996,-1.2224,-1.2204,-1.1986,-1.1623,-1.1323,-1.1062,-1.0787,-1.0593,-1.0593,-1.1257,-1.1344,-1.0656,-1.1482,-1.1711,-1.1022,-1.1276,-1.1833,-1.2706,-1.2747,-1.3153,-1.3917,-1.3493,-1.3688,-1.4386,-1.3096,-1.292,-1.3598,-1.3255,-1.3447,-1.3995,-1.4021,-1.458,-1.5405,-1.5157,-1.5509,-1.611,-1.575,-1.5731,-1.5839,-1.5685,-1.4755,-1.3667,-1.3962,-1.3243,-1.2305,-1.2305,-1.2305,-1.2305,-1.2305,-1.2305,-1.2305,-1.2305,-1.2305,-1.2305,-1.2305,-1.2305,-1.2305,-1.2305,-1.2305,-1.2305,-1.2305,-1.2305,-1.2261,-1.215,-1.1316,-0.9997,-0.8084,-0.6949,-0.63,-0.63,-0.63,-0.63,-0.63,-0.4373,-0.2344,-0.051,-0.0118,0.0823,0.2812,0.3046,0.4021,0.6025,0.6219,0.6834,0.7936,0.8841,0.941,0.9636,1.0642,1.0639,0.9659,1.0126,1.0413,-1.7245,-1.5505,-1.376,-1.3235,-1.1898,-1.0787,-1.1088,-1.0597,-1.0048,-0.9898,-1.0029,-1.0008,-0.941,-0.9782,-1.0303,-1.0746,-1.1279,-1.1811,-1.2224,-1.2769,-1.2913,-1.2429,-1.2713,-1.2465,-1.1114,-1.076,-1.08,-1.1257,-1.1624,-1.1865,-1.1996,-1.2649,-1.2955,-1.2813,-1.3134,-1.3615,-1.4234,-1.4068,-1.4125,-1.4522,-1.4188,-1.4321,-1.4883,-1.4443,-1.4756,-1.5637,-1.5606,-1.5741,-1.5959,-1.5959,-1.6239,-1.6667,-1.7169,-1.7494,-1.7493,-1.628,-1.584,-1.5815,-1.561,-1.5122,-1.4589,-1.4732,-1.4032,-1.3091,-1.3091,-1.2732,-1.2305,-1.2305,-1.2305,-1.2345,-1.2556,-1.2596,-1.2643,-1.2786,-1.2692,-1.2596,-1.2596,-1.2425,-1.2305,-1.2305,-1.2445,-1.2543,-1.2331,-1.1608,-1.0515,-0.8899,-0.7821,-0.6945,-0.6377,-0.63,-0.5825,-0.4569,-0.3632,-0.2267,-0.0196,0.0,0.0901,0.2968,0.3085,0.4062,0.6222,0.63,0.6756,0.7783,0.8199,0.8732,0.9296,0.9856,0.9306,0.7733,0.8676,0.8526,-1.6377,-1.4698,-1.2988,-1.1861,-1.0616,-0.9619,-0.9417,-0.9575,-0.9655,-0.9343,-0.9895,-1.0265,-0.9782,-1.0303,-1.0901,-1.1162,-1.1811,-1.2372,-1.2666,-1.3273,-1.3542,-1.3126,-1.3693,-1.3443,-1.1732,-1.1368,-1.1413,-1.1764,-1.2197,-1.2626,-1.2978,-1.3689,-1.4067,-1.4115,-1.4595,-1.5065,-1.5579,-1.535,-1.5352,-1.5625,-1.5283,-1.5481,-1.6139,-1.6311,-1.6602,-1.7017,-1.7218,-1.7302,-1.7302,-1.7302,-1.7496,-1.7851,-1.8554,-1.877,-1.8586,-1.7134,-1.6553,-1.637,-1.6069,-1.5876,-1.5749,-1.5749,-1.5096,-1.4237,-1.3982,-1.3345,-1.2629,-1.2372,-1.2365,-1.2478,-1.273,-1.2851,-1.2971,-1.316,-1.3039,-1.2891,-1.2804,-1.2683,-1.2525,-1.2438,-1.2636,-1.2717,-1.2496,-1.1923,-1.098,-0.9511,-0.8694,-0.7744,-0.6451,-0.63,-0.5473,-0.3318,-0.3085,-0.2267,-0.0196,0.0,0.0784,0.2579,0.2929,0.3943,0.5786,0.6141,0.6644,0.7365,0.7668,0.7889,0.8028,0.8456,0.7592,0.5579,0.6603,0.6318,-1.449,-1.2466,-1.0927,-0.976,-0.9404,-0.9314,-0.9314,-0.9314,-0.9319,-0.9296,-0.9334,-0.9631,-1.0596,-1.0783,-1.1124,-1.2114,-1.2268,-1.2629,-1.3528,-1.3673,-1.3782,-1.404,-1.4082,-1.3801,-1.2999,-1.2926,-1.2604,-1.1865,-1.3265,-1.3786,-1.3039,-1.444,-1.4882,-1.4115,-1.481,-1.5641,-1.6567,-1.6549,-1.7017,-1.791,-1.7492,-1.7949,-1.9139,-1.8968,-1.8297,-1.7277,-1.7293,-1.7302,-1.7302,-1.7302,-1.794,-1.8921,-1.8494,-1.8955,-1.9788,-1.935,-1.8886,-1.8434,-1.8051,-1.7567,-1.7126,-1.7126,-1.6494,-1.5565,-1.4664,-1.4036,-1.3455,-1.2556,-1.2549,-1.277,-1.2784,-1.2973,-1.32,-1.3206,-1.32,-1.3113,-1.2851,-1.3012,-1.3093,-1.2831,-1.2777,-1.2784,-1.277,-1.2505,-1.1595,-0.9599,-0.9258,-0.8542,-0.6567,-0.63,-0.5473,-0.3318,-0.3085,-0.2267,-0.0196,0.0,0.0471,0.1568,0.2579,0.3593,0.4688,0.5747,0.63,0.6338,0.7288,0.6815,0.4841,0.5938,0.5405,0.3395,0.3629,0.3701,-1.2916,-1.0914,-0.9226,-0.8498,-0.8318,-0.8313,-0.8313,-0.9329,-1.0484,-1.11,-1.1736,-1.2515,-1.352,-1.3172,-1.2821,-1.3164,-1.2703,-1.2629,-1.3564,-1.4279,-1.4841,-1.527,-1.5622,-1.5396,-1.4347,-1.3486,-1.31,-1.3386,-1.3906,-1.445,-1.5028,-1.5786,-1.626,-1.6304,-1.68,-1.7226,-1.7535,-1.7535,-1.7825,-1.8393,-1.8857,-1.9287,-1.9727,-1.9947,-1.9835,-1.9471,-1.9471,-1.9471,-1.9471,-1.9471,-1.9717,-2.007,-1.9888,-1.9851,-1.9893,-1.9756,-1.9434,-1.9043,-1.8906,-1.8363,-1.7815,-1.8411,-1.7576,-1.6307,-1.6253,-1.5524,-1.4541,-1.3785,-1.3633,-1.3668,-1.3392,-1.338,-1.3507,-1.3748,-1.3641,-1.3427,-1.336,-1.3273,-1.318,-1.3073,-1.3053,-1.3025,-1.2817,-1.2703,-1.1879,-0.962,-0.8161,-0.7061,-0.6377,-0.63,-0.5473,-0.3318,-0.3085,-0.2267,-0.0196,0.0,0.0471,0.1528,0.254,0.3591,0.4647,0.5747,0.5983,0.5237,0.558,0.5031,0.3639,0.4117,0.3579,0.2186,0.3172,0.317,-1.1168,-0.9372,-0.8024,-0.7842,-0.7783,-0.797,-0.8723,-1.0142,-1.1588,-1.2538,-1.3534,-1.4422,-1.5092,-1.4378,-1.3746,-1.3866,-1.3084,-1.2936,-1.4202,-1.4816,-1.5288,-1.5719,-1.6188,-1.5999,-1.476,-1.4177,-1.3936,-1.4183,-1.4481,-1.5053,-1.6035,-1.6484,-1.6934,-1.7406,-1.7793,-1.8008,-1.8008,-1.812,-1.8447,-1.8841,-1.958,-1.9912,-1.9932,-2.04,-2.0605,-2.0605,-2.0605,-2.0605,-2.0605,-2.0605,-2.0605,-2.0605,-2.0605,-2.0429,-2.0146,-2.0146,-1.9883,-1.9492,-1.9336,-1.9023,-1.876,-1.916,-1.8493,-1.7524,-1.7252,-1.6598,-1.577,-1.498,-1.4706,-1.4532,-1.4287,-1.4001,-1.3848,-1.4041,-1.3941,-1.3733,-1.3626,-1.354,-1.346,-1.3253,-1.3213,-1.3113,-1.2837,-1.2113,-1.0913,-0.9051,-0.7365,-0.63,-0.63,-0.5983,-0.504,-0.3279,-0.2773,-0.1878,-0.0157,0.0,0.0275,0.098,0.1995,0.2891,0.3556,0.4611,0.4844,0.4139,0.4139,0.3596,0.2552,0.2651,0.212,0.1042,0.1905,0.1879,-0.9373,-0.7873,-0.7323,-0.7698,-0.7855,-0.8456,-1.0404,-1.1649,-1.2634,-1.3672,-1.4605,-1.5271,-1.5317,-1.4518,-1.3893,-1.4179,-1.3464,-1.3464,-1.5262,-1.5145,-1.5048,-1.547,-1.5823,-1.5587,-1.4396,-1.4971,-1.5079,-1.4332,-1.4962,-1.5615,-1.6105,-1.6504,-1.6911,-1.7435,-1.7803,-1.8008,-1.8008,-1.8412,-1.8851,-1.9326,-1.9746,-1.9951,-1.9961,-2.0419,-2.0605,-2.0605,-2.0605,-2.0605,-2.0605,-2.0605,-2.0605,-2.0605,-2.0605,-2.0605,-2.0605,-2.0605,-2.0303,-1.9893,-1.9492,-1.959,-1.9824,-1.9473,-1.9336,-1.9093,-1.7723,-1.7352,-1.7126,-1.619,-1.568,-1.5378,-1.5313,-1.4716,-1.4088,-1.4088,-1.4088,-1.4008,-1.3686,-1.3888,-1.3921,-1.3347,-1.3206,-1.3086,-1.2734,-1.0813,-0.8955,-0.7936,-0.6949,-0.63,-0.63,-0.5359,-0.4302,-0.3202,-0.2193,-0.1178,-0.0079,0.0,0.0,0.0,0.1022,0.1612,0.1609,0.2585,0.309,0.3012,0.3012,0.2538,0.1508,0.1538,0.0978,0.0,0.0,0.0,-0.8133,-0.7106,-0.674,-0.7579,-0.8893,-1.0289,-1.1563,-1.3179,-1.4765,-1.5922,-1.592,-1.6017,-1.6967,-1.6166,-1.5154,-1.4525,-1.3888,-1.3653,-1.412,-1.3902,-1.4244,-1.5637,-1.5446,-1.5296,-1.5597,-1.5478,-1.5323,-1.5108,-1.5294,-1.5752,-1.6523,-1.6638,-1.7048,-1.7822,-1.7959,-1.8008,-1.8008,-1.875,-1.9336,-1.9756,-2.0195,-2.0439,-2.0449,-2.0556,-2.0605,-2.0605,-2.0605,-2.0605,-2.0605,-2.0605,-2.0605,-2.0605,-2.0605,-2.0605,-2.0605,-2.0605,-2.0537,-2.0419,-2.0312,-1.993,-1.9531,-2.0106,-2.0019,-1.9699,-1.9312,-1.9209,-1.9013,-1.7941,-1.7029,-1.6214,-1.5713,-1.4837,-1.4088,-1.4088,-1.4088,-1.4068,-1.3988,-1.4035,-1.3975,-1.3567,-1.3173,-1.2568,-1.1502,-1.0197,-0.8955,-0.7936,-0.6949,-0.63,-0.63,-0.5359,-0.4302,-0.3207,-0.2186,-0.1159,-0.0079,0.0,0.0,0.0,0.1022,0.1596,0.1611,0.257,0.2728,0.201,0.197,0.1478,0.0428,0.0387,0.0262,0.0,0.0,0.0,-0.7261,-0.6908,-0.7215,-0.8199,-0.9938,-1.1653,-1.2828,-1.4571,-1.6211,-1.7063,-1.6973,-1.6907,-1.743,-1.6288,-1.5087,-1.4516,-1.3792,-1.3453,-1.3852,-1.4001,-1.4383,-1.5282,-1.5405,-1.5465,-1.5557,-1.5456,-1.541,-1.541,-1.541,-1.5771,-1.6658,-1.6697,-1.7096,-1.7978,-1.8008,-1.8193,-1.8564,-1.9053,-1.959,-2.0205,-2.0488,-2.0605,-2.0605,-2.0605,-2.0605,-2.0605,-2.0605,-2.0605,-2.0605,-2.0605,-2.0605,-2.0605,-2.0605,-2.0605,-2.0605,-2.0605,-2.0605,-2.0635,-2.0791,-2.0537,-2.0185,-2.0517,-2.0439,-2.0166,-1.9971,-2.0049,-2.0042,-1.9231,-1.8401,-1.7627,-1.7236,-1.6322,-1.5387,-1.4894,-1.4817,-1.465,-1.4208,-1.4088,-1.4001,-1.366,-1.316,-1.226,-1.0602,-0.9737,-0.8803,-0.7365,-0.6698,-0.6395,-0.6395,-0.5462,-0.4551,-0.3972,-0.2572,-0.1413,-0.0758,-0.0282,0.0,0.0,0.0584,0.0877,0.0908,0.1442,0.1483,0.0907,0.0371,0.0084,0.0,-0.0522,-0.0527,0.0,0.0,0.0,-0.69,-0.7249,-0.8275,-0.9405,-1.1119,-1.2913,-1.4259,-1.6015,-1.7444,-1.7697,-1.7797,-1.7773,-1.7467,-1.6018,-1.4782,-1.4595,-1.3801,-1.3492,-1.4238,-1.4672,-1.4938,-1.4857,-1.5556,-1.5777,-1.5127,-1.5325,-1.5478,-1.5391,-1.5469,-1.5859,-1.6658,-1.6697,-1.7096,-1.7978,-1.8008,-1.8418,-1.9277,-1.9287,-1.9754,-2.0605,-2.0605,-2.0605,-2.0605,-2.0605,-2.0673,-2.0789,-2.0634,-2.0673,-2.0789,-2.0634,-2.0605,-2.0605,-2.0605,-2.0605,-2.0605,-2.0605,-2.0605,-2.0664,-2.1016,-2.1142,-2.1142,-2.0889,-2.082,-2.0732,-2.0234,-2.0391,-2.0674,-2.0137,-1.9522,-1.8997,-1.8997,-1.8184,-1.7163,-1.6219,-1.5918,-1.5573,-1.46,-1.4201,-1.3948,-1.3653,-1.316,-1.2158,-1.0055,-0.9481,-0.8627,-0.6631,-0.6433,-0.6525,-0.6569,-0.5595,-0.4938,-0.4922,-0.318,-0.192,-0.1631,-0.0778,-0.0165,0.0,0.0,-0.0085,-0.0252,-0.0253,-0.0296,-0.0465,-0.1517,-0.1534,-0.048,-0.135,-0.1276,-0.0225,-0.009,0.0,-0.7846,-0.8275,-0.9475,-1.1236,-1.3093,-1.4796,-1.6196,-1.798,-1.9265,-1.9086,-1.8599,-1.8264,-1.8398,-1.7499,-1.6594,-1.61,-1.5646,-1.5281,-1.507,-1.487,-1.4993,-1.5636,-1.5631,-1.5675,-1.5871,-1.5936,-1.5831,-1.5439,-1.5772,-1.6182,-1.6668,-1.6697,-1.7096,-1.7978,-1.8008,-1.8418,-1.9277,-1.9287,-1.9754,-2.0605,-2.0605,-2.0605,-2.0605,-2.0605,-2.1011,-2.1697,-2.0934,-2.1049,-2.1707,-2.0934,-2.0605,-2.0605,-2.0605,-2.0605,-2.0605,-2.0605,-2.0605,-2.0615,-2.0693,-2.0918,-2.1239,-2.1562,-2.1894,-2.2031,-2.12,-2.1309,-2.1494,-2.0713,-1.9748,-1.8997,-1.8997,-1.8423,-1.7829,-1.7663,-1.7079,-1.6472,-1.6032,-1.4747,-1.3666,-1.3613,-1.316,-1.2158,-1.0055,-0.9481,-0.8669,-0.677,-0.6497,-0.6563,-0.6817,-0.5817,-0.5051,-0.5082,-0.3978,-0.2891,-0.1838,-0.1611,-0.1066,-0.0042,0.0,-0.0437,-0.1429,-0.1495,-0.194,-0.2973,-0.3188,-0.3177,-0.2975,-0.2179,-0.1695,-0.1478,-0.0449,0.0,-0.8732,-0.9653,-1.102,-1.1974,-1.4344,-1.6606,-1.714,-1.8691,-1.9919,-1.9676,-1.9014,-1.8468,-1.8391,-1.7668,-1.6965,-1.6739,-1.6171,-1.5774,-1.5817,-1.5748,-1.5833,-1.621,-1.6387,-1.6577,-1.6768,-1.6369,-1.6105,-1.6063,-1.6074,-1.6388,-1.7031,-1.7447,-1.7779,-1.8008,-1.8008,-1.8418,-1.9277,-1.9287,-1.9754,-2.0605,-2.0605,-2.0605,-2.0605,-2.0605,-2.0857,-2.127,-2.0789,-2.0867,-2.1231,-2.0789,-2.0605,-2.0605,-2.0605,-2.0605,-2.0605,-2.0605,-2.0752,-2.0947,-2.1172,-2.1533,-2.1931,-2.2402,-2.2519,-2.2432,-2.198,-2.1894,-2.1797,-2.1377,-2.0724,-2.0191,-2.0448,-2.0268,-1.9868,-1.9298,-1.7795,-1.6453,-1.6079,-1.488,-1.3874,-1.3874,-1.3394,-1.2349,-1.0314,-0.9649,-0.8762,-0.6777,-0.6607,-0.6763,-0.6866,-0.6464,-0.6103,-0.606,-0.5117,-0.4265,-0.358,-0.3056,-0.2471,-0.1909,-0.1858,-0.2127,-0.2732,-0.2756,-0.2992,-0.3608,-0.4224,-0.4244,-0.3614,-0.3037,-0.2413,-0.179,-0.0584,0.0,-0.9631,-1.1026,-1.2561,-1.2779,-1.553,-1.8114,-1.7853,-1.9193,-2.0338,-1.9894,-1.9345,-1.8833,-1.8512,-1.7825,-1.738,-1.7629,-1.6925,-1.6506,-1.6977,-1.7098,-1.712,-1.6922,-1.7259,-1.748,-1.7393,-1.6701,-1.6401,-1.6781,-1.6848,-1.7038,-1.7376,-1.8096,-1.8315,-1.8018,-1.8096,-1.8516,-1.9277,-1.9375,-1.9805,-2.0605,-2.0605,-2.0605,-2.0605,-2.0828,-2.0895,-2.0895,-2.0895,-2.0895,-2.0895,-2.0895,-2.0895,-2.0895,-2.0895,-2.0895,-2.0905,-2.0781,-2.0937,-2.1259,-2.1738,-2.2158,-2.2568,-2.2857,-2.2799,-2.2627,-2.2539,-2.2285,-2.2002,-2.1904,-2.1641,-2.1414,-2.1797,-2.1953,-2.1771,-2.0704,-1.8761,-1.6927,-1.6126,-1.5147,-1.4349,-1.4043,-1.3567,-1.2638,-1.0847,-1.0163,-0.9277,-0.7505,-0.7246,-0.7264,-0.7222,-0.7138,-0.7055,-0.6943,-0.6229,-0.5616,-0.518,-0.4444,-0.3856,-0.3632,-0.3606,-0.3696,-0.399,-0.4007,-0.4105,-0.4328,-0.5265,-0.5309,-0.4328,-0.4103,-0.3349,-0.2147,-0.0941,-0.0269,-1.0677,-1.2074,-1.3766,-1.4692,-1.7017,-1.905,-1.8827,-2.0128,-2.1084,-2.0011,-1.9747,-1.9683,-1.9658,-1.9044,-1.8838,-1.9748,-1.9267,-1.8839,-1.902,-1.9056,-1.8767,-1.7964,-1.7901,-1.7803,-1.7455,-1.6953,-1.6794,-1.7138,-1.854,-1.8785,-1.7471,-1.7822,-1.8047,-1.8008,-1.8344,-1.8773,-1.9287,-1.9668,-2.0098,-2.0605,-2.0605,-2.0605,-2.0644,-2.1479,-2.1886,-2.1886,-2.1886,-2.1886,-2.1886,-2.1886,-2.1886,-2.1886,-2.1886,-2.1886,-2.1825,-2.1323,-2.1161,-2.1259,-2.1738,-2.2158,-2.2519,-2.2559,-2.276,-2.2964,-2.2627,-2.248,-2.2373,-2.1992,-2.1855,-2.1836,-2.1875,-2.2168,-2.2231,-2.1421,-2.0521,-1.9279,-1.7144,-1.608,-1.5168,-1.3892,-1.3387,-1.2843,-1.1748,-1.1286,-1.0712,-0.9717,-0.8967,-0.8484,-0.8276,-0.7567,-0.7092,-0.7078,-0.6987,-0.6498,-0.5476,-0.5299,-0.4775,-0.3653,-0.358,-0.407,-0.5208,-0.5215,-0.5714,-0.6738,-0.6871,-0.6871,-0.6782,-0.5758,-0.4599,-0.3392,-0.2191,-0.1031,-1.2558,-1.3542,-1.4977,-1.6435,-1.8465,-1.998,-1.9732,-2.0624,-2.1167,-2.0037,-1.9798,-1.9798,-1.9798,-1.9553,-1.9728,-2.0806,-2.0296,-2.0031,-2.0773,-1.9944,-1.9177,-1.8821,-1.8337,-1.7939,-1.7773,-1.7139,-1.6954,-1.7642,-1.9275,-1.9846,-1.8933,-1.9546,-1.9674,-1.9141,-1.9314,-1.962,-2.0078,-1.9947,-2.0137,-2.0605,-2.0605,-2.0605,-2.0644,-2.1555,-2.1989,-2.1989,-2.1989,-2.2328,-2.285,-2.2253,-2.2366,-2.2888,-2.2888,-2.2553,-2.2014,-2.2078,-2.189,-2.1689,-2.2119,-2.2539,-2.2847,-2.2847,-2.2955,-2.3062,-2.2896,-2.2672,-2.2529,-2.2617,-2.2461,-2.2324,-2.2578,-2.2721,-2.2732,-2.2149,-2.1092,-1.988,-1.8718,-1.7016,-1.5594,-1.5174,-1.4186,-1.3196,-1.2396,-1.178,-1.1044,-1.0049,-0.9722,-0.9573,-0.9489,-0.8729,-0.8189,-0.8189,-0.7533,-0.6918,-0.6473,-0.6428,-0.6225,-0.5733,-0.5728,-0.591,-0.6393,-0.6442,-0.665,-0.7095,-0.7095,-0.7095,-0.7095,-0.5935,-0.5134,-0.4641,-0.3438,-0.2637,-1.4176,-1.4879,-1.5992,-1.7523,-1.9248,-2.0522,-2.0258,-2.088,-2.1167,-2.0037,-1.9798,-1.9798,-1.9798,-1.9798,-2.0175,-2.1305,-2.0978,-2.0899,-2.1766,-2.0623,-1.9595,-1.9332,-1.8529,-1.7959,-1.7842,-1.7558,-1.7688,-1.8351,-2.0081,-2.1056,-2.0903,-2.1618,-2.1452,-2.0215,-2.0583,-2.0957,-2.13,-2.0794,-2.0691,-2.1011,-2.0712,-2.075,-2.1039,-2.2,-2.244,-2.2478,-2.2776,-2.311,-2.3478,-2.3073,-2.3294,-2.3927,-2.3635,-2.3346,-2.3063,-2.2616,-2.2504,-2.2609,-2.2634,-2.2847,-2.3091,-2.3091,-2.3091,-2.3091,-2.3091,-2.2886,-2.2754,-2.3013,-2.2886,-2.2721,-2.3023,-2.3091,-2.3023,-2.2721,-2.1741,-2.0745,-2.0116,-1.8438,-1.6826,-1.6159,-1.5108,-1.3967,-1.2964,-1.2353,-1.1706,-1.0897,-1.0751,-1.0674,-1.0605,-0.9885,-0.9405,-0.9405,-0.8619,-0.7837,-0.7139,-0.7095,-0.7095,-0.7095,-0.7095,-0.7095,-0.7095,-0.7095,-0.7095,-0.7095,-0.7095,-0.7095,-0.7095,-0.6293,-0.5714,-0.5359,-0.4508,-0.3927,-1.5258,-1.586,-1.6791,-1.7692,-1.9248,-2.0522,-2.0258,-2.088,-2.1167,-2.0037,-1.9798,-1.9798,-1.9798,-1.9798,-2.0175,-2.1305,-2.1493,-2.1572,-2.1858,-2.1132,-2.0268,-1.9398,-1.8529,-1.7842,-1.7432,-1.8414,-1.9112,-1.9272,-2.116,-2.256,-2.3228,-2.3703,-2.2997,-2.0875,-2.2141,-2.2857,-2.2868,-2.2279,-2.1989,-2.1952,-2.1039,-2.1078,-2.2027,-2.3036,-2.3478,-2.3551,-2.4528,-2.4409,-2.3599,-2.4564,-2.4969,-2.4898,-2.3891,-2.4432,-2.5458,-2.2876,-2.2857,-2.4054,-2.3358,-2.3091,-2.3091,-2.3091,-2.3091,-2.3091,-2.3091,-2.3091,-2.3091,-2.3091,-2.3091,-2.3091,-2.3091,-2.3091,-2.3091,-2.3091,-2.2769,-2.2182,-2.1105,-2.0519,-1.9316,-1.648,-1.5895,-1.529,-1.3513,-1.3174,-1.3106,-1.2792,-1.2271,-1.1776,-1.1519,-1.0967,-1.0567,-1.0567,-1.0567,-0.9614,-0.7312,-0.7095,-0.7095,-0.7095,-0.7095,-0.7095,-0.7095,-0.7095,-0.7095,-0.7095,-0.7095,-0.7095,-0.7095,-0.7095,-0.6517,-0.5403,-0.5403,-0.4732,-1.7353,-1.7534,-1.8027,-1.9184,-1.9901,-2.037,-2.0501,-2.0752,-2.0742,-1.9962,-1.9798,-1.9798,-1.9798,-1.9798,-2.03,-2.1807,-2.1732,-2.1922,-2.3164,-2.1744,-2.0494,-2.0236,-1.8654,-1.7412,-1.6982,-1.805,-1.8654,-1.8434,-2.0663,-2.2151,-2.2389,-2.3753,-2.412,-2.3156,-2.3572,-2.3804,-2.3804,-2.3279,-2.3036,-2.3036,-2.2702,-2.2739,-2.3073,-2.4072,-2.4528,-2.4552,-2.4862,-2.5217,-2.5534,-2.5146,-2.5406,-2.599,-2.5687,-2.5194,-2.4649,-2.4074,-2.3524,-2.3058,-2.3075,-2.3091,-2.3091,-2.3091,-2.3091,-2.3091,-2.3091,-2.3091,-2.3091,-2.3091,-2.3091,-2.3091,-2.3091,-2.3091,-2.3091,-2.3091,-2.2779,-2.2425,-2.2064,-2.1057,-1.9994,-1.9324,-1.7411,-1.5854,-1.5687,-1.4295,-1.324,-1.3347,-1.302,-1.2804,-1.2907,-1.21,-1.1539,-1.175,-1.108,-1.0308,-0.957,-0.9483,-0.9139,-0.8364,-0.8321,-0.7973,-0.7139,-0.7095,-0.7095,-0.7095,-0.7095,-0.7095,-0.7095,-0.7095,-0.6918,-0.6561,-0.6561,-0.6337,-1.8908,-1.8689,-1.8837,-2.0169,-2.034,-2.0296,-2.0615,-2.0691,-2.0608,-2.0246,-2.0182,-2.0182,-2.0182,-2.0182,-2.05,-2.1536,-2.1581,-2.1933,-2.3188,-2.1761,-2.0365,-1.9683,-1.8159,-1.7031,-1.6726,-1.7727,-1.8259,-1.8006,-2.0414,-2.2106,-2.2547,-2.3989,-2.4884,-2.5071,-2.5061,-2.5061,-2.5061,-2.44,-2.4072,-2.4047,-2.3672,-2.3708,-2.4084,-2.4707,-2.5194,-2.5581,-2.5581,-2.5908,0.0,-2.5804,-2.5943,-2.6477,-2.6305,-2.5756,-2.5032,-2.4701,-2.4061,-2.3353,-2.3168,-2.3091,-2.3091,-2.3091,-2.3091,-2.3091,-2.3091,-2.3091,-2.3091,-2.3091,-2.3091,-2.3091,-2.3091,-2.3091,-2.3091,-2.3091,-2.2896,-2.2711,-2.2711,-2.1988,-2.1209,-2.0827,-1.8676,-1.6825,-1.6528,-1.4731,-1.336,-1.3427,-1.3327,-1.3313,-1.3567,-1.2965,-1.264,-1.2953,-1.2339,-1.1912,-1.1912,-1.1128,-1.0308,-0.9579,-0.9536,-0.9013,-0.7841,-0.7797,-0.7577,-0.7095,-0.7095,-0.7095,-0.7095,-0.7095,-0.7095,-0.7095,-0.7095,-0.7095,0.0,-1.9422,-1.9342,-2.0665,-2.0592,-2.0286,-2.0621,-2.0657,0.0,-2.0662,-2.0668,-2.0682,-2.0721,-2.0721,-2.0756,-2.0811,-2.1207,-2.1666,-2.2197,-2.1237,-1.9901,-1.8241,-1.7243,-1.6726,-1.6785,-1.746,-1.7945,-1.8038,-2.0375,-2.2297,-2.3454,-2.4341,-2.5322,-2.6461,-2.6499,-2.6499,-2.6499,-2.5581,-2.5123,-2.5087,-2.4145,-2.4181,-2.5123,-2.5123,-2.5629,-2.6499,-2.6499,-2.6499,-2.6499,-2.6499,-2.6499,-2.6433,-2.5961,-2.6049,-2.6203,-2.4711,-2.4409,-2.4542,-2.3464,-2.3091,-2.3091,-2.3091,-2.3091,-2.3091,-2.3091,-2.3091,-2.3091,-2.3091,-2.3091,-2.3091,-2.3091,-2.3091,-2.3091,-2.3091,-2.3091,-2.3091,-2.3091,-2.3091,-2.2703,-2.1321,-1.9695,-1.804,-1.636,-1.4701,-1.352,-1.3307,-1.3253,-1.3313,-1.3626,-1.3626,-1.3726,-1.4082,-1.4095,-1.4088,-1.4088,-1.2083,-1.0826,-1.074,-1.074,-1.0183,-0.8934,-0.889,-0.8321,-0.7139,-0.7095,-0.7095,-0.7095,-0.7095,-0.7095,-0.7095,-0.7095,-0.7095,-2.0391,0.0,-2.036,-2.0743,-2.0368,-2.0059,0.0,-2.0067,-1.9397,-1.9433,-1.9432,-1.9546,-1.9953,-2.0029,-2.0447,-2.1722,-2.1681,-2.162,-2.1934,-2.0608,-1.9335,-1.8552,-1.7418,-1.696,-1.7646,-1.7271,-1.7405,-1.8386,-1.999,-2.1677,-2.3421,-2.4341,-2.5322,-2.6461,-2.6499,-2.6499,-2.6499,-2.628,-2.6129,-2.6129,-2.5908,-2.5908,-2.6129,-2.6129,-2.628,-2.6499,-2.6499,-2.6499,-2.6499,-2.6499,-2.6499,-2.6433,-2.5865,-2.5466,-2.5088,-2.4326,-2.38,-2.3474,-2.3178,-2.3091,-2.3091,-2.3091,-2.3091,-2.3091,-2.3091,-2.3091,-2.3091,-2.3091,-2.3091,-2.3091,-2.3091,-2.3091,-2.3091,-2.3091,-2.3091,-2.3091,-2.3091,-2.3091,-2.3018,-2.264,-2.0236,-1.8204,-1.8007,-1.5529,-1.3653,-1.3854,-1.3687,-1.3686,-1.4206,-1.388,-1.38,-1.4362,-1.4222,-1.4088,-1.4088,-1.3603,-1.2863,-1.1938,-1.1895,-1.0994,-0.8978,-0.889,-0.8321,-0.7139,-0.7095,-0.7095,-0.7095,-0.7095,-0.7095,-0.7095,-0.7095,-0.7095,-2.0214,-2.049,-2.0759,-2.1054,-2.0666,-2.0305,-2.0656,-1.9838,-1.9094,-1.9387,-1.946,-1.955,-1.9833,-2.0283,-2.0847,-2.1461,-2.1395,-2.12,-2.1007,-2.0159,-1.9263,-1.8409,-1.7711,-1.7311,-1.7389,-1.7187,-1.7313,-1.8007,-1.9641,-2.1277,-2.2829,-2.4099,-2.5322,-2.6461,-2.6499,-2.6499,-2.6499,-2.6499,-2.6499,-2.6499,-2.6499,-2.6499,-2.6499,-2.6499,-2.6499,-2.6499,-2.6499,-2.6499,-2.6499,-2.6499,-2.665,-2.6857,-2.6796,-2.6092,-2.5176,-2.5169,-2.4271,-2.3091,-2.3091,-2.3091,-2.3091,-2.3091,-2.3091,-2.3091,-2.3091,-2.3091,-2.3091,-2.3091,-2.2955,-2.2808,-2.2808,-2.2808,-2.2808,-2.2808,-2.2955,-2.3091,-2.3091,-2.3091,-2.3091,-2.3091,-2.1136,-1.946,-1.9626,-1.7399,-1.5692,-1.5878,-1.5617,-1.5546,-1.6059,-1.5352,-1.4979,-1.5269,-1.4713,-1.4229,-1.4095,-1.4088,-1.3822,-1.316,-1.3118,-1.2334,-1.0524,-1.0481,-0.9657,-0.7973,-0.7404,-0.7095,-0.7095,-0.7095,-0.7095,-0.7095,-0.7665,-0.7929,-1.9861,-2.0314,-2.0806,-2.1266,-2.1049,-2.0693,-2.0711,-1.9825,-1.9168,-1.9736,-1.9843,-1.9895,-2.0079,-2.0742,-2.1144,-2.0784,-2.0672,-2.0435,-1.9885,-1.9705,-1.9206,-1.8115,-1.7959,-1.7686,-1.7048,-1.7246,-1.7563,-1.7945,-1.9609,-2.118,-2.2525,-2.3989,-2.5322,-2.6461,-2.6499,-2.6499,-2.6499,-2.6499,-2.6499,-2.6499,-2.6499,-2.6499,-2.6499,-2.6499,-2.6499,-2.6499,-2.6499,-2.6549,-2.6612,-2.6612,-2.6952,-2.7457,-2.7814,-2.7122,-2.5898,-2.6158,-2.5136,-2.3594,-2.343,-2.3266,-2.3091,-2.3091,-2.3091,-2.3091,-2.3091,-2.3091,-2.3091,-2.3091,-2.2838,-2.2607,-2.2607,-2.2607,-2.2607,-2.2607,-2.2838,-2.3091,-2.3091,-2.3091,-2.3091,-2.3091,-2.1932,-2.0889,-2.0889,-1.934,-1.8096,-1.8096,-1.7863,-1.7796,-1.8129,-1.714,-1.64,-1.6445,-1.5288,-1.4422,-1.4175,-1.4115,-1.4088,-1.4088,-1.4088,-1.3555,-1.237,-1.2109,-1.1042,-0.8934,-0.7885,-0.7272,-0.7095,-0.7095,-0.7183,-0.7401,-0.8408,-0.8978,-2.0176,-2.0629,-2.0724,-2.0874,-2.0797,-2.0713,-2.0782,-1.9861,-1.902,-1.9143,-1.9143,-1.9459,-2.0409,-2.0126,-1.9993,-2.0806,-1.9801,-1.902,-1.933,-1.8755,-1.8213,-1.8018,-1.7695,-1.7705,-1.8256,-1.7764,-1.8276,-2.0467,-2.0619,-2.171,-2.4247,-2.4646,-2.5322,-2.6461,-2.6499,-2.6499,-2.6499,-2.6499,-2.6499,-2.6499,-2.6499,-2.6499,-2.6499,-2.6499,-2.6499,-2.6499,-2.6499,-2.6763,-2.719,-2.719,-2.7482,-2.7961,-2.7586,-2.729,-2.6889,-2.5559,-2.5473,-2.585,-2.4882,-2.392,-2.3091,-2.3091,-2.3091,-2.3091,-2.3091,-2.3091,-2.3091,-2.3091,-2.3052,-2.3003,-2.3003,-2.3003,-2.3003,-2.3003,-2.3052,-2.3091,-2.3091,-2.3091,-2.3091,-2.3091,-2.1932,-2.0889,-2.0889,-1.9557,-1.8504,-1.8504,-1.8454,-1.8554,-1.8877,-1.7644,-1.6793,-1.7019,-1.5534,-1.4502,-1.4456,-1.4229,-1.4088,-1.4088,-1.4088,-1.3555,-1.237,-1.1381,-1.0226,-0.8934,-0.8715,-0.8101,-0.7095,-0.7095,-0.7621,-0.8627,-0.8803,-0.9405,-1.9497,-1.9987,-2.0291,-2.0668,-2.1159,-2.1564,-2.1588,-2.0714,-1.9911,-1.9911,-1.9911,-2.0075,-2.0591,-2.0479,-2.0211,-2.0089,-1.9426,-1.8922,-1.8913,-1.8384,-1.8008,-1.8008,-1.7842,-1.7871,-1.8227,-1.8368,-1.9003,-2.0393,-2.127,-2.2433,-2.4018,-2.4809,-2.5611,-2.6461,-2.6499,-2.6499,-2.6499,-2.6499,-2.6499,-2.6499,-2.6499,-2.6499,-2.6499,-2.6499,-2.6499,-2.6499,-2.6499,-2.6801,-2.7281,-2.7281,-2.7783,-2.8499,-2.826,-2.7968,-2.7565,-2.6206,-2.6058,-2.6442,-2.5891,-2.4967,-2.4006,-2.4006,-2.3594,-2.3091,-2.3091,-2.3091,-2.3091,-2.3091,-2.2925,-2.276,-2.276,-2.276,-2.276,-2.276,-2.2925,-2.3091,-2.3091,-2.3091,-2.3091,-2.3091,-2.2567,-2.2076,-2.2076,-2.1339,-2.072,-2.072,-2.072,-2.075,-2.0932,-1.9948,-1.9234,-1.9201,-1.7131,-1.5662,-1.549,-1.4625,-1.4088,-1.4088,-1.4088,-1.3864,-1.3294,-1.2163,-1.1252,-1.074,-1.0139,-0.9231,-0.8057,-0.8057,-0.8364,-0.8934,-0.9536,-1.0438,-1.9158,-1.951,-1.9823,-2.0679,-2.1393,-2.1958,-2.2083,-2.1395,-2.0729,-2.0855,-2.088,-2.093,-2.1056,-2.0991,-2.0537,-1.9466,-1.9144,-1.8835,-1.837,-1.8066,-1.7822,-1.7725,-1.7803,-1.7939,-1.8135,-1.8849,-1.9638,-2.0485,-2.1885,-2.3066,-2.3957,-2.5016,-2.5862,-2.6474,-2.6499,-2.6499,-2.6499,-2.6499,-2.6499,-2.6499,-2.6499,-2.6499,-2.6499,-2.6499,-2.6499,-2.6499,-2.6499,-2.6889,-2.7469,-2.7469,-2.8122,-2.9126,-2.9126,-2.8686,-2.8044,-2.7464,-2.6935,-2.6565,-2.6801,-2.613,-2.521,-2.521,-2.4425,-2.3507,-2.3507,-2.3299,-2.3091,-2.3091,-2.2867,-2.2656,-2.2656,-2.2656,-2.2656,-2.2656,-2.2867,-2.3091,-2.3091,-2.3091,-2.3091,-2.3091,-2.3091,-2.3091,-2.3091,-2.2828,-2.2656,-2.2656,-2.2656,-2.2656,-2.2656,-2.1845,-2.122,-2.1018,-1.8488,-1.6511,-1.5852,-1.4747,-1.4088,-1.4088,-1.4088,-1.4088,-1.4088,-1.3203,-1.2589,-1.2328,-1.1423,-1.0438,-0.9279,-0.9279,-0.9449,-0.971,-1.0611,-1.1601,-2.0013,-1.9823,-1.9434,-2.1041,-2.1131,-2.0943,-2.143,-2.1119,-2.0842,-2.1358,-2.143,-2.1581,-2.2096,-2.1334,-2.0353,-1.942,-1.862,-1.7948,-1.7553,-1.7451,-1.7275,-1.6843,-1.7178,-1.7734,-1.8481,-1.8988,-2.0183,-2.2326,-2.2621,-2.3494,-2.534,-2.554,-2.5862,-2.6474,-2.6499,-2.6499,-2.6499,-2.6499,-2.6499,-2.6499,-2.6499,-2.6499,-2.6499,-2.6499,-2.6499,-2.6499,-2.6499,-2.7102,-2.8047,-2.8047,-2.8712,-2.9729,-2.9729,-2.9081,-2.8215,-2.9197,-2.8251,-2.6637,-2.7654,-2.7279,-2.6389,-2.6389,-2.5588,-2.467,-2.467,-2.392,-2.3091,-2.3091,-2.3071,-2.3052,-2.3052,-2.3052,-2.3052,-2.3052,-2.3071,-2.3091,-2.3091,-2.3091,-2.3091,-2.3091,-2.3091,-2.3091,-2.3091,-2.3071,-2.3052,-2.3052,-2.3052,-2.3052,-2.3052,-2.2013,-2.1284,-2.1257,-1.8591,-1.6125,-1.4409,-1.4137,-1.4088,-1.4088,-1.4088,-1.4088,-1.4088,-1.3997,-1.3428,-1.2328,-1.2237,-1.1638,-1.0481,-1.0481,-1.1042,-1.2066,-1.2157,-1.2808,-1.8844,-1.9083,-1.9321,-2.0679,-2.1106,-2.1206,-2.1202,-2.1316,-2.1503,-2.171,-2.1746,-2.1807,-2.2013,-2.1257,-2.0301,-1.9431,-1.8563,-1.7861,-1.7474,-1.7148,-1.7021,-1.7119,-1.7041,-1.7741,-1.9761,-2.0332,-2.1464,-2.3491,-2.4189,-2.4818,-2.5573,-2.5971,-2.6273,-2.6487,-2.6499,-2.6499,-2.6499,-2.6499,-2.6499,-2.6499,-2.6499,-2.6499,-2.6499,-2.6499,-2.6499,-2.6499,-2.6499,-2.7115,-2.8109,-2.8109,-2.8775,-2.9792,-2.9792,-2.9534,-2.9197,-2.9624,-2.9248,-2.8633,-2.9028,-2.845,-2.7481,-2.7481,-2.6284,-2.4787,-2.4787,-2.4006,-2.3091,-2.3091,-2.3091,-2.3091,-2.3091,-2.3091,-2.3091,-2.3091,-2.3091,-2.3091,-2.3091,-2.3091,-2.3091,-2.3091,-2.3091,-2.3091,-2.3091,-2.3091,-2.3091,-2.3091,-2.2877,-2.2799,-2.3062,-2.2279,-2.1845,-2.2391,-1.9885,-1.7501,-1.5646,-1.4764,-1.4202,-1.3793,-1.3808,-1.3808,-1.3808,-1.3808,-1.3553,-1.3118,-1.3296,-1.2857,-1.1638,-1.1638,-1.1895,-1.2285,-1.2285,-1.2942,-1.8606,-1.8982,-1.9547,-2.0679,-2.1232,-2.1421,-2.1069,-2.1548,-2.2086,-2.2255,-2.2292,-2.2187,-2.1939,-2.1207,-2.0301,-1.9431,-1.8442,-1.7666,-1.7236,-1.6892,-1.6814,-1.7139,-1.7031,-1.7935,-2.0562,-2.1147,-2.224,-2.4317,-2.5182,-2.5674,-2.585,-2.6285,-2.6499,-2.6499,-2.6499,-2.6499,-2.6499,-2.6499,-2.6499,-2.6499,-2.6499,-2.6499,-2.6499,-2.6499,-2.6499,-2.6499,-2.6675,-2.7291,-2.8122,-2.8298,-2.8925,-2.9792,-2.9792,-2.9792,-2.9792,-2.9792,-2.9792,-2.9792,-2.9792,-2.9275,-2.8597,-2.8215,-2.7093,-2.5692,-2.4988,-2.451,-2.4016,-2.3299,-2.3343,-2.3551,-2.3178,-2.3091,-2.3091,-2.3091,-2.3091,-2.3091,-2.3091,-2.3091,-2.3091,-2.3091,-2.3091,-2.3091,-2.3091,-2.3091,-2.3091,-2.3091,-2.2783,-2.2666,-2.3042,-2.2402,-2.1964,-2.2174,-2.0325,-1.8397,-1.6599,-1.5197,-1.4249,-1.39,-1.3567,-1.34,-1.346,-1.3553,-1.36,-1.36,-1.3935,-1.3688,-1.2851,-1.2851,-1.2851,-1.2851,-1.2851,-1.3294,-1.9786,-1.9798,-2.0075,-2.1192,-2.1481,-2.1434,-2.1081,-2.167,-2.2443,-2.2995,-2.3095,-2.2854,-2.2044,-2.1175,-2.0333,-1.9441,-1.8233,-1.7227,-1.6765,-1.6697,-1.6697,-1.6707,-1.7119,-1.8308,-2.0593,-2.1192,-2.2433,-2.4815,-2.5391,-2.585,-2.6461,-2.6499,-2.6499,-2.6499,-2.6499,-2.6499,-2.6499,-2.6499,-2.6499,-2.6499,-2.6499,-2.6499,-2.6499,-2.6499,-2.6499,-2.6524,-2.7077,-2.7595,-2.8147,-2.8675,-2.9277,-2.9792,-2.9792,-2.9792,-2.9792,-2.9792,-2.9792,-2.9792,-2.9792,-2.9792,-2.9624,-2.8466,-2.8124,-2.7683,-2.5493,-2.563,-2.6016,-2.3767,-2.392,-2.4542,-2.3387,-2.3091,-2.3091,-2.3091,-2.3091,-2.3091,-2.3091,-2.3091,-2.3091,-2.3091,-2.3091,-2.3091,-2.3091,-2.3091,-2.3091,-2.3091,-2.2783,-2.2656,-2.3023,-2.2402,-2.1492,-2.034,-1.9566,-1.8459,-1.6969,-1.5133,-1.4215,-1.4496,-1.3447,-1.2924,-1.32,-1.3447,-1.36,-1.36,-1.3935,-1.4088,-1.4088,-1.4088,-1.4088,-1.4088,-1.4088,-1.4088,-1.8317,-1.8932,-1.9744,-1.9536,-2.1047,-2.2288,-2.0993,-2.1381,-2.2067,-2.2224,-2.2702,-2.2935,-2.2416,-2.1374,-2.0411,-1.982,-1.8435,-1.7334,-1.7207,-1.665,-1.6525,-1.7119,-1.7305,-1.8565,-2.1501,-2.2179,-2.3468,-2.5881,-2.6152,-2.6311,-2.6487,-2.6499,-2.6499,-2.6499,-2.6499,-2.6499,-2.6499,-2.6499,-2.6499,-2.6499,-2.6499,-2.6499,-2.6499,-2.6499,-2.6499,-2.6524,-2.7077,-2.7595,-2.8185,-2.9139,-2.9641,-2.9792,-2.9792,-2.9792,-2.9792,-2.9792,-2.9792,-2.9792,-2.9792,-2.9792,-2.9753,-2.9417,-2.8767,-2.7964,-2.7308,-2.683,-2.6182,-2.4713,-2.4542,-2.4542,-2.3387,-2.3091,-2.3091,-2.3091,-2.3091,-2.3091,-2.3091,-2.3091,-2.3091,-2.3091,-2.3091,-2.3091,-2.3091,-2.3091,-2.3091,-2.3091,-2.2783,-2.2334,-2.1814,-2.2331,-2.2401,-2.1499,-2.021,-1.9101,-1.8475,-1.6132,-1.4606,-1.4235,-1.3494,-1.3206,-1.346,-1.336,-1.3393,-1.36,-1.3935,-1.4088,-1.4088,-1.4088,-1.4088,-1.4088,-1.4088,-1.4088,-1.8733,-1.964,-2.0568,-1.9631,-2.0831,-2.2074,-2.1287,-2.1522,-2.2002,-2.2322,-2.2936,-2.3152,-2.218,-2.1526,-2.083,-1.983,-1.8506,-1.7637,-1.7637,-1.7063,-1.6877,-1.7549,-1.7783,-1.908,-2.2191,-2.2735,-2.3898,-2.6311,-2.6499,-2.6499,-2.6499,-2.6499,-2.6499,-2.6499,-2.6499,-2.6499,-2.6499,-2.6499,-2.6499,-2.6499,-2.6499,-2.6499,-2.6499,-2.6499,-2.6499,-2.6537,-2.7268,-2.8059,-2.8825,-2.9515,-2.9792,-2.9792,-2.9792,-2.9792,-2.9792,-2.9792,-2.9792,-2.9792,-2.9792,-2.9792,-2.9714,-2.9275,-2.8648,-2.8004,-2.7602,-2.7005,-2.6348,-2.5672,-2.5168,-2.4617,-2.3963,-2.343,-2.3091,-2.3091,-2.3091,-2.3091,-2.3091,-2.3091,-2.3091,-2.3091,-2.3091,-2.3042,-2.2877,-2.2847,-2.2847,-2.2847,-2.2769,-2.2409,-2.1602,-2.2409,-2.2838,-2.2207,-2.0985,-2.0061,-1.9736,-1.7146,-1.5351,-1.4937,-1.3716,-1.3267,-1.3801,-1.3427,-1.3347,-1.3593,-1.3935,-1.4088,-1.4088,-1.4088,-1.4088,-1.4088,-1.4088,-1.4088,-2.0017,-2.0973,-2.1837,-2.0628,-2.0583,-2.1047,-2.1832,-2.1975,-2.2197,-2.3019,-2.3665,-2.355,-2.1796,-2.1767,-2.1435,-1.9753,-1.8664,-1.8018,-1.8057,-1.7637,-1.75,-1.7959,-1.8448,-1.9823,-2.257,-2.2997,-2.4061,-2.6346,-2.6499,-2.6499,-2.6499,-2.6499,-2.6499,-2.6499,-2.6499,-2.6499,-2.6499,-2.6499,-2.6499,-2.6499,-2.6499,-2.6499,-2.6499,-2.6499,-2.6549,-2.67,-2.767,-2.875,-2.9792,-2.9792,-2.9792,-2.9792,-2.9792,-2.9792,-2.9792,-2.9792,-2.9792,-2.9792,-2.9792,-2.9792,-2.9624,-2.8597,-2.8255,-2.8056,-2.7087,-2.6812,-2.6771,-2.6565,-2.5755,-2.4914,-2.4702,-2.3877,-2.3091,-2.3091,-2.3091,-2.3091,-2.3091,-2.3091,-2.3091,-2.3091,-2.3091,-2.2964,-2.2588,-2.2549,-2.2568,-2.2568,-2.2847,-2.2808,-2.2041,-2.2646,-2.2935,-2.2559,-2.1789,-2.1139,-2.0743,-1.7999,-1.6297,-1.6097,-1.4048,-1.3219,-1.4048,-1.352,-1.336,-1.3633,-1.3948,-1.4088,-1.4088,-1.4088,-1.4088,-1.4088,-1.4088,-1.4088,-1.8037,-1.9104,-2.027,-1.866,-1.8956,-2.0221,-2.2347,-2.2681,-2.2782,-2.3617,-2.4255,-2.4402,-2.3668,-2.2685,-2.1789,-2.1047,-1.9299,-1.8125,-1.8422,-1.7525,-1.7126,-1.792,-1.9049,-2.0443,-2.2193,-2.3676,-2.5097,-2.6405,-2.6499,-2.6499,-2.6499,-2.6499,-2.6499,-2.6499,-2.6499,-2.6499,-2.6499,-2.6499,-2.6499,-2.6499,-2.6499,-2.6499,-2.6499,-2.6499,-2.6964,-2.777,-2.7996,-2.875,-2.9792,-2.9792,-2.9792,-2.9792,-2.9792,-2.9792,-2.9792,-2.9792,-2.9792,-2.9792,-2.9792,-2.9792,-2.9753,-2.9495,-2.9443,-2.9404,-2.917,-2.9079,-2.8712,-2.6976,-2.6307,-2.5724,-2.393,-2.3256,-2.3091,-2.3091,-2.3091,-2.3091,-2.3091,-2.3091,-2.3091,-2.3091,-2.3091,-2.2964,-2.2588,-2.274,-2.2955,-2.2955,-2.3033,-2.2916,-2.2441,-2.2779,-2.2935,-2.2559,-2.1789,-2.1139,-2.0743,-1.8235,-1.6502,-1.6111,-1.4217,-1.3407,-1.4062,-1.352,-1.346,-1.3981,-1.4055,-1.4088,-1.4088,-1.4088,-1.4088,-1.4088,-1.4088,-1.4088,-1.8143,-1.9502,-2.0971,-1.9904,-2.0115,-2.0878,-2.2218,-2.313,-2.3845,-2.4285,-2.482,-2.4975,-2.4321,-2.3769,-2.2976,-2.1611,-2.0236,-1.9173,-1.8668,-1.7857,-1.7555,-1.8198,-1.9571,-2.0984,-2.2407,-2.4038,-2.5406,-2.6418,-2.6499,-2.6499,-2.6499,-2.6499,-2.6499,-2.6499,-2.6499,-2.6499,-2.6499,-2.6499,-2.6499,-2.6499,-2.6499,-2.6499,-2.6499,-2.6763,-2.7318,-2.8122,-2.8386,-2.8988,-2.9792,-2.9792,-2.9792,-2.9792,-2.9792,-2.9792,-2.9792,-2.9792,-2.9792,-2.9792,-2.9792,-2.9792,-2.9792,-2.9792,-2.9443,-2.9106,-2.9624,-2.9052,-2.8091,-2.7452,-2.6883,-2.6235,-2.502,-2.4307,-2.392,-2.392,-2.3507,-2.3091,-2.3091,-2.3091,-2.3091,-2.3091,-2.3091,-2.2964,-2.2588,-2.2652,-2.2789,-2.2789,-2.2964,-2.3013,-2.2799,-2.2955,-2.3013,-2.2789,-2.2412,-2.193,-2.133,-1.9547,-1.7912,-1.6727,-1.5135,-1.417,-1.411,-1.3654,-1.3627,-1.4082,-1.4088,-1.4088,-1.4088,-1.4088,-1.4088,-1.4088,-1.4088,-1.4088,-1.8497,-1.9959,-2.1631,-2.1865,-2.1908,-2.1939,-2.2075,-2.3415,-2.4675,-2.4775,-2.5234,-2.5352,-2.4575,-2.4575,-2.4049,-2.2053,-2.1243,-2.0397,-1.9023,-1.8468,-1.8306,-1.8486,-2.0009,-2.1493,-2.2665,-2.4284,-2.5594,-2.643,-2.6499,-2.6499,-2.6499,-2.6499,-2.6499,-2.6499,-2.6499,-2.6499,-2.6499,-2.6499,-2.6499,-2.6499,-2.6499,-2.6549,-2.6663,-2.7168,-2.767,-2.8134,-2.865,-2.9252,-2.9792,-2.9792,-2.9792,-2.9792,-2.9792,-2.9792,-2.9792,-2.9792,-2.9792,-2.9792,-2.9792,-2.9792,-2.9792,-2.9792,-2.9145,-2.8557,-2.9495,-2.8502,-2.7209,-2.7896,-2.7331,-2.6431,-2.6265,-2.5347,-2.45,-2.45,-2.38,-2.3091,-2.3091,-2.3091,-2.3091,-2.3091,-2.3033,-2.2896,-2.2666,-2.2559,-2.2539,-2.2607,-2.2877,-2.3091,-2.3091,-2.3091,-2.3091,-2.3091,-2.3033,-2.2715,-2.1953,-2.0796,-1.9291,-1.7416,-1.6043,-1.4928,-1.411,-1.376,-1.374,-1.4082,-1.4088,-1.4088,-1.4088,-1.4088,-1.4088,-1.4088,-1.4088,-1.4088,-1.6821,-1.7539,-1.9181,-2.1356,-2.1908,-2.2063,-2.2793,-2.3548,-2.4243,-2.4687,-2.5234,-2.5565,-2.5432,-2.4371,-2.3433,-2.3081,-2.1969,-2.0816,-1.9844,-1.9391,-1.8875,-1.8144,-2.0424,-2.2092,-2.2297,-2.4711,-2.6349,-2.6499,-2.6499,-2.6499,-2.6499,-2.6499,-2.6499,-2.6499,-2.6499,-2.6499,-2.6499,-2.6499,-2.6499,-2.6499,-2.6499,-2.6738,-2.7228,-2.7745,-2.8034,-2.8134,-2.865,-2.9252,-2.9792,-2.9792,-2.9792,-2.9792,-2.9792,-2.9792,-2.9792,-2.9792,-2.9792,-2.9792,-2.9792,-2.9792,-2.9792,-2.9792,-2.9714,-2.9585,-2.9753,-2.9585,-2.9157,-2.8347,-2.7331,-2.6265,-2.5294,-2.4168,-2.3343,-2.3343,-2.3222,-2.3091,-2.3091,-2.3091,-2.3091,-2.3091,-2.2799,-2.2652,-2.2955,-2.2711,-2.2637,-2.2955,-2.3062,-2.3091,-2.3091,-2.3091,-2.3091,-2.3091,-2.2769,-2.2402,-2.1924,-2.0544,-1.9009,-1.7408,-1.6043,-1.4928,-1.411,-1.376,-1.374,-1.4082,-1.4088,-1.4088,-1.4088,-1.4088,-1.4088,-1.4088,-1.4088,-1.4088,-1.8412,-1.897,-1.9802,-2.2013,-2.2567,-2.2671,-2.3005,-2.359,-2.4155,-2.4675,-2.4757,-2.4883,-2.5485,-2.4818,-2.3879,-2.3075,-2.2435,-2.1613,-2.0457,-2.014,-1.9879,-1.9497,-2.152,-2.292,-2.292,-2.4559,-2.5873,-2.6452,-2.599,-2.5921,-2.6452,-2.6499,-2.6499,-2.6499,-2.6499,-2.6499,-2.6499,-2.6499,-2.6499,-2.6499,-2.6499,-2.6612,-2.6889,-2.7708,-2.8273,-2.8562,-2.9164,-2.9553,-2.9792,-2.9792,-2.9792,-2.9792,-2.9792,-2.9792,-2.9792,-2.9792,-2.9792,-2.9792,-2.9792,-2.9792,-2.9792,-2.9792,-2.9792,-2.9792,-2.9792,-2.9792,-2.9573,-2.8426,-2.7763,-2.7157,-2.6047,-2.4925,-2.4049,-2.4049,-2.3551,-2.3091,-2.3091,-2.3091,-2.3091,-2.3091,-2.2945,-2.2877,-2.3062,-2.2945,-2.2886,-2.3062,-2.3091,-2.3091,-2.3091,-2.3091,-2.3091,-2.3091,-2.2721,-2.2344,-2.1924,-2.1058,-1.9643,-1.7697,-1.6854,-1.5808,-1.4358,-1.4048,-1.3955,-1.4082,-1.4088,-1.4088,-1.4088,-1.4088,-1.4088,-1.4088,-1.4088,-1.4088,-1.9195,-1.9883,-2.0339,-2.2201,-2.2794,-2.2932,-2.307,-2.3446,-2.3979,-2.465,-2.4268,-2.4104,-2.5197,-2.4845,-2.4021,-2.2977,-2.279,-2.2349,-2.1094,-2.0942,-2.0892,-2.0791,-2.2406,-2.3549,-2.368,-2.4712,-2.5699,-2.6452,-2.5804,-2.5699,-2.6452,-2.6499,-2.6499,-2.6499,-2.6499,-2.6499,-2.6499,-2.6499,-2.6499,-2.6499,-2.6499,-2.6637,-2.6939,-2.7733,-2.8486,-2.9126,-2.9603,-2.9792,-2.9792,-2.9792,-2.9792,-2.9792,-2.9792,-2.9792,-2.9792,-2.9792,-2.9792,-2.9792,-2.9792,-2.9792,-2.9792,-2.9792,-2.9792,-2.9792,-2.9792,-2.9792,-2.9624,-2.8767,-2.8307,-2.7844,-2.676,-2.563,-2.4745,-2.4414,-2.3714,-2.3091,-2.3091,-2.3091,-2.3091,-2.3091,-2.3091,-2.3091,-2.3091,-2.3091,-2.3091,-2.3091,-2.3091,-2.3091,-2.3091,-2.3091,-2.3091,-2.3091,-2.2666,-2.2227,-2.1914,-2.1484,-2.0233,-1.7929,-1.759,-1.657,-1.4596,-1.4242,-1.4088,-1.4088,-1.4088,-1.4088,-1.4088,-1.4088,-1.4088,-1.4088,-1.4088,-1.4088,-1.7251,-1.8298,-1.9473,-2.1165,-2.197,-2.2456,-2.2982,-2.3133,-2.3459,-2.4562,-2.391,-2.3496,-2.4625,-2.3935,-2.3153,-2.3085,-2.3085,-2.2787,-2.1951,-2.1815,-2.1697,-2.1394,-2.2628,-2.3692,-2.4226,-2.5551,-2.6452,-2.6499,-2.6465,-2.6452,-2.6499,-2.6499,-2.6499,-2.6499,-2.6499,-2.6499,-2.6499,-2.6499,-2.6499,-2.6499,-2.6499,-2.704,-2.8021,-2.8084,-2.8699,-2.9741,-2.9779,-2.9792,-2.9792,-2.9792,-2.9792,-2.9792,-2.9792,-2.9792,-2.9792,-2.9792,-2.9792,-2.9792,-2.9792,-2.9792,-2.9792,-2.9792,-2.9792,-2.9792,-2.9792,-2.9792,-2.9792,-2.9714,-2.8937,-2.7844,-2.676,-2.563,-2.4542,-2.343,-2.3135,-2.3091,-2.3091,-2.3091,-2.3091,-2.3091,-2.3091,-2.3091,-2.3091,-2.3091,-2.3091,-2.3091,-2.3091,-2.3091,-2.3091,-2.3091,-2.3091,-2.3091,-2.2402,-2.1904,-2.1885,-2.1484,-2.0233,-1.7929,-1.7912,-1.6896,-1.4603,-1.4242,-1.4088,-1.4088,-1.4088,-1.4088,-1.4088,-1.4088,-1.4088,-1.4088,-1.4088,-1.4088,-1.7925,-1.8896,-1.9829,-2.1173,-2.1892,-2.2347,-2.2531,-2.2844,-2.3421,-2.4562,-2.3885,-2.3446,-2.4575,-2.386,-2.3108,-2.3108,-2.3108,-2.3017,-2.2689,-2.2659,-2.2776,-2.303,-2.3802,-2.4538,-2.5077,-2.5369,-2.5804,-2.6465,-2.5908,-2.5804,-2.6465,-2.6499,-2.6499,-2.6499,-2.6499,-2.6499,-2.6499,-2.6499,-2.6499,-2.6499,-2.6499,-2.67,-2.709,-2.7419,-2.7996,-2.8725,-2.9089,-2.9453,-2.9792,-2.9792,-2.9792,-2.9792,-2.9792,-2.9792,-2.9792,-2.9792,-2.9792,-2.9792,-2.9792,-2.9792,-2.9792,-2.9792,-2.9792,-2.9792,-2.9792,-2.9792,-2.9792,-2.9792,-2.8976,-2.8016,-2.7614,-2.616,-2.45,-2.3387,-2.3091,-2.3091,-2.3091,-2.3091,-2.3091,-2.3091,-2.3091,-2.3091,-2.3091,-2.3091,-2.3091,-2.3091,-2.3091,-2.3091,-2.3091,-2.3091,-2.2994,-2.2721,-2.2471,-2.2178,-2.1904,-2.1748,-2.0665,-1.8311,-1.8053,-1.6961,-1.4603,-1.4242,-1.4088,-1.4088,-1.4088,-1.4088,-1.4088,-1.4088,-1.4088,-1.4088,-1.4088,-1.4088,-1.747,-1.8659,-2.0025,-2.1008,-2.1376,-2.1733,-2.2731,-2.2748,-2.292,-2.4268,-2.3923,-2.3622,-2.4374,-2.3898,-2.3333,-2.3133,-2.3108,-2.3108,-2.3108,-2.3271,-2.364,-2.4205,-2.4757,-2.5297,-2.5871,-2.5652,-2.5629,-2.599,-2.5699,-2.5664,-2.599,-2.6314,-2.6499,-2.6499,-2.6499,-2.6499,-2.6499,-2.6499,-2.6499,-2.6499,-2.6499,-2.6587,-2.6788,-2.7306,-2.7858,-2.8411,-2.8976,-2.944,-2.9792,-2.9792,-2.9792,-2.9792,-2.9792,-2.9792,-2.9792,-2.9792,-2.9792,-2.9792,-2.9792,-2.9792,-2.9792,-2.9792,-2.9792,-2.9792,-2.9792,-2.9792,-2.9792,-2.9792,-2.9236,-2.8597,-2.8215,-2.6479,-2.4617,-2.3844,-2.3387,-2.3091,-2.3091,-2.3091,-2.3091,-2.3091,-2.3091,-2.3091,-2.3091,-2.3091,-2.3091,-2.3091,-2.3091,-2.3091,-2.3091,-2.3091,-2.2935,-2.2559,-2.251,-2.2344,-2.1924,-2.2012,-2.1198,-1.9059,-1.8372,-1.7173,-1.5102,-1.4347,-1.3981,-1.4082,-1.4088,-1.4088,-1.4088,-1.4088,-1.4088,-1.4088,-1.4088,-1.4088,0.0,0.0,0.0,-2.0543,-2.0257,-2.0563,-2.3487,-2.2758,-2.1923,-2.3602,-2.3941,-2.3929,-2.3966,-2.3991,-2.3803,-2.3195,-2.3108,-2.3108,-2.3133,-2.364,-2.4205,-2.477,-2.5285,-2.5858,-2.6436,-2.6499,-2.6094,-2.5123,-2.5908,-2.6025,-2.5075,-2.599,-2.6499,-2.6499,-2.6499,-2.6499,-2.6499,-2.6499,-2.6499,-2.6499,-2.6499,-2.6776,-2.7268,-2.7821,-2.8386,-2.89,-2.9515,-2.9779,-2.9792,-2.9792,-2.9792,-2.9792,-2.9792,-2.9792,-2.9792,-2.9792,-2.9792,-2.9792,-2.9792,-2.9792,-2.9792,-2.9792,-2.9792,-2.9792,-2.9792,-2.9792,-2.9792,-2.9792,-2.9792,-2.9534,-2.8386,-2.6521,-2.4872,-2.483,-2.3963,-2.3135,-2.3091,-2.3091,-2.3091,-2.3091,-2.3091,-2.3091,-2.3091,-2.3091,-2.3091,-2.3091,-2.3091,-2.3091,-2.3091,-2.3091,-2.2935,-2.2559,-2.2519,-2.2353,-2.1943,-2.2295,-2.1816,-2.0114,-1.8894,-1.7594,-1.6182,-1.4483,-1.3753,-1.4082,-1.4088,-1.4088,-1.4088,-1.4088,-1.4088,-1.4088,-1.4088,-1.4088,-1.6921,0.0,0.0,0.0,0.0,0.0,-2.0215,-2.0289,-2.0759,-2.2434,-2.246,-2.2435,-2.3195,-2.3715,-2.3803,-2.3195,-2.3108,-2.3246,-2.3703,-2.3891,-2.4343,-2.5272,-2.5511,-2.5858,-2.6436,-2.6499,-2.6383,-2.6094,-2.5664,-2.5616,-2.606,-2.6349,-2.6499,-2.6499,-2.6499,-2.6499,-2.6499,-2.6499,-2.6499,-2.6499,-2.6499,-2.6575,-2.6738,-2.7291,-2.7808,-2.836,-2.8925,-2.9402,-2.9792,-2.9792,-2.9792,-2.9792,-2.9792,-2.9792,-2.9792,-2.9792,-2.9792,-2.9792,-2.9792,-2.9792,-2.9792,-2.9792,-2.9792,-2.9792,-2.9792,-2.9792,-2.9792,-2.9792,-2.9792,-2.9534,-2.8386,-2.7643,-2.6767,-2.5199,-2.4542,-2.4082,-2.3256,-2.3091,-2.3091,-2.3091,-2.3091,-2.3091,-2.3091,-2.3091,-2.3091,-2.3091,-2.3091,-2.3091,-2.3091,-2.3091,-2.2935,-2.2559,-2.274,-2.275,-2.2373,-2.2682,-2.2279,-2.0753,-1.9281,-1.7803,-1.6317,-1.4769,-1.4001,-1.4088,-1.4088,-1.4088,-1.4088,-1.4088,-1.4088,-1.4088,-1.4088,-1.4088,-1.7035,-1.7761,-1.8654,-1.9137,0.0,0.0,-2.0836,-2.0428,-2.0367,-2.2675,-2.2819,-2.2661,-2.3032,-2.3572,-2.3803,-2.3195,-2.3108,-2.3384,-2.423,-2.4531,-2.4895,-2.5523,-2.5812,-2.6122,-2.6461,-2.6499,-2.6314,-2.5921,-2.5734,-2.5873,-2.6452,-2.6499,-2.6499,-2.6499,-2.6499,-2.6499,-2.6499,-2.6499,-2.6499,-2.6499,-2.6499,-2.6612,-2.6851,-2.7369,-2.7921,-2.8486,-2.9051,-2.9478,-2.9792,-2.9792,-2.9792,-2.9792,-2.9792,-2.9792,-2.9792,-2.9792,-2.9792,-2.9792,-2.9792,-2.9792,-2.9792,-2.9792,-2.9792,-2.9792,-2.9792,-2.9792,-2.9792,-2.9792,-2.9792,-2.9663,-2.8976,-2.8478,-2.7683,-2.5911,-2.5168,-2.45,-2.3343,-2.3091,-2.3042,-2.2867,-2.2838,-2.2822,-2.2646,-2.2721,-2.2838,-2.2838,-2.2984,-2.3091,-2.3091,-2.3091,-2.2935,-2.2559,-2.2847,-2.2925,-2.2549,-2.2857,-2.2375,-2.0723,-1.9246,-1.7723,-1.6114,-1.4664,-1.3961,-1.4082,-1.4088,-1.4088,-1.4088,-1.4088,-1.4088,-1.4088,-1.4088,-1.4088,-1.657,-1.7785,-1.9523,-1.9643,-1.9003,0.0,-2.2827,-2.1594,-2.0428,-2.3133,-2.3603,-2.3381,-2.2926,-2.3359,-2.3593,-2.2921,-2.2975,-2.3496,-2.4625,-2.5172,-2.5485,-2.5674,-2.6122,-2.6424,-2.6487,-2.6499,-2.6129,-2.5229,-2.599,-2.6465,-2.6349,-2.6452,-2.6499,-2.6499,-2.6499,-2.6499,-2.6499,-2.6499,-2.6499,-2.6499,-2.6499,-2.6788,-2.7341,-2.7858,-2.8411,-2.8925,-2.9541,-2.9792,-2.9792,-2.9792,-2.9792,-2.9792,-2.9792,-2.9792,-2.9792,-2.9792,-2.9792,-2.9792,-2.9792,-2.9792,-2.9792,-2.9792,-2.9792,-2.9792,-2.9792,-2.9792,-2.9792,-2.9792,-2.9792,-2.9792,-2.9792,-2.9067,-2.8016,-2.6924,-2.5797,-2.467,-2.3551,-2.3178,-2.2955,-2.2539,-2.248,-2.2383,-2.1963,-2.2227,-2.25,-2.25,-2.2818,-2.3091,-2.3091,-2.3091,-2.2955,-2.2617,-2.2877,-2.2945,-2.2617,-2.2838,-2.2251,-2.0398,-1.8944,-1.7439,-1.5846,-1.4406,-1.3814,-1.4082,-1.4088,-1.4088,-1.4088,-1.4088,-1.4088,-1.4088,-1.4088,-1.4088,-1.7079,-1.7553,-1.8263,-1.827,-1.965,0.0,-1.8782,-1.9207,-1.9971,-1.9876,-2.0267,-2.0721,-2.1021,-2.1944,-2.23,-2.1277,-2.2214,-2.3496,-2.4625,-2.4531,-2.4808,-2.6172,-2.6009,-2.5984,-2.6449,-2.6499,-2.6418,-2.6233,-2.6383,-2.6129,-2.5335,-2.606,-2.6499,-2.6499,-2.6499,-2.6499,-2.6499,-2.6499,-2.6499,-2.6499,-2.6499,-2.6788,-2.7341,-2.7858,-2.8411,-2.8925,-2.9541,-2.9792,-2.9792,-2.9792,-2.9792,-2.9792,-2.9792,-2.9792,-2.9792,-2.9792,-2.9792,-2.9792,-2.9792,-2.9792,-2.9792,-2.9792,-2.9792,-2.9792,-2.9792,-2.9792,-2.9792,-2.9792,-2.9792,-2.9792,-2.9792,-2.9624,-2.9197,-2.8068,-2.6953,-2.585,-2.4713,-2.3757,-2.2877,-2.2158,-2.2275,-2.2383,-2.1963,-2.2242,-2.25,-2.25,-2.2856,-2.3091,-2.3091,-2.3091,-2.3062,-2.2984,-2.3042,-2.3062,-2.2984,-2.2783,-2.2112,-2.0823,-1.9049,-1.7469,-1.6212,-1.4762,-1.4028,-1.4088,-1.4088,-1.4088,-1.4088,-1.4088,-1.4088,-1.4088,-1.4088,-1.4088,-1.7074,-1.7339,-1.8082,-1.8412,-1.9157,0.0,0.0,-1.9817,-2.009,-2.0962,-2.0592,-2.0293,-2.0883,-2.1191,-2.1162,-2.0637,-2.1765,-2.2805,-2.3105,-2.3879,-2.472,-2.5548,-2.5385,-2.5423,-2.6009,-2.6059,-2.6185,-2.6474,-2.6499,-2.628,-2.5769,-2.6245,-2.6499,-2.6499,-2.6499,-2.6499,-2.6499,-2.6499,-2.6499,-2.6499,-2.6776,-2.719,-2.7708,-2.826,-2.8825,-2.9377,-2.9666,-2.9792,-2.9792,-2.9792,-2.9792,-2.9792,-2.9792,-2.9792,-2.9792,-2.9792,-2.9792,-2.9792,-2.9792,-2.9792,-2.9792,-2.9792,-2.9792,-2.9792,-2.9792,-2.9792,-2.9792,-2.9792,-2.9792,-2.9792,-2.9792,-2.9792,-2.9495,-2.8386,-2.7683,-2.6803,-2.4911,-2.4052,-2.3287,-2.2126,-2.206,-2.206,-2.1641,-2.2083,-2.2506,-2.2506,-2.2832,-2.3091,-2.3091,-2.3091,-2.3091,-2.3091,-2.3091,-2.3091,-2.3091,-2.2251,-2.1127,-1.9825,-1.8125,-1.658,-1.5255,-1.4487,-1.4088,-1.4088,-1.4088,-1.4088,-1.4088,-1.4088,-1.4088,-1.4088,-1.4088,-1.4088,-1.7583,-1.7842,-1.8851,-1.9155,-1.9017,-1.9324,0.0,0.0,0.0,-2.1922,-2.1122,-2.0238,-2.0675,-2.0316,-1.9934,-1.9889,-2.0809,-2.1351,-2.0934,-2.2585,-2.3948,-2.4274,-2.4499,-2.4833,-2.5247,-2.5184,-2.5485,-2.6424,-2.6197,-2.616,-2.6474,-2.6499,-2.6499,-2.6499,-2.6499,-2.6499,-2.6499,-2.6499,-2.6549,-2.6663,-2.7102,-2.7632,-2.8285,-2.8687,-2.9252,-2.9792,-2.9792,-2.9792,-2.9792,-2.9792,-2.9792,-2.9792,-2.9792,-2.9792,-2.9792,-2.9792,-2.9792,-2.9792,-2.9792,-2.9792,-2.9792,-2.9792,-2.9792,-2.9792,-2.9792,-2.9792,-2.9792,-2.9792,-2.9792,-2.9792,-2.9792,-2.9624,-2.9236,-2.8307,-2.7763,-2.6874,-2.4653,-2.4043,-2.3463,-2.217,-2.1953,-2.1865,-2.1395,-2.1982,-2.2523,-2.2523,-2.2852,-2.3091,-2.3091,-2.3091,-2.3091,-2.3091,-2.3091,-2.3091,-2.3091,-2.1711,-2.0199,-1.869,-1.7126,-1.5624,-1.4137,-1.4088,-1.4088,-1.4088,-1.4088,-1.4088,-1.4088,-1.4088,-1.4088,-1.4088,-1.4088,-1.4088,-1.9888,-2.0281,-2.0957,-1.9966,-2.0951,-2.1508,-1.9003,0.0,-1.9628,-1.8145,0.0,-1.8953,-1.8547,0.0,0.0,-1.7737,-1.8228,-1.864,-1.8568,-1.961,-2.0928,-2.2422,-2.3489,-2.4117,-2.418,-2.3684,-2.4255,-2.6336,-2.5129,-2.4921,-2.6411,-2.6499,-2.6499,-2.6499,-2.6499,-2.6499,-2.6499,-2.6499,-2.6738,-2.7228,-2.7291,-2.7821,-2.88,-2.8863,-2.9252,-2.9792,-2.9792,-2.9792,-2.9792,-2.9792,-2.9792,-2.9792,-2.9792,-2.9792,-2.9792,-2.9792,-2.9792,-2.9792,-2.9792,-2.9792,-2.9792,-2.9792,-2.9792,-2.9792,-2.9792,-2.9792,-2.9792,-2.9792,-2.9792,-2.9792,-2.9792,-2.9067,-2.8255,-2.8136,-2.6603,-2.4987,-2.4334,-2.3398,-2.2552,-2.2004,-2.2187,-2.2305,-2.1885,-2.2203,-2.249,-2.249,-2.2846,-2.3091,-2.3091,-2.3091,-2.3091,-2.3091,-2.3091,-2.3091,-2.3091,-2.1615,-2.0112,-1.8698,-1.704,-1.5496,-1.4137,-1.4088,-1.4088,-1.4088,-1.4088,-1.4088,-1.4088,-1.4088,-1.4088,-1.4088,-1.4088,-1.4088,-2.0316,-2.0897,-2.1589,-2.0293,-2.0876,-2.1225,-1.9079,-1.8777,-1.8816,-1.8347,0.0,0.0,0.0,0.0,0.0,0.0,-1.7557,-1.7859,0.0,0.0,-2.0062,-2.0778,0.0,0.0,-2.2924,-2.3058,-2.376,-2.5385,-2.4569,-2.4569,-2.5921,-2.6311,-2.6499,-2.6499,-2.6499,-2.6499,-2.6499,-2.6499,-2.6776,-2.7281,-2.7607,-2.8172,-2.89,-2.9277,-2.9566,-2.9792,-2.9792,-2.9792,-2.9792,-2.9792,-2.9792,-2.9792,-2.9792,-2.9792,-2.9792,-2.9792,-2.9792,-2.9792,-2.9792,-2.9792,-2.9792,-2.9792,-2.9792,-2.9792,-2.9792,-2.9792,-2.9792,-2.9792,-2.9792,-2.9792,-2.9792,-2.8937,-2.8096,-2.8096,-2.6901,-2.559,-2.4836,-2.4049,-2.3339,-2.2808,-2.2605,-2.2539,-2.2607,-2.2715,-2.2846,-2.2846,-2.2998,-2.3091,-2.3091,-2.3091,-2.3091,-2.3091,-2.3091,-2.3091,-2.3091,-2.1038,-1.946,-1.8655,-1.6282,-1.4993,-1.5019,-1.4454,-1.4412,-1.5019,-1.4412,-1.4088,-1.4088,-1.4088,-1.4088,-1.4088,-1.4088,-1.4088,-2.1902,-2.2251,-2.2522,-2.0545,-2.0304,-2.0133,-1.8535,-1.8031,-1.7989,-1.8308,-1.8099,0.0,0.0,0.0,-1.6723,-1.6413,0.0,-1.7214,0.0,-1.7526,0.0,0.0,0.0,0.0,0.0,-2.1791,-2.2531,-2.4424,-2.3653,-2.3891,-2.5737,-2.6122,-2.6336,-2.6487,-2.6499,-2.6499,-2.6499,-2.6499,-2.6851,-2.7507,-2.7908,-2.8486,-2.9176,-2.9603,-2.9792,-2.9792,-2.9792,-2.9792,-2.9792,-2.9792,-2.9792,-2.9792,-2.9792,-2.9792,-2.9792,-2.9792,-2.9792,-2.9792,-2.9792,-2.9792,-2.9792,-2.9792,-2.9792,-2.9792,-2.9792,-2.9792,-2.9792,-2.9792,-2.9792,-2.9792,-2.9792,-2.8937,-2.8016,-2.7723,-2.683,-2.5703,-2.4548,-2.4007,-2.3608,-2.3156,-2.2768,-2.2646,-2.3023,-2.3091,-2.3091,-2.3091,-2.3091,-2.3091,-2.3091,-2.3091,-2.3091,-2.3091,-2.3091,-2.3091,-2.3091,-2.0642,-1.863,-1.7526,-1.5362,-1.4573,-1.5662,-1.4657,-1.4615,-1.5696,-1.4657,-1.4088,-1.4088,-1.4088,-1.4088,-1.4088,-1.4088,-1.4088,-2.5743,-2.526,-2.4417,-2.0799,-1.952,-1.857,-1.6312,-1.6648,-1.7267,-1.669,-1.8258,-1.9391,-1.8383,-1.8174,-1.7787,-1.6679,-1.6417,0.0,0.0,0.0,0.0,0.0,0.0,0.0,0.0,-1.9284,-1.9936,0.0,-2.2036,-2.2451,-2.626,-2.5946,-2.5921,-2.6474,-2.6499,-2.6499,-2.6499,-2.6499,-2.704,-2.8084,-2.8097,-2.8687,-2.9767,-2.9779,-2.9792,-2.9792,-2.9792,-2.9792,-2.9792,-2.9792,-2.9792,-2.9792,-2.9792,-2.9792,-2.9792,-2.9792,-2.9792,-2.9792,-2.9792,-2.9792,-2.9792,-2.9792,-2.9792,-2.9792,-2.9792,-2.9792,-2.9792,-2.9792,-2.9792,-2.9792,-2.9792,-2.8937,-2.7855,-2.6801,-2.5672,-2.446,-2.2909,-2.2585,-2.2552,-2.2533,-2.25,-2.2646,-2.3023,-2.3091,-2.3091,-2.3091,-2.3091,-2.3091,-2.3091,-2.3091,-2.3091,-2.3091,-2.3091,-2.3091,-2.3091,-2.0642,-1.7829,-1.4824,-1.4298,-1.4573,-1.5662,-1.4657,-1.4615,-1.5696,-1.4657,-1.4088,-1.4088,-1.4088,-1.4088,-1.4088,-1.4088,-1.4088,-2.5312,-2.619,-2.6397,-2.2637,-2.196,-2.1341,-1.8034,-1.7923,-1.8238,-1.7177,-1.8946,-2.0274,-1.9035,-1.8512,-1.802,-1.7277,-1.6746,-1.6008,0.0,0.0,0.0,0.0,0.0,0.0,0.0,0.0,0.0,0.0,-2.2322,0.0,-2.5762,-2.5699,-2.5862,-2.6474,-2.6499,-2.6499,-2.6499,-2.6499,-2.7052,-2.8109,-2.8109,-2.8699,-2.9792,-2.9792,-2.9792,-2.9792,-2.9792,-2.9792,-2.9792,-2.9792,-2.9792,-2.9792,-2.9792,-2.9792,-2.9792,-2.9792,-2.9792,-2.9792,-2.9792,-2.9792,-2.9792,-2.9792,-2.9792,-2.9792,-2.9792,-2.9792,-2.9792,-2.9792,-2.9792,-2.9792,-2.9792,-2.8937,-2.7844,-2.676,-2.563,-2.4545,-2.3668,-2.3185,-2.3014,-2.3427,-2.3195,-2.2925,-2.3071,-2.3091,-2.3091,-2.3091,-2.3091,-2.3091,-2.3091,-2.3091,-2.3091,-2.3091,-2.3091,-2.3091,-2.3091,-2.0446,-1.7526,-1.4673,-1.4249,-1.4901,-1.6683,-1.5068,-1.4943,-1.6723,-1.5026,-1.4088,-1.4088,-1.4088,-1.4088,-1.4088,-1.4088,-1.4088,-2.63,-2.7427,-2.7911,-2.4347,-2.3841,-2.3233,-1.9424,-1.9538,-2.0103,-1.8854,-2.0206,-2.1582,-2.1458,-2.0215,-1.9089,-1.881,-1.7965,-1.6797,0.0,-1.4808,0.0,0.0,0.0,0.0,0.0,0.0,0.0,0.0,0.0,0.0,0.0,-2.5711,-2.5862,-2.6474,-2.6499,-2.6499,-2.6499,-2.6688,-2.7241,-2.8109,-2.8298,-2.8888,-2.9792,-2.9792,-2.9792,-2.9792,-2.9792,-2.9792,-2.9792,-2.9792,-2.9792,-2.9792,-2.9792,-2.9792,-2.9792,-2.9792,-2.9792,-2.9792,-2.9792,-2.9917,-3.008,-3.008,-3.008,-3.0118,-3.0306,-3.0093,-2.9829,-3.003,-2.9942,-2.9792,-2.9792,-2.9275,-2.8319,-2.6842,-2.5922,-2.5093,-2.3947,-2.3361,-2.3221,-2.3608,-2.3371,-2.3091,-2.3091,-2.3091,-2.3091,-2.3091,-2.3091,-2.3091,-2.3091,-2.3091,-2.3091,-2.3091,-2.3091,-2.2834,-2.2126,-1.9822,-1.756,-1.5631,-1.4599,-1.5068,-1.7212,-1.5228,-1.4943,-1.6683,-1.4985,-1.4088,-1.4088,-1.4088,-1.4088,-1.4088,-1.4088,-1.4088]},{"header":{"parameterUnit":"m.s-1","parameterCategory":1,"la1":30.6,"la2":29.2853,"lo1":-89.7004,"lo2":-87.6739,"dx":0.0162,"dy":0.0183,"nx":112,"ny":82,"refTime":"2022-11-06T00:00:00:Z","depth":0,"parameterNumber":3,"parameterNumberName":"V-component_of_WINDS"},"data":[0.0,0.0,0.0,0.0,0.0,0.0,0.0,0.0,0.0,0.0,0.0,0.0,0.0,0.0,0.0,0.0,0.0,0.0,0.0,0.0,0.0,0.0,0.0,0.0,0.0,0.0,0.0,0.0,0.0,0.0,0.0,0.0,0.0,0.0,0.0,0.0,0.0,0.0,0.0,0.0,0.0,0.0,0.0,0.0,0.0,0.0,0.0,0.0,0.0,0.0,0.0,0.0,0.0,0.0,0.0,0.0,0.0,0.0,0.0,0.0,0.0,0.0,0.0,0.0,0.0,0.0,0.0,0.0,0.0,0.0,0.0,0.0,0.0,0.0,0.0,0.0,0.0,0.0,0.0,0.0,0.0,0.0,0.0,0.0,0.0,0.0,0.0,0.0,0.0,0.0,2.7109,2.8906,3.2441,3.4453,3.3848,3.4473,3.3046,2.8653,0.0,0.0,0.0,0.0,0.0,0.0,0.0,0.0,0.0,0.0,0.0,0.0,0.0,0.0,0.0,0.0,0.0,0.0,0.0,0.0,0.0,0.0,0.0,0.0,0.0,0.0,0.0,0.0,0.0,0.0,0.0,0.0,0.0,0.0,0.0,0.0,0.0,0.0,0.0,0.0,0.0,0.0,0.0,0.0,0.0,0.0,0.0,0.0,0.0,0.0,0.0,0.0,0.0,0.0,0.0,0.0,0.0,0.0,0.0,0.0,0.0,0.0,0.0,0.0,0.0,0.0,0.0,0.0,0.0,0.0,0.0,0.0,0.0,0.0,0.0,0.0,0.0,0.0,0.0,0.0,0.0,0.0,0.0,0.0,0.0,0.0,0.0,0.0,0.0,0.0,0.0,0.0,0.0,0.0,0.0,0.0,0.0,0.0,0.0,0.0,0.0,0.0,0.0,0.0,2.6055,3.1992,3.3867,3.4941,3.5547,3.5723,3.3922,2.9499,0.0,0.0,0.0,0.0,0.0,0.0,0.0,0.0,0.0,0.0,0.0,0.0,0.0,0.0,0.0,0.0,0.0,0.0,0.0,0.0,0.0,0.0,0.0,0.0,0.0,0.0,0.0,0.0,0.0,0.0,0.0,0.0,0.0,0.0,0.0,0.0,0.0,0.0,0.0,0.0,0.0,0.0,0.0,0.0,0.0,0.0,0.0,0.0,0.0,0.0,0.0,0.0,0.0,0.0,0.0,0.0,0.0,0.0,0.0,0.0,0.0,0.0,0.0,0.0,0.0,0.0,0.0,0.0,0.0,0.0,0.0,0.0,0.0,0.0,0.0,0.0,0.0,0.0,0.0,0.0,0.0,0.0,0.0,0.0,0.0,0.0,0.0,0.0,0.0,0.0,0.0,0.0,0.0,0.0,0.0,0.0,0.0,0.0,0.0,0.0,0.0,0.0,0.0,2.6582,2.9101,3.3613,3.4883,3.5566,3.5976,3.5972,3.4087,2.9733,2.787,0.0,0.0,0.0,0.0,0.0,0.0,0.0,0.0,0.0,0.0,0.0,0.0,0.0,0.0,0.0,0.0,0.0,0.0,0.0,0.0,0.0,0.0,0.0,0.0,0.0,0.0,0.0,0.0,0.0,0.0,0.0,0.0,0.0,0.0,0.0,0.0,0.0,0.0,0.0,0.0,0.0,0.0,0.0,0.0,0.0,0.0,0.0,0.0,0.0,0.0,0.0,0.0,0.0,0.0,0.0,0.0,0.0,0.0,0.0,0.0,0.0,0.0,0.0,0.0,0.0,0.0,0.0,0.0,0.0,0.0,0.0,0.0,0.0,0.0,0.0,0.0,0.0,0.0,0.0,0.0,0.0,0.0,0.0,0.0,0.0,0.0,0.0,0.0,0.0,0.0,0.0,0.0,0.0,0.0,0.0,0.0,0.0,0.0,0.0,0.0,0.0,0.0,3.0312,3.2305,3.4473,3.5488,3.5996,3.5975,3.575,3.3764,2.9416,2.7546,0.0,0.0,0.0,0.0,0.0,0.0,0.0,0.0,0.0,0.0,0.0,0.0,0.0,0.0,0.0,0.0,0.0,0.0,0.0,0.0,0.0,0.0,0.0,0.0,0.0,0.0,0.0,0.0,0.0,0.0,0.0,0.0,0.0,0.0,0.0,0.0,0.0,0.0,0.0,0.0,0.0,0.0,0.0,0.0,0.0,0.0,0.0,0.0,0.0,0.0,0.0,0.0,0.0,0.0,0.0,0.0,0.0,0.0,0.0,0.0,0.0,0.0,0.0,0.0,0.0,0.0,0.0,0.0,0.0,0.0,0.0,0.0,0.0,0.0,0.0,0.0,0.0,0.0,0.0,0.0,0.0,0.0,0.0,0.0,0.0,0.0,0.0,0.0,0.0,0.0,0.0,0.0,0.0,0.0,0.0,0.0,0.0,0.0,0.0,0.0,0.0,0.0,3.0215,3.3594,3.459,3.5488,3.5974,3.591,3.5228,3.2875,2.8388,2.6649,0.0,0.0,0.0,0.0,0.0,0.0,0.0,0.0,0.0,0.0,0.0,0.0,0.0,0.0,0.0,0.0,0.0,0.0,0.0,0.0,0.0,0.0,0.0,0.0,0.0,0.0,0.0,0.0,0.0,0.0,0.0,0.0,0.0,0.0,0.0,0.0,0.0,0.0,0.0,0.0,0.0,0.0,0.0,0.0,0.0,0.0,0.0,0.0,0.0,0.0,0.0,0.0,0.0,0.0,0.0,0.0,0.0,0.0,0.0,0.0,0.0,0.0,0.0,0.0,0.0,0.0,0.0,0.0,0.0,0.0,0.0,0.0,0.0,0.0,0.0,0.0,0.0,0.0,0.0,0.0,0.0,0.0,0.0,0.0,0.0,0.0,0.0,0.0,0.0,0.0,0.0,0.0,0.0,0.0,0.0,0.0,0.0,0.0,0.0,0.0,0.0,0.0,2.9961,3.2578,3.4492,3.5488,3.5974,3.5905,3.5094,3.2706,2.8339,0.0,0.0,0.0,0.0,0.0,0.0,0.0,0.0,0.0,0.0,0.0,0.0,0.0,0.0,0.0,0.0,0.0,0.0,0.0,0.0,0.0,0.0,0.0,0.0,0.0,0.0,0.0,0.0,0.0,0.0,0.0,0.0,0.0,0.0,0.0,0.0,0.0,0.0,0.0,0.0,0.0,0.0,0.0,0.0,0.0,0.0,0.0,0.0,0.0,0.0,0.0,0.0,0.0,0.0,0.0,0.0,0.0,0.0,0.0,0.0,0.0,0.0,0.0,0.0,0.0,0.0,0.0,0.0,0.0,0.0,0.0,0.0,0.0,0.0,0.0,0.0,0.0,0.0,0.0,0.0,0.0,0.0,0.0,0.0,0.0,0.0,0.0,0.0,0.0,0.0,0.0,0.0,0.0,0.0,0.0,0.0,0.0,0.0,0.0,0.0,0.0,0.0,2.7672,3.0251,3.2439,3.4451,3.5468,3.5974,3.5905,3.48,3.2272,2.7954,0.0,0.0,0.0,0.0,0.0,0.0,0.0,0.0,0.0,0.0,0.0,0.0,0.0,0.0,0.0,0.0,0.0,0.0,0.0,0.0,0.0,0.0,0.0,0.0,0.0,0.0,0.0,0.0,0.0,0.0,0.0,0.0,0.0,0.0,0.0,0.0,0.0,0.0,0.0,0.0,0.0,0.0,0.0,0.0,0.0,0.0,0.0,0.0,0.0,0.0,0.0,0.0,0.0,0.0,0.0,0.0,0.0,0.0,0.0,0.0,0.0,0.0,0.0,0.0,0.0,0.0,0.0,0.0,0.0,0.0,0.0,0.0,0.0,0.0,0.0,0.0,0.0,0.0,0.0,0.0,0.0,0.0,0.0,0.0,0.0,0.0,0.0,0.0,0.0,0.0,0.0,0.0,0.0,0.0,0.0,0.0,0.0,0.0,0.0,0.0,0.0,0.0,2.7759,3.1184,3.3647,3.4526,3.5446,3.5974,3.5926,3.4306,3.1441,0.0,0.0,0.0,0.0,0.0,0.0,0.0,0.0,0.0,0.0,0.0,0.0,0.0,0.0,0.0,0.0,0.0,0.0,0.0,0.0,0.0,0.0,0.0,0.0,0.0,0.0,0.0,0.0,0.0,0.0,0.0,0.0,0.0,0.0,0.0,0.0,0.0,0.0,0.0,0.0,0.0,0.0,0.0,0.0,0.0,0.0,0.0,0.0,0.0,0.0,0.0,0.0,0.0,0.0,0.0,0.0,0.0,0.0,0.0,0.0,0.0,0.0,0.0,0.0,0.0,0.0,0.0,0.0,0.0,0.0,0.0,0.0,0.0,0.0,0.0,0.0,0.0,0.0,0.0,0.0,0.0,0.0,0.0,0.0,0.0,0.0,0.0,0.0,0.0,0.0,0.0,0.0,0.0,0.0,0.0,0.0,0.0,0.0,0.0,0.0,0.0,0.0,0.0,2.769,3.1166,3.3879,3.5359,3.5815,3.6228,3.6765,3.4659,3.145,2.7145,0.0,0.0,0.0,0.0,0.0,0.0,0.0,0.0,0.0,0.0,0.0,0.0,0.0,0.0,0.0,0.0,0.0,0.0,0.0,0.0,0.0,0.0,0.0,0.0,0.0,0.0,0.0,0.0,0.0,0.0,0.0,0.0,0.0,0.0,0.0,0.0,0.0,0.0,0.0,0.0,0.0,0.0,0.0,0.0,0.0,0.0,0.0,0.0,0.0,0.0,0.0,0.0,0.0,0.0,0.0,0.0,0.0,0.0,0.0,0.0,0.0,0.0,0.0,0.0,0.0,0.0,0.0,0.0,0.0,0.0,0.0,0.0,0.0,0.0,0.0,0.0,0.0,0.0,0.0,0.0,0.0,0.0,0.0,0.0,0.0,0.0,0.0,0.0,0.0,0.0,0.0,0.0,0.0,0.0,0.0,0.0,0.0,0.0,0.0,0.0,0.0,0.0,2.8094,3.1609,3.4437,3.6165,3.6767,3.7089,3.7235,3.5136,3.2146,2.8225,0.0,0.0,0.0,0.0,0.0,0.0,0.0,0.0,0.0,0.0,0.0,0.0,0.0,0.0,0.0,0.0,0.0,0.0,0.0,0.0,0.0,0.0,0.0,0.0,0.0,0.0,0.0,0.0,0.0,0.0,0.0,0.0,0.0,0.0,0.0,0.0,0.0,0.0,0.0,0.0,0.0,0.0,0.0,0.0,0.0,0.0,0.0,0.0,0.0,0.0,0.0,0.0,0.0,0.0,0.0,0.0,0.0,0.0,0.0,0.0,0.0,0.0,0.0,0.0,0.0,0.0,0.0,0.0,0.0,0.0,0.0,0.0,0.0,0.0,0.0,0.0,0.0,0.0,0.0,0.0,0.0,0.0,0.0,0.0,0.0,0.0,0.0,0.0,0.0,0.0,0.0,0.0,0.0,0.0,0.0,0.0,0.0,0.0,0.0,0.0,0.0,0.0,2.8848,3.2341,3.5191,3.7037,3.8043,3.83,3.7598,3.5734,3.3212,2.9922,0.0,0.0,0.0,0.0,0.0,0.0,0.0,0.0,0.0,0.0,0.0,0.0,0.0,0.0,0.0,0.0,0.0,0.0,0.0,0.0,0.0,0.0,0.0,0.0,0.0,0.0,0.0,0.0,0.0,0.0,0.0,0.0,0.0,0.0,0.0,0.0,0.0,0.0,0.0,0.0,0.0,0.0,0.0,0.0,0.0,0.0,0.0,0.0,0.0,0.0,0.0,0.0,0.0,0.0,0.0,0.0,0.0,0.0,0.0,0.0,2.3354,2.1247,0.0,0.0,0.0,0.0,0.0,0.0,0.0,0.0,0.0,0.0,0.0,0.0,0.0,0.0,0.0,0.0,0.0,0.0,0.0,0.0,0.0,0.0,0.0,0.0,0.0,0.0,0.0,0.0,0.0,0.0,0.0,0.0,0.0,0.0,0.0,0.0,0.0,0.0,0.0,0.0,2.9539,3.26,3.5549,3.8707,3.867,3.8698,3.9297,3.6484,3.3515,3.0781,2.7753,0.0,0.0,0.0,0.0,0.0,0.0,0.0,0.0,0.0,0.0,0.0,0.0,0.0,0.0,0.0,0.0,0.0,0.0,0.0,0.0,0.0,0.0,0.0,0.0,0.0,0.0,0.0,0.0,0.0,0.0,0.0,0.0,0.0,0.0,0.0,0.0,0.0,0.0,0.0,0.0,0.0,0.0,0.0,0.0,0.0,0.0,0.0,0.0,0.0,0.0,0.0,0.0,0.0,0.0,0.0,0.0,0.0,0.0,0.0,2.5959,2.4559,0.0,0.0,0.0,0.0,0.0,0.0,0.0,0.0,0.0,0.0,0.0,0.0,0.0,0.0,0.0,0.0,0.0,0.0,0.0,0.0,0.0,0.0,0.0,0.0,0.0,0.0,0.0,0.0,0.0,0.0,0.0,0.0,0.0,0.0,0.0,0.0,0.0,0.0,0.0,0.0,3.0462,3.368,3.6585,3.9303,3.9633,3.9725,3.9883,3.7461,3.5039,3.2851,2.9472,0.0,0.0,0.0,0.0,0.0,0.0,0.0,0.0,0.0,0.0,0.0,0.0,0.0,0.0,0.0,0.0,0.0,0.0,0.0,0.0,0.0,0.0,0.0,0.0,0.0,0.0,0.0,0.0,0.0,0.0,0.0,0.0,0.0,0.0,0.0,0.0,0.0,0.0,0.0,0.0,0.0,0.0,0.0,0.0,0.0,0.0,0.0,0.0,0.0,0.0,0.0,0.0,0.0,2.4574,2.5607,2.7077,2.7217,2.8453,3.0354,2.8091,2.7839,2.8769,2.5744,0.0,0.0,0.0,0.0,0.0,0.0,0.0,0.0,0.0,0.0,0.0,0.0,0.0,0.0,0.0,0.0,0.0,0.0,0.0,0.0,0.0,0.0,2.8248,2.6453,2.7215,2.7563,2.4736,0.0,0.0,0.0,0.0,0.0,0.0,0.0,0.0,0.0,0.0,0.0,3.1448,3.4817,3.7569,3.9396,4.0424,4.0673,3.9961,3.8301,3.6621,3.5039,3.1191,2.8495,0.0,0.0,0.0,0.0,0.0,0.0,0.0,0.0,0.0,0.0,0.0,0.0,0.0,0.0,0.0,0.0,0.0,0.0,0.0,0.0,0.0,0.0,0.0,0.0,0.0,0.0,0.0,0.0,0.0,0.0,0.0,0.0,1.8575,1.9072,0.0,0.0,0.0,0.0,0.0,0.0,0.0,0.0,0.0,0.0,0.0,0.0,0.0,2.4221,2.5378,2.6208,2.6762,2.7065,2.85,2.9798,3.0996,3.1693,3.2589,3.3561,3.2753,0.0,2.9016,2.9204,0.0,0.0,0.0,0.0,0.0,0.0,0.0,0.0,0.0,0.0,0.0,0.0,0.0,0.0,0.0,0.0,0.0,0.0,0.0,0.0,0.0,0.0,2.9577,2.9673,2.9892,2.9942,2.95,2.6005,2.3067,2.3374,2.4178,2.4442,0.0,0.0,0.0,0.0,0.0,0.0,3.2218,3.5065,3.7467,3.9393,4.033,4.0571,3.9941,3.8301,3.6875,3.5898,3.3223,3.0957,2.9316,2.7695,0.0,0.0,0.0,0.0,0.0,0.0,0.0,0.0,0.0,0.0,0.0,0.0,0.0,0.0,0.0,0.0,0.0,0.0,0.0,0.0,0.0,0.0,0.0,0.0,0.0,0.0,0.0,0.0,0.0,1.8129,1.9466,1.9951,2.0036,1.945,0.0,0.0,0.0,0.0,0.0,0.0,0.0,0.0,0.0,2.658,2.6743,2.7453,2.8882,2.8984,2.9085,2.918,2.9883,3.049,3.1,3.1833,3.2071,3.1874,3.2624,3.1779,2.9879,2.942,2.83,2.6742,0.0,0.0,0.0,0.0,2.5807,2.622,2.8024,2.8695,2.8771,2.8668,0.0,0.0,0.0,0.0,0.0,0.0,0.0,2.8064,2.8535,2.9873,3.119,3.1508,3.1699,3.1814,3.1814,3.0044,2.789,2.5895,2.6544,2.6563,2.3836,2.4567,0.0,0.0,0.0,3.0987,3.3333,3.6276,3.8331,3.8777,4.001,4.0523,3.9846,3.8709,3.7441,3.6094,3.4492,3.2812,3.1027,2.9307,2.7176,0.0,0.0,0.0,0.0,0.0,0.0,0.0,0.0,0.0,0.0,0.0,0.0,0.0,0.0,0.0,0.0,0.0,0.0,0.0,0.0,0.0,0.0,0.0,0.0,0.0,0.0,0.0,0.0,1.9891,2.0971,2.1568,2.1678,2.092,0.0,0.0,0.0,0.0,0.0,0.0,2.3934,2.5032,2.6747,2.9214,2.9384,3.0075,3.1391,3.0746,3.0404,3.0404,3.0404,3.0404,3.0423,3.1437,3.1325,3.0406,3.1779,3.1713,3.0536,2.9701,2.9338,2.9173,2.7729,2.7559,2.8221,2.8651,2.9215,2.9989,3.1568,3.2109,3.2004,3.1348,3.0705,2.9714,2.7108,0.0,0.0,0.0,0.0,2.972,3.0132,3.1158,3.2147,3.2355,3.2554,3.2699,3.2774,3.28,3.1949,2.9091,2.9544,2.9338,2.5972,2.6967,0.0,2.8813,3.1352,3.3545,3.441,3.7322,3.901,3.8283,3.9572,4.0094,3.9137,3.8568,3.7617,3.6094,3.5176,3.4099,3.2727,3.1046,2.9269,2.7388,0.0,0.0,0.0,0.0,0.0,0.0,0.0,0.0,0.0,0.0,0.0,0.0,0.0,0.0,0.0,0.0,0.0,0.0,0.0,0.0,0.0,0.0,0.0,0.0,0.0,0.0,0.0,0.0,0.0,2.4635,2.4743,0.0,0.0,0.0,0.0,2.4529,2.442,2.5362,2.7698,2.8127,2.9529,3.2197,3.1565,3.1346,3.1686,3.0821,3.0404,3.0404,3.0404,3.0404,3.0456,3.1831,3.2016,3.1257,3.1656,3.1376,3.0646,3.136,3.1487,3.1243,3.1139,3.129,3.1644,3.2426,3.2911,3.3239,3.3852,3.4064,3.4005,3.371,3.2063,3.0026,2.9097,2.8822,0.0,0.0,3.002,3.1342,3.1626,3.1759,3.1862,3.2061,3.2128,3.2203,3.2463,3.253,3.2783,3.3653,3.3898,3.3609,3.2564,0.0,3.2333,3.1621,3.3006,3.4449,3.5327,3.77,3.901,3.8283,3.9082,3.902,3.7461,3.7358,3.6973,3.6055,3.5176,3.4625,3.4477,3.2802,3.0986,2.9117,2.7427,0.0,0.0,0.0,0.0,0.0,0.0,0.0,0.0,0.0,0.0,0.0,0.0,0.0,0.0,0.0,0.0,0.0,0.0,0.0,0.0,0.0,0.0,0.0,0.0,0.0,0.0,0.0,0.0,2.5202,2.5664,0.0,2.3891,2.4888,2.5717,2.5972,2.713,2.8221,2.9069,2.9216,3.0032,3.1684,3.0914,3.0856,3.1692,3.0846,3.0673,3.1231,3.0673,3.0599,3.0992,3.1493,3.113,3.0114,3.0756,3.0474,2.9629,3.0441,3.1028,3.1409,3.1601,3.2362,3.3414,3.3902,3.4151,3.423,3.421,3.42,3.4066,3.3269,3.1751,3.0246,3.0467,3.0173,2.9915,3.0609,3.1457,3.2218,3.2502,3.2966,3.3354,3.3437,3.3617,3.3798,3.3895,3.3913,3.4082,3.4663,3.4462,3.3763,3.2372,3.3487,3.4096,3.2679,3.4372,3.5738,3.5538,3.7238,3.8152,3.7315,3.8142,3.8302,3.7166,3.7212,3.6934,3.6055,3.5703,3.5246,3.4567,3.394,3.2739,3.086,3.0218,2.8084,0.0,0.0,0.0,0.0,0.0,0.0,0.0,0.0,0.0,0.0,0.0,0.0,0.0,0.0,0.0,0.0,0.0,0.0,0.0,0.0,0.0,0.0,0.0,0.0,0.0,2.6097,2.7212,2.6737,2.711,2.6745,2.5055,2.6502,2.7532,2.7532,2.8886,2.9705,2.9705,2.9705,3.0151,3.1124,3.0407,3.0503,3.1545,3.0797,3.0846,3.1698,3.0714,3.0629,3.1291,3.1149,3.0452,2.944,3.0166,2.9902,2.906,2.9879,3.0722,3.1572,3.202,3.3152,3.4524,3.4745,3.4898,3.4907,3.451,3.4062,3.3531,3.2825,3.1696,3.0705,3.125,3.1219,3.1164,3.1866,3.2527,3.3057,3.3223,3.3667,3.4068,3.4068,3.4237,3.4409,3.4508,3.4529,3.4614,3.4917,3.4713,3.4182,3.3167,3.4385,3.5115,3.3949,3.5442,3.65,3.5962,3.7142,3.7683,3.6858,3.7419,3.7523,3.6693,3.6509,3.6309,3.6016,3.5723,3.536,3.4919,3.4082,3.3021,3.1724,3.141,2.9027,2.4506,0.0,0.0,0.0,0.0,0.0,0.0,0.0,0.0,0.0,0.0,0.0,0.0,0.0,0.0,0.0,0.0,0.0,0.0,0.0,0.0,0.0,0.0,0.0,2.7902,2.8524,2.9114,2.9444,2.9211,2.8741,2.7952,2.8802,2.9402,2.9402,2.9579,2.9696,2.9696,2.9687,3.0036,3.0828,3.0295,3.0384,3.126,3.0663,3.0815,3.1667,3.0531,3.0437,3.1268,3.0781,3.0118,2.9409,2.9952,2.9721,2.9097,2.9916,3.0863,3.1933,3.2713,3.386,3.5105,3.5105,3.5273,3.5391,3.4898,3.3791,3.2601,3.2619,3.2082,3.1397,3.1433,3.1971,3.2601,3.2619,3.3201,3.3807,3.3807,3.3807,3.3807,3.3807,3.3807,3.3863,3.4135,3.4195,3.4288,3.4622,3.4879,3.5155,3.5439,3.5493,3.55,3.55,3.6154,0.0,3.6654,3.7411,3.7654,3.6945,3.6913,3.6664,3.5956,3.519,3.5098,3.5957,3.5215,3.5027,3.5678,3.3329,3.1938,3.1781,3.0859,2.8937,2.6024,0.0,0.0,0.0,0.0,0.0,0.0,0.0,0.0,0.0,0.0,0.0,0.0,0.0,0.0,0.0,0.0,0.0,0.0,0.0,0.0,0.0,2.8142,3.0501,2.9844,3.0646,3.1247,3.1147,3.0567,3.0009,2.9591,2.9468,2.9402,2.9402,2.9454,2.9474,2.9474,2.9301,2.9384,2.9801,2.9654,2.9818,3.0354,3.0049,3.0411,3.1391,3.0311,3.0137,3.0781,3.0043,2.9493,2.9119,2.926,2.9537,2.9934,3.0742,3.1815,3.2984,3.32,3.4037,3.5122,3.5312,3.519,3.4955,3.5199,3.4105,3.2693,3.3293,3.2522,3.1513,3.21,3.2417,3.2711,3.3311,3.3623,3.3807,3.3807,3.3807,3.3807,3.3807,3.3807,3.3815,3.3889,3.3915,3.3999,3.4288,3.4394,3.4615,3.5122,3.5369,3.55,3.55,3.5692,3.5827,3.5827,3.6038,3.6132,3.5963,3.6028,3.6008,3.5917,3.5737,3.5742,3.5976,3.5781,3.5698,3.5845,3.5079,3.4294,3.3539,3.1171,2.9558,0.0,0.0,0.0,0.0,0.0,0.0,0.0,0.0,0.0,0.0,0.0,0.0,0.0,0.0,0.0,0.0,0.0,0.0,0.0,0.0,0.0,0.0,3.0872,3.2838,3.233,3.2424,3.2483,3.2329,3.1192,3.036,3.0222,2.9606,2.9225,2.9225,2.9225,2.9225,2.9225,2.9078,2.9232,2.9724,2.9842,3.0009,3.0258,3.0223,3.053,3.1154,3.0093,2.9926,3.0572,2.9652,2.9156,2.9023,2.9354,2.9971,3.076,3.1568,3.2622,3.374,0.0,0.0,0.0,0.0,3.5209,3.5075,3.5396,3.4457,3.3225,3.4045,3.322,3.2045,3.2871,3.3096,3.3201,3.3678,3.3807,3.3807,3.3807,3.3807,3.3807,3.3807,3.3807,3.3807,3.3807,3.3807,3.3855,3.3993,3.4123,0.0,3.4851,3.5147,3.5369,3.5486,3.55,3.55,3.55,3.55,3.5528,3.5595,3.5663,3.5758,3.5898,3.5639,0.0,0.0,0.0,3.5248,3.4785,3.4614,0.0,0.0,0.0,3.0438,3.0465,2.9667,0.0,0.0,2.8529,2.8494,0.0,0.0,0.0,0.0,0.0,0.0,0.0,0.0,0.0,0.0,0.0,0.0,0.0,0.0,0.0,0.0,3.3463,3.4684,3.4653,3.375,3.3092,3.3092,3.1456,3.0338,3.0338,2.9537,2.9005,2.9005,2.9005,2.9005,2.9005,2.9005,0.0,0.0,0.0,3.0432,3.0464,3.0601,3.0734,3.0808,2.982,2.9725,3.0379,2.9418,2.9005,2.906,2.9941,3.0797,3.1599,3.2491,3.3505,3.4503,3.4636,3.5047,3.5503,3.5238,3.5298,3.551,3.5659,0.0,0.0,3.4857,3.405,3.2858,3.3587,3.3807,3.3807,3.3807,3.3807,3.3807,3.3807,3.3807,3.3807,3.3807,3.3807,3.3807,3.3807,3.3807,3.3807,3.3807,3.3999,3.4265,3.4601,3.4908,3.5198,3.5453,3.55,3.55,3.55,3.55,3.5528,3.5595,3.5663,0.0,3.5898,3.5248,3.5176,3.5957,3.5273,3.4419,3.3511,3.3305,3.2635,3.1401,3.1577,3.1685,3.1734,3.2642,3.2945,3.2604,2.9886,2.9581,0.0,0.0,0.0,0.0,0.0,0.0,0.0,0.0,0.0,0.0,0.0,0.0,0.0,0.0,0.0,3.1893,3.3562,3.4612,3.4334,3.3914,3.3655,3.3655,3.2187,3.1176,3.1176,2.9861,2.9005,2.9005,2.9005,2.9005,2.9005,2.9005,2.9078,2.9225,2.9283,2.9411,2.9626,2.9458,2.949,2.9698,2.9277,0.0,2.931,2.9095,2.9005,2.9078,3.054,3.1623,3.2472,3.394,3.519,3.6118,3.5096,3.517,3.5796,3.5522,3.5462,3.5653,3.6736,3.5657,3.4045,3.555,3.4926,3.3605,3.3752,3.3807,0.0,3.3807,3.3807,3.3807,3.3807,3.3807,3.3807,3.3807,3.3807,3.3807,3.3807,3.3807,3.3807,3.3807,3.3842,3.3961,3.4253,3.4736,3.5198,3.5453,3.55,3.55,3.55,3.55,3.5528,3.5595,3.5663,3.5758,3.5898,3.5815,3.582,3.5996,3.5791,3.5517,3.5155,3.5097,3.4822,3.4302,3.4122,3.3911,3.3658,3.3653,3.3437,3.31,3.3437,3.397,0.0,0.0,0.0,0.0,0.0,0.0,0.0,0.0,0.0,0.0,0.0,2.6231,2.8602,0.0,3.1855,3.3223,3.4007,3.439,3.4211,3.3974,3.3807,3.3807,3.2375,3.1397,3.1397,2.9953,2.9005,2.9005,2.9005,2.9005,2.9005,2.9005,2.9189,2.9592,2.9989,3.0262,3.0394,3.0262,3.006,2.9784,2.9258,2.9005,2.9005,2.9427,2.9824,3.0283,3.1898,3.3311,3.4559,3.5752,3.6348,3.6421,3.547,3.5584,3.6237,3.5701,3.567,3.5927,3.6158,3.544,3.4527,3.5371,3.4816,3.3807,3.3807,3.3807,3.3807,3.3807,3.3807,3.3807,3.3807,3.3807,3.3807,3.3807,3.3807,3.3807,3.3807,3.3807,3.3807,3.3807,3.3807,3.3889,3.414,3.4584,3.499,3.5266,3.5405,3.55,3.55,3.55,3.5515,3.5546,3.5648,3.5723,3.5799,3.5926,3.5995,3.5948,3.5855,3.5749,3.5616,3.5579,3.5331,3.4917,3.4764,3.4464,3.4012,3.3868,3.3985,3.4375,3.537,3.5818,0.0,0.0,0.0,0.0,0.0,0.0,0.0,2.2922,2.3538,2.6804,2.7885,2.9089,3.1866,3.2542,3.311,3.4377,3.4379,3.4176,3.4135,3.3954,3.3733,3.3587,3.2284,3.1342,3.1182,2.9861,2.9005,2.9005,2.8929,2.8917,2.8994,2.9075,2.946,3.0191,3.098,3.1359,3.1283,3.1283,3.0916,3.017,2.9381,2.915,2.9447,3.0057,3.0844,3.1832,3.3542,3.522,3.6817,3.7474,3.7286,3.6559,3.5983,3.6091,3.6464,3.566,3.5648,3.5918,3.521,3.4834,3.4672,3.4818,3.438,3.3807,3.3807,3.3807,3.3807,3.3807,3.3807,3.3807,3.3807,3.3807,3.3807,3.3807,3.3807,3.3807,3.3807,3.3807,3.3807,3.3807,3.3807,3.3863,3.4093,3.4379,3.4724,3.5043,3.5339,3.55,3.55,3.55,3.55,3.55,3.5611,3.572,3.575,3.5905,3.5953,3.5873,3.5761,3.5652,3.5574,3.5541,3.5281,3.4803,3.4743,3.4472,3.3979,3.4081,3.4636,3.561,3.6577,3.6851,2.1911,2.2246,2.3078,2.4766,2.4985,2.5972,0.0,3.0308,2.9898,3.2551,3.3465,3.3918,3.4305,3.4401,3.4377,3.4274,3.4211,3.4111,3.3876,3.3815,3.3532,3.2821,3.1935,3.1109,3.0393,2.9537,2.9005,2.9005,2.867,2.8615,2.8982,2.9337,2.973,3.0179,3.098,3.1232,3.0866,3.087,3.0614,3.0102,2.9352,2.9692,3.094,3.0851,3.158,3.3033,3.51,3.6945,3.845,3.8524,3.8232,3.7654,3.6933,3.6426,3.5971,3.5169,3.4921,3.4958,3.492,3.4241,3.3511,3.4235,3.4164,3.3807,3.3807,3.3807,3.3807,3.3807,3.3807,3.3807,3.3807,3.3807,3.3807,3.3807,3.3807,3.3807,3.3807,3.3807,3.3807,3.3807,3.3807,3.3802,3.3842,3.4068,3.4438,3.5016,3.5339,3.55,3.55,3.55,3.55,3.55,3.5611,3.5763,3.5953,3.5996,3.5928,3.5729,3.571,3.5633,3.5528,3.5494,3.5361,3.507,3.4813,3.4663,3.4601,3.5082,3.549,3.5891,3.7464,3.8196,2.6178,2.6455,2.6504,2.8222,2.8812,2.9537,3.1752,3.1672,3.1749,3.3958,3.4408,3.4475,3.4663,3.454,3.4368,3.4211,3.408,3.3941,3.3815,3.3592,3.2993,3.1756,3.1074,3.0564,3.0228,2.9464,2.8887,2.867,2.8502,2.8381,2.8347,2.8917,2.9529,3.0186,3.0941,3.15,3.1782,3.1321,3.0995,3.079,2.9998,3.0194,3.1203,3.1602,3.2854,3.4814,3.6214,3.7197,3.7826,3.7826,3.7685,3.7434,3.6819,3.6167,3.5472,3.4518,3.4163,3.411,3.3667,3.3182,3.2864,3.3186,3.336,3.3447,3.3447,3.3606,3.3807,3.3807,3.3807,3.3917,3.438,3.4491,3.4619,3.5128,3.4871,3.4491,3.4491,3.4137,3.3807,3.3807,3.4192,3.4344,3.388,3.4444,3.4936,3.4879,3.5096,3.532,3.5486,3.55,3.5522,3.5606,3.5675,3.5788,3.5976,3.5996,3.5907,3.5717,3.5707,3.5648,3.5514,3.55,3.5376,3.5105,3.499,3.486,3.4694,3.5391,3.6145,3.6973,3.8147,3.9061,2.8366,2.9161,2.9429,3.0698,3.1728,3.2472,3.2572,3.2587,3.2991,3.4418,3.4508,3.4379,3.454,3.4368,3.4183,3.4099,3.3941,3.3762,3.3652,3.3375,3.2592,3.0923,3.0398,3.0018,2.9595,2.9046,2.8608,2.8402,2.8219,2.8029,2.7911,2.8699,2.9493,3.0183,3.1122,3.1851,3.2298,3.1736,3.1388,3.1253,3.0485,3.0714,3.1847,3.2984,3.4515,3.6286,3.6925,3.7209,3.7209,3.7209,3.7097,3.6906,3.6316,3.5676,3.4956,3.3992,3.3474,3.3195,3.2407,3.2371,3.265,3.265,3.2935,3.3337,3.3445,3.3557,3.3666,3.3762,3.3972,3.4284,3.4857,3.5188,3.5518,3.6156,3.5826,3.5298,3.5059,3.4729,3.4412,3.4174,3.4601,3.4821,3.4215,3.4626,3.4957,3.4737,3.487,3.5113,3.5453,3.55,3.5558,3.5686,3.5707,3.5788,3.5976,3.5996,3.5929,3.5766,3.572,3.5642,3.5528,3.5508,3.5417,3.5215,3.513,3.5041,3.4949,3.5912,3.6903,3.7892,3.8936,3.9893,2.718,2.9103,3.1291,3.1675,3.3206,3.4608,3.4608,3.4608,3.4627,3.4694,3.4684,3.4582,3.4258,3.42,3.4111,3.3855,3.382,3.3666,3.3273,3.3214,3.2469,3.0455,3.0198,2.9597,2.8117,2.7957,2.8061,2.8381,2.7733,2.75,2.7883,2.8963,2.9768,3.0183,3.1669,3.2247,3.1825,3.179,3.1587,3.1179,3.0451,3.1247,3.3401,3.5394,3.6599,3.7156,3.7192,3.7209,3.7209,3.7209,3.6884,3.6347,3.5622,3.5002,3.4447,3.3685,3.2961,3.2252,3.1503,3.2021,3.2987,3.2987,3.3264,3.3666,3.4132,3.3782,3.3302,3.3694,3.4362,3.4968,3.5004,3.5642,3.6266,3.6285,3.6266,3.6028,3.5188,3.5628,3.5973,3.5133,3.4986,3.5004,3.4968,3.4357,3.4036,3.4612,3.4704,3.4908,3.5432,3.55,3.5558,3.5686,3.5707,3.5788,3.5976,3.5996,3.5973,3.5903,3.5766,3.5679,3.5611,3.5534,3.55,3.5493,3.5231,3.5265,3.557,3.6967,3.7858,3.8326,3.9972,4.077,2.9972,3.1585,3.285,3.3771,3.448,3.4963,3.4963,3.4665,3.4292,3.4036,3.3843,3.3584,3.315,3.3332,3.351,3.3419,3.3638,3.3666,3.3258,3.2937,3.2193,3.071,2.9851,2.9109,2.831,2.8038,2.7855,2.7675,2.7439,2.7466,2.7822,2.8699,2.9486,3.0107,3.1104,3.1562,3.1391,3.1391,3.1587,3.1938,3.2662,3.3406,3.4167,3.5346,3.5968,3.6143,3.6143,3.6143,3.6143,3.6143,3.6032,3.5837,3.5603,3.5086,3.4455,3.4218,3.366,3.2983,3.2747,3.2292,3.1974,3.296,3.2882,3.2528,3.3231,3.3103,3.295,3.3906,3.4388,3.492,3.63,3.6886,3.7235,3.7771,3.7477,3.7015,3.6707,3.6468,3.6211,3.5917,3.5862,3.5665,3.5096,3.4784,3.462,3.4687,3.4999,3.5297,3.5486,3.55,3.5558,3.5686,3.5707,3.5788,3.5976,3.5996,3.5973,3.5905,3.5769,3.5659,3.5596,3.5534,3.5515,3.5574,3.5482,3.58,3.6538,3.7588,3.8486,3.9255,4.0305,4.0854,3.1869,3.3093,3.3747,3.4831,3.5105,3.5043,3.4823,3.4375,3.3894,3.3534,3.3186,3.2874,3.255,3.2872,3.3289,3.3578,3.3974,3.4031,3.3458,3.2891,3.1962,3.0439,2.928,2.8423,2.8053,2.7674,2.7424,2.7319,2.7162,2.7296,2.7774,2.8552,2.933,3.0072,3.0818,3.119,3.119,3.1464,3.1952,3.2716,3.3914,3.4489,3.4523,3.5245,3.56,3.56,3.56,3.56,3.56,3.56,3.56,3.56,3.56,3.5295,3.4895,3.4895,3.4438,3.3761,3.3491,3.2949,3.2493,3.3186,3.2937,3.2445,3.2877,3.2841,3.2878,3.3845,3.4645,3.5521,3.6859,3.7574,3.8046,3.8579,3.8303,3.786,3.7566,3.7327,3.6982,3.6413,3.6303,3.6028,3.5151,3.4932,3.4875,3.484,3.5215,3.55,3.55,3.5515,3.5582,3.5689,3.5732,3.583,3.5996,3.5996,3.5975,3.5944,3.5823,3.5743,3.5702,3.5621,3.559,3.5639,3.5639,3.611,3.708,3.7915,3.8829,3.9791,4.058,4.0992,3.2687,3.3602,3.4085,3.4903,3.5069,3.4888,3.4297,3.3832,3.3456,3.3109,3.2707,3.238,3.2294,3.2704,3.3334,3.4125,3.4623,3.4623,3.3783,3.3042,3.1816,2.9798,2.8545,2.7692,2.7362,2.694,2.6857,2.7241,2.6923,2.7046,2.7824,2.8586,2.9365,3.0123,3.0835,3.119,3.119,3.1972,3.2733,3.3474,3.4201,3.4556,3.4573,3.5278,3.56,3.56,3.56,3.56,3.56,3.56,3.56,3.56,3.56,3.56,3.56,3.56,3.5165,3.4455,3.3761,3.3931,3.4336,3.3728,3.3491,3.3405,3.3158,3.3068,3.3163,3.3565,3.5115,3.6672,3.6741,3.7719,3.8707,3.8707,3.8707,3.8487,3.7731,3.8157,3.8248,3.667,3.6285,3.5954,3.5105,3.4825,3.4784,3.507,3.5339,3.55,3.55,3.5595,3.5679,3.5696,3.5851,3.5977,3.5996,3.6035,3.6074,3.6074,3.604,3.6019,3.596,3.5844,3.5765,3.5772,3.5772,3.6298,3.7333,3.8094,3.8992,3.998,4.0801,4.1191,3.3238,3.4351,3.5081,3.5089,3.4699,3.4188,3.382,3.3245,3.24,3.1081,3.0994,3.0768,2.9536,3.0403,3.1506,3.2058,3.3018,3.3581,3.3366,3.2652,3.1713,3.0525,2.9126,2.8099,2.7709,2.708,2.6741,2.6841,2.6758,2.7283,2.8619,2.8891,2.9602,3.0869,3.1106,3.119,3.119,3.2476,3.3491,3.4218,3.4979,3.5312,3.5329,3.5515,3.56,3.56,3.56,3.56,3.56,3.56,3.56,3.56,3.56,3.56,3.56,3.56,3.5481,3.5278,3.5092,3.4433,3.3829,3.4737,3.4675,3.4206,3.4134,3.4125,3.4212,3.4742,3.5502,3.6417,3.7357,3.8154,3.8707,3.8707,3.8707,3.8652,3.8432,3.856,3.8395,3.7401,3.6193,3.5124,3.45,3.4562,3.4784,3.507,3.5339,3.55,3.55,3.6128,3.6348,3.5755,3.6399,3.6622,3.6055,3.6601,3.6973,3.6973,3.7466,3.7485,3.6898,3.6746,3.6715,3.682,3.6822,3.7608,3.9216,3.9412,3.998,4.0879,4.1094,4.1191,3.4159,3.4929,3.5266,3.499,3.4373,3.3603,3.2774,3.1973,3.0975,2.948,2.9397,2.921,2.7961,2.9537,3.1105,3.1397,3.2889,3.3935,3.3753,3.2886,3.1929,3.1074,2.9281,2.8117,2.8066,2.725,2.6691,2.6691,2.6691,2.7385,2.8925,2.8993,2.9687,3.114,3.119,3.1512,3.2154,3.3,3.3931,3.4996,3.5397,3.56,3.56,3.56,3.56,3.56,3.56,3.56,3.56,3.56,3.56,3.56,3.56,3.56,3.56,3.56,3.56,3.565,3.6011,3.5571,3.4962,3.5447,3.5312,3.4928,3.459,3.4726,3.4977,3.4962,3.5538,3.6341,3.7068,3.7649,3.8083,3.83,3.835,3.8415,3.8643,3.8707,3.8469,3.7658,3.6156,3.4984,3.4951,3.4816,3.4822,3.5215,3.5705,3.6038,3.6038,3.6547,3.6731,3.6267,3.6785,3.6985,3.6555,3.6991,3.7461,3.7851,3.8257,3.8291,3.7821,3.7746,3.7744,3.7802,3.7752,3.8437,3.9902,3.984,4.0289,4.1191,4.1191,4.1191,3.509,3.5239,3.4972,3.4645,3.3969,3.2993,3.1471,3.0439,2.9393,2.8048,2.7868,2.7698,2.6896,2.8972,3.0904,3.1122,3.3013,3.436,3.4163,3.3148,3.2126,3.1323,2.9334,2.81,2.8301,2.7436,2.681,2.6725,2.6793,2.7469,2.8925,2.8993,2.9687,3.114,3.119,3.1901,3.3389,3.3406,3.4129,3.56,3.56,3.56,3.56,3.56,3.5538,3.547,3.556,3.5538,3.547,3.556,3.56,3.56,3.56,3.56,3.56,3.56,3.56,3.5701,3.64,3.6711,3.6711,3.609,3.5971,3.591,3.5047,3.5318,3.5718,3.4878,3.5493,3.6395,3.6395,3.6873,3.7445,3.7864,3.8076,3.8303,3.8663,3.8624,3.8322,3.7639,3.6156,3.5185,3.5802,3.5231,3.4927,3.5559,3.625,3.6769,3.7019,3.7159,3.7193,3.7077,3.7286,3.7412,3.7367,3.7511,3.789,3.8555,3.8828,3.8828,3.8573,3.8671,3.8749,3.8728,3.8622,3.9032,4.0017,3.9918,4.0312,4.1171,4.1191,4.1191,3.503,3.4972,3.4605,3.3951,3.3027,3.1912,3.0541,2.9412,2.8162,2.633,2.6317,2.6266,2.5091,2.6501,2.8171,2.9195,3.0542,3.177,3.269,3.2072,3.1345,3.0854,2.9868,2.887,2.798,2.7741,2.735,2.6742,2.7249,2.8027,2.8942,2.8993,2.9687,3.114,3.119,3.1901,3.3389,3.3406,3.4129,3.56,3.56,3.56,3.56,3.56,3.5316,3.4807,3.5362,3.5293,3.4823,3.5362,3.56,3.56,3.56,3.56,3.56,3.56,3.56,3.5616,3.5752,3.6231,3.688,3.7347,3.7922,3.8159,3.6812,3.6907,3.7229,3.5785,3.5904,3.6395,3.6395,3.7256,3.8127,3.8204,3.9045,3.9644,3.9065,3.8293,3.7676,3.7529,3.6156,3.5185,3.5802,3.5231,3.5097,3.6308,3.6615,3.7219,3.8661,3.8923,3.8695,3.7962,3.8663,3.8897,3.8257,3.8853,3.9087,3.8633,3.9941,4.0056,3.8509,3.9132,3.9484,3.9419,3.9402,3.9815,4.0633,4.0723,4.0863,4.1048,4.115,4.1191,3.486,3.4515,3.4042,3.3697,3.2503,3.0987,2.9391,2.8172,2.6857,2.4903,2.4948,2.5015,2.4022,2.5587,2.7216,2.7721,2.9401,3.0959,3.1899,3.1759,3.1498,3.1306,3.0418,2.96,2.9042,2.828,2.7824,2.7893,2.7841,2.8314,2.9499,3.0296,3.0871,3.119,3.119,3.1901,3.3389,3.3406,3.4129,3.56,3.56,3.56,3.56,3.56,3.5407,3.5138,3.547,3.5424,3.5161,3.547,3.56,3.56,3.56,3.56,3.56,3.56,3.5853,3.6282,3.6671,3.7297,3.8082,3.8802,3.9005,3.8853,3.8166,3.7922,3.7753,3.7026,3.6724,3.6708,3.7079,3.7622,3.8166,3.8391,3.9046,3.9356,3.858,3.8263,3.812,3.812,3.6798,3.5863,3.6419,3.5853,3.5638,3.6565,3.7469,3.8354,3.9188,3.9692,3.965,3.8807,3.9199,3.934,3.8957,3.9374,3.9689,3.9739,4.0524,4.0589,3.9691,4.0042,4.026,4.0229,4.0189,4.0383,4.0797,4.0864,4.0925,4.0996,4.1148,4.1191,3.4582,3.4061,3.3483,3.34,3.2018,3.0221,2.8365,2.7094,2.5799,2.3973,2.3943,2.4051,2.3483,2.5047,2.651,2.6697,2.852,3.0242,3.1186,3.1409,3.1531,3.166,3.0897,3.0277,3.0125,2.8855,2.8194,2.856,2.8179,2.8567,3.0021,3.1343,3.1802,3.1207,3.1343,3.207,3.3389,3.3558,3.4303,3.56,3.56,3.56,3.56,3.5447,3.5385,3.5385,3.5385,3.5385,3.5385,3.5385,3.5385,3.5385,3.5385,3.5385,3.5402,3.5723,3.6265,3.6914,3.7652,3.8379,3.9089,3.969,3.9588,3.9191,3.9039,3.8599,3.8108,3.7939,3.7483,3.7185,3.7753,3.8024,3.8286,3.8939,3.9004,3.8813,3.8455,3.8452,3.8507,3.8453,3.7276,3.6445,3.6916,3.634,3.6032,3.6682,3.8166,3.9196,3.9204,3.9973,4.0265,3.9631,3.9611,3.9643,3.9683,3.9772,4.0049,4.0501,4.07,4.0711,4.0507,4.0682,4.077,4.0747,4.0676,4.067,4.0747,4.0751,4.0839,4.0959,4.1083,4.1171,3.4253,3.3745,3.3133,3.2711,3.1342,2.9617,2.7846,2.6529,2.5295,2.3901,2.3638,2.3666,2.3584,2.4158,2.5056,2.6326,2.7137,2.8261,3.0146,3.0423,3.0625,3.1193,3.1162,3.0835,3.0156,2.9364,2.8439,2.7361,2.7944,2.8858,3.0034,3.0869,3.1258,3.119,3.1853,3.2598,3.3406,3.4066,3.481,3.56,3.56,3.56,3.5577,3.4965,3.4688,3.4688,3.4688,3.4688,3.4688,3.4688,3.4688,3.4688,3.4688,3.4688,3.4842,3.6198,3.6745,3.6914,3.7652,3.8379,3.9005,3.9073,3.952,3.9876,3.9191,3.8937,3.8751,3.8091,3.7855,3.7821,3.7889,3.8396,3.9193,4.0394,3.9631,3.8881,3.9784,3.894,3.7898,3.7656,3.6905,3.6394,3.6701,3.6068,3.5876,3.6906,3.808,3.887,3.8935,3.9854,4.0477,4.04,4.0396,4.0458,4.0569,4.0593,4.0343,3.9754,4.0408,4.0421,3.9561,4.0289,4.0655,4.0537,4.0515,4.0515,4.053,4.0649,4.0757,4.0816,4.0957,4.1081,3.3588,3.3204,3.2582,3.174,3.058,2.914,2.7284,2.622,2.5226,2.3879,2.3595,2.3595,2.3595,2.3773,2.4362,2.575,2.645,2.7381,2.8989,2.9848,3.0393,3.0638,3.0975,3.1072,3.0784,2.9685,2.8639,2.7759,2.8509,2.9562,3.0821,3.083,3.0957,3.1312,3.1595,3.2095,3.2845,3.3948,3.4878,3.56,3.56,3.56,3.5577,3.4918,3.46,3.46,3.46,3.4382,3.4037,3.4431,3.4358,3.4012,3.4012,3.4235,3.4723,3.5765,3.6702,3.7567,3.8311,3.9039,3.9673,3.9673,3.9859,4.0045,3.9757,3.9368,3.9022,3.9174,3.8903,3.8667,3.9106,3.9453,3.9671,3.9754,3.9152,3.8599,3.8591,3.8219,3.7999,3.8399,3.7692,3.7264,3.801,3.708,3.6409,3.702,3.7934,3.8576,3.8597,3.9576,4.025,4.025,4.0397,4.0527,4.0581,4.0588,4.0442,4.0159,4.0436,4.0449,4.0079,4.0388,4.0552,4.0496,4.0496,4.0496,4.0496,4.0623,4.0713,4.0732,4.0832,4.0911,3.2896,3.2648,3.2074,3.113,3.014,2.8905,2.6945,2.6016,2.5226,2.3879,2.3595,2.3595,2.3595,2.3595,2.4044,2.539,2.5963,2.6749,2.8301,2.9384,3.0102,3.0272,3.0838,3.1106,3.0903,2.9439,2.8307,2.7858,2.8283,2.9316,3.1063,3.0378,3.0495,3.1654,3.1696,3.1965,3.2488,3.385,3.4779,3.5316,3.5515,3.5492,3.5276,3.4616,3.4309,3.4284,3.4087,3.3862,3.3608,3.3887,3.3735,3.3313,3.3521,3.3889,3.4435,3.5844,3.6994,3.8002,3.9006,3.9673,4.0096,4.0096,4.0096,4.0096,4.0096,3.974,3.9411,3.996,3.974,3.9453,3.9977,4.0096,3.9977,3.9453,3.902,3.8608,3.8234,3.8119,3.8239,3.8653,3.8111,3.7732,3.8192,3.7325,3.657,3.6494,3.7493,3.8164,3.792,3.9102,3.9943,3.9943,4.012,4.0319,4.0489,4.0496,4.0496,4.0496,4.0496,4.0496,4.0496,4.0496,4.0496,4.0496,4.0496,4.0496,4.0496,4.0589,4.0655,4.0703,4.0747,4.0788,3.217,3.2161,3.1663,3.1034,3.014,2.8905,2.6945,2.6016,2.5226,2.3879,2.3595,2.3595,2.3595,2.3595,2.4044,2.539,2.5615,2.6285,2.823,2.9019,2.9629,3.023,3.0838,3.0903,3.0192,2.8423,2.7294,2.7206,2.6842,2.7798,3.0478,2.9336,2.9769,3.2298,3.2442,3.2492,3.2508,3.3901,3.46,3.4624,3.5276,3.5253,3.4576,3.3912,3.3608,3.3556,3.2922,3.2986,3.3547,3.2895,3.2614,3.2668,3.3339,3.3551,3.3861,3.6788,3.7853,3.8031,3.9556,4.0096,4.0096,4.0096,4.0096,4.0096,4.0096,4.0096,4.0096,4.0096,4.0096,4.0096,4.0096,4.0096,4.0096,4.0096,3.9537,3.9108,3.9589,3.9104,3.8426,3.79,3.7789,3.749,3.6505,3.6317,3.6009,3.5147,3.6673,3.7634,3.6814,3.8406,3.9611,3.9611,3.9611,3.9853,4.0438,4.0496,4.0496,4.0496,4.0496,4.0496,4.0496,4.0496,4.0496,4.0496,4.0496,4.0496,4.0496,4.0496,4.0574,4.0697,4.0697,4.0742,3.0057,3.0065,2.9635,2.8241,2.7644,2.7032,2.5544,2.5063,2.4664,2.3789,2.3595,2.3595,2.3595,2.3595,2.4193,2.5989,2.5899,2.63,2.8288,2.9053,2.9473,2.9651,3.0144,3.0159,2.9414,2.8887,2.8384,2.785,2.7861,2.8867,3.11,2.9996,3.0053,3.1798,3.1856,3.1878,3.1878,3.3246,3.3912,3.3912,3.4137,3.4112,3.3887,3.3209,3.2922,3.2879,3.2695,3.2422,3.2173,3.2477,3.2299,3.1881,3.2076,3.3056,3.4478,3.5944,3.7373,3.8757,3.9767,4.0096,4.0096,4.0096,4.0096,4.0096,4.0096,4.0096,4.0096,4.0096,4.0096,4.0096,4.0096,4.0096,4.0096,4.0096,3.9554,3.9037,3.9197,3.8883,3.8716,3.9077,3.8427,3.8039,3.8826,3.7484,3.6376,3.667,3.6767,3.6925,3.722,3.7942,3.8646,3.9195,3.945,3.9679,3.9863,3.9884,3.9984,4.0213,4.0223,4.0313,4.0489,4.0496,4.0496,4.0496,4.0496,4.0496,4.0496,4.0496,4.0527,4.0566,4.0566,4.0582,2.8567,2.8641,2.8192,2.7133,2.6687,2.6154,2.4897,2.4605,2.4343,2.3445,2.3268,2.3268,2.3268,2.3268,2.3844,2.5553,2.5719,2.6138,2.7634,2.8747,2.9563,3.0021,2.9852,2.9499,2.9044,2.8857,2.8593,2.8129,2.8357,2.927,3.1033,3.0158,3.0187,3.1518,3.1576,3.1576,3.1576,3.2676,3.3209,3.3251,3.3495,3.3469,3.3224,3.2788,3.2465,3.216,3.216,3.1923,0.0,3.2007,3.1894,3.1554,3.2053,3.3264,3.4852,3.6109,3.7587,3.9059,3.9826,4.0096,4.0096,4.0096,4.0096,4.0096,4.0096,4.0096,4.0096,4.0096,4.0096,4.0096,4.0096,4.0096,4.0096,4.0096,3.9757,3.9436,3.9436,3.9262,3.9267,3.9692,3.9045,3.858,3.9175,3.7881,3.6831,3.7015,3.6615,3.6578,3.7401,3.7654,3.8053,3.8855,3.9136,3.9268,3.9268,3.9457,3.9679,3.9901,3.9912,4.0033,4.0339,4.0347,4.0389,4.0496,4.0496,4.0496,4.0496,4.0496,4.0496,4.0496,4.0496,4.0496,0.0,2.7673,2.7179,2.7176,2.6715,2.5964,2.474,2.4455,0.0,2.2947,2.2704,2.2719,2.2762,2.2762,2.3204,2.4529,2.5217,2.5878,2.663,2.8311,2.9924,3.1122,2.9941,2.9044,2.9145,2.8562,2.8168,2.8178,2.8434,2.9124,3.0428,2.9925,3.0178,3.1466,3.1511,3.1511,3.1511,3.216,3.252,3.2547,3.3156,3.313,3.252,3.252,3.2148,3.1511,3.1511,3.1511,3.1511,3.1511,3.1511,3.1642,3.3005,3.4025,3.5011,3.707,3.8315,3.9086,3.9833,4.0096,4.0096,4.0096,4.0096,4.0096,4.0096,4.0096,4.0096,4.0096,4.0096,4.0096,4.0096,4.0096,4.0096,4.0096,4.0096,4.0096,4.0096,4.0096,4.0025,3.9784,3.9503,3.902,3.808,3.7683,3.7272,3.656,3.6413,3.6703,3.7566,3.7566,3.7841,3.8689,3.8726,3.8707,3.8707,3.9216,3.9541,3.9564,3.9564,3.9731,4.0091,4.0101,4.0223,4.0489,4.0496,4.0496,4.0496,4.0496,4.0496,4.0496,4.0496,4.0496,2.5181,0.0,2.5031,2.4073,2.406,2.4064,0.0,2.3135,2.3065,2.2753,2.2702,2.2835,2.331,2.3399,2.3993,2.583,2.5839,2.6169,2.7823,2.9227,3.057,3.1891,3.0245,2.945,3.0565,2.954,2.8824,2.8929,2.9086,2.9564,3.0453,2.9925,3.0178,3.1466,3.1511,3.1511,3.1511,3.1668,3.1768,3.1768,3.1923,3.1923,3.1768,3.1768,3.1668,3.1511,3.1511,3.1511,3.1511,3.1511,3.1511,3.1642,3.3106,3.4415,3.5746,3.737,3.8742,3.985,4.0045,4.0096,4.0096,4.0096,4.0096,4.0096,4.0096,4.0096,4.0096,4.0096,4.0096,4.0096,4.0096,4.0096,4.0096,4.0096,4.0096,4.0096,4.0096,4.0096,4.007,4.0016,3.9185,3.8598,3.8949,3.8194,3.7639,3.8065,3.7606,3.7731,3.9163,3.8264,3.8043,3.946,3.9074,3.8707,3.8707,3.8818,3.9008,3.9199,3.9212,3.9474,4.0081,4.0101,4.0223,4.0489,4.0496,4.0496,4.0496,4.0496,4.0496,4.0496,4.0496,4.0496,2.4036,2.4365,2.4522,2.4114,2.4037,2.3985,2.3658,2.3125,2.2605,2.2302,2.2239,2.2342,2.2665,2.3231,2.4087,2.5463,2.6127,2.7257,2.9519,3.0385,3.1053,3.1725,3.0753,3.0059,3.0194,2.977,2.9538,2.9602,2.9464,2.983,3.0851,3.0094,3.0178,3.1466,3.1511,3.1511,3.1511,3.1511,3.1511,3.1511,3.1511,3.1511,3.1511,3.1511,3.1511,3.1511,3.1511,3.1511,3.1511,3.1511,3.169,3.2077,3.3164,3.4704,3.6376,3.7491,3.8841,4.0096,4.0096,4.0096,4.0096,4.0096,4.0096,4.0096,4.0096,4.0096,4.0096,4.0096,3.9859,3.9605,3.9605,3.9605,3.9605,3.9605,3.9859,4.0096,4.0096,4.0096,4.0096,4.0096,3.9439,3.9031,3.9472,3.8625,3.8001,3.8452,3.782,3.7765,3.9011,3.8602,3.8518,3.939,3.9351,3.9093,3.8726,3.8707,3.8762,3.8909,3.8923,3.9117,3.9622,3.9634,3.9842,4.0313,4.0441,4.0496,4.0496,4.0496,4.0496,4.0496,4.0372,4.0321,2.367,2.4156,2.4686,2.5065,2.4865,2.4552,2.4357,2.347,2.2542,2.1967,2.1845,2.1903,2.2105,2.3138,2.4217,2.4935,2.6579,2.8583,3.0915,3.1307,3.1341,3.1219,3.1106,3.0632,2.9602,2.9871,3.0116,3.0163,2.9696,2.9899,3.1074,3.0158,3.0178,3.1466,3.1511,3.1511,3.1511,3.1511,3.1511,3.1511,3.1511,3.1511,3.1511,3.1511,3.1511,3.1511,3.1511,3.157,3.1645,3.1645,3.2049,3.2721,3.3517,3.4949,3.6729,3.762,3.8707,3.9756,3.9876,3.9995,4.0096,4.0096,4.0096,4.0096,4.0096,4.0096,4.0096,4.0096,3.9656,3.9157,3.9157,3.9157,3.9157,3.9157,3.9656,4.0096,4.0096,4.0096,4.0096,4.0096,3.9874,3.9703,3.9703,3.9003,3.8477,3.8477,3.7874,3.7733,3.8547,3.8954,3.9229,3.9337,3.9697,3.9625,3.8946,3.8781,3.8707,3.8707,3.8707,3.8815,3.9085,3.9147,3.9481,4.0091,4.033,4.0465,4.0496,4.0496,4.0481,4.0422,4.0204,4.0081,2.3992,2.453,2.4372,2.3387,2.3871,2.4305,2.3233,2.2848,2.2667,2.2563,2.2563,2.2884,2.3948,2.4743,2.5648,2.6871,2.8147,2.9358,3.0342,3.0907,3.123,3.1207,3.0649,3.0666,3.1701,3.0768,3.0192,3.0415,2.9791,2.9541,2.9875,2.9699,3.0178,3.1466,3.1511,3.1511,3.1511,3.1511,3.1511,3.1511,3.1511,3.1511,3.1511,3.1511,3.1511,3.1511,3.1511,3.1824,3.2333,3.2333,3.2751,3.3471,3.4758,3.5485,3.6009,3.7982,3.8486,3.8234,3.887,3.9516,4.0096,4.0096,4.0096,4.0096,4.0096,4.0096,4.0096,4.0096,4.0028,3.9943,3.9943,3.9943,3.9943,3.9943,4.0028,4.0096,4.0096,4.0096,4.0096,4.0096,3.9874,3.9703,3.9703,3.9441,3.9234,3.9234,3.9128,3.934,4.0138,4.0098,4.0293,4.096,4.0335,3.9845,3.9717,3.9093,3.8707,3.8707,3.8707,3.8815,3.9085,3.9364,3.972,4.0091,4.0139,4.0267,4.0496,4.0496,4.0381,4.0158,4.012,3.9943,2.3236,2.3819,2.4022,2.3776,2.472,2.5529,2.4944,2.4253,2.3729,2.3729,2.3729,2.3924,2.4485,2.5688,2.7127,2.8756,2.9489,3.0208,3.1245,3.1288,3.119,3.119,3.0903,3.0954,3.165,3.0798,3.041,3.0957,3.0027,2.9635,3.006,3.0096,3.0522,3.1466,3.1511,3.1511,3.1511,3.1511,3.1511,3.1511,3.1511,3.1511,3.1511,3.1511,3.1511,3.1511,3.1511,3.1869,3.2512,3.2512,3.311,3.4115,3.4743,3.5477,3.6332,3.7776,3.8092,3.7851,3.8206,3.8816,3.9463,3.9463,3.9756,4.0096,4.0096,4.0096,4.0096,4.0096,3.9808,3.952,3.952,3.952,3.952,3.952,3.9808,4.0096,4.0096,4.0096,4.0096,4.0096,3.999,3.9929,3.9929,3.9508,3.9174,3.9174,3.9174,3.9335,3.9681,4.0228,4.0553,4.0482,4.0235,3.9887,3.9451,3.8988,3.8707,3.8707,3.8707,3.8747,3.8884,3.9171,3.9401,3.9564,3.9742,3.9983,4.0276,4.0276,4.0213,4.0091,3.9912,3.9645,2.2832,2.3251,2.3625,2.459,2.5495,2.6168,2.6318,2.5442,2.4649,2.4799,2.4829,2.4889,2.5038,2.6627,2.8462,3.0046,3.0414,3.0812,3.1658,3.1292,3.0869,3.07,3.0835,3.1072,3.141,3.0758,3.0678,3.162,3.0331,2.979,3.0457,3.0483,3.0821,3.1481,3.1511,3.1511,3.1511,3.1511,3.1511,3.1511,3.1511,3.1511,3.1511,3.1511,3.1511,3.1511,3.1511,3.1974,3.2736,3.2736,3.3514,3.4711,3.4711,3.5504,3.663,3.7115,3.7501,3.7764,3.7573,3.8019,3.8635,3.8635,3.9183,3.9808,3.9808,3.9952,4.0096,4.0096,3.9706,3.9242,3.9242,3.9242,3.9242,3.9242,3.9706,4.0096,4.0096,4.0096,4.0096,4.0096,4.0096,4.0096,4.0096,3.9639,3.9242,3.9242,3.9242,3.9242,3.9242,4.0233,4.0655,4.0055,4.0104,3.986,3.899,3.8796,3.8707,3.8707,3.8707,3.8707,3.8707,3.8894,3.9036,3.9099,3.9352,3.9645,3.9992,3.9992,3.9932,3.987,3.9599,3.932,2.3797,2.3625,2.3212,2.5076,2.5128,2.4903,2.554,2.5113,2.4784,2.5397,2.554,2.5719,2.6333,2.7992,2.9476,3.0192,3.076,3.0931,3.0326,3.0226,2.9922,2.9247,2.9753,3.0717,3.209,3.1062,3.0931,3.2409,3.064,2.9802,3.0468,3.0505,3.0821,3.1481,3.1511,3.1511,3.1511,3.1511,3.1511,3.1511,3.1511,3.1511,3.1511,3.1511,3.1511,3.1511,3.1511,3.2228,3.3425,3.3425,3.4218,3.5429,3.5429,3.5913,3.6523,3.5894,3.6569,3.769,3.695,3.7203,3.7863,3.7863,3.8386,3.9005,3.9005,3.9516,4.0096,4.0096,4.0062,4.0028,4.0028,4.0028,4.0028,4.0028,4.0062,4.0096,4.0096,4.0096,4.0096,4.0096,4.0096,4.0096,4.0096,4.0062,4.0028,4.0028,4.0028,4.0028,4.0028,4.0542,4.0886,4.0834,4.0443,3.9786,3.8797,3.871,3.8707,3.8707,3.8707,3.8707,3.8707,3.8719,3.8859,3.9099,3.9107,3.9289,3.9634,3.9634,3.9481,3.916,3.9152,3.8985,2.2407,2.2742,2.3077,2.459,2.5098,2.5498,2.6535,2.6918,2.7094,2.7354,2.74,2.7476,2.7736,2.8661,2.9607,3.0208,3.0818,3.0937,3.019,2.9702,2.9482,2.9651,2.9516,3.0193,3.2169,3.116,3.0797,3.1892,3.0821,3.0241,3.0477,3.0883,3.1241,3.1496,3.1511,3.1511,3.1511,3.1511,3.1511,3.1511,3.1511,3.1511,3.1511,3.1511,3.1511,3.1511,3.1511,3.2243,3.3499,3.3499,3.4292,3.5504,3.5504,3.5668,3.5894,3.5619,3.5878,3.6321,3.6006,3.6415,3.7054,3.7054,3.7889,3.8908,3.8908,3.9463,4.0096,4.0096,4.0096,4.0096,4.0096,4.0096,4.0096,4.0096,4.0096,4.0096,4.0096,4.0096,4.0096,4.0096,4.0096,4.0096,4.0096,4.0096,4.0096,4.0096,3.9723,3.9588,4.0045,3.9479,3.9409,4.029,4.0433,4.0012,3.8969,3.9228,3.9019,3.8025,3.7936,3.7936,3.7936,3.7936,3.8007,3.8098,3.8615,3.899,3.9289,3.9289,3.9212,3.9112,3.9112,3.8961,2.2173,2.2622,2.3295,2.459,2.5247,2.5928,2.7211,2.7704,2.7953,2.8167,2.8213,2.8271,2.8463,2.8989,2.9607,3.0208,3.0617,3.0598,2.9854,2.9331,2.9196,2.9685,2.9499,3.0146,3.2198,3.1205,3.0822,3.1834,3.1028,3.0597,3.0806,3.1256,3.1511,3.1511,3.1511,3.1511,3.1511,3.1511,3.1511,3.1511,3.1511,3.1511,3.1511,3.1511,3.1511,3.1511,3.172,3.2452,3.3514,3.3724,3.4472,3.5504,3.5504,3.5504,3.5504,3.5504,3.5504,3.5504,3.5504,3.5831,3.6275,3.6523,3.7291,3.827,3.8756,3.9129,3.948,3.9952,3.9927,3.9782,4.0045,4.0096,4.0096,4.0096,4.0096,4.0096,4.0096,4.0096,4.0096,4.0096,4.0096,4.0096,4.0096,4.0096,4.0096,4.0096,3.9462,3.9259,4.0011,3.8802,3.8333,3.9494,4.0214,4.0253,3.9464,3.946,3.9148,3.8319,3.7276,3.6817,3.7107,3.7364,3.7492,3.7492,3.8285,3.8788,3.8971,3.8971,3.8971,3.8971,3.8971,3.8884,2.358,2.3595,2.3924,2.5255,2.56,2.5944,2.7226,2.7061,2.6806,2.7465,2.7585,2.7785,2.8407,2.9012,2.9585,3.0225,3.0195,2.9837,2.9111,2.8993,2.8993,2.901,2.9651,3.0697,3.2247,3.1198,3.1019,3.2486,3.1286,3.0806,3.1466,3.1511,3.1511,3.1511,3.1511,3.1511,3.1511,3.1511,3.1511,3.1511,3.1511,3.1511,3.1511,3.1511,3.1511,3.154,3.2198,3.2886,3.3544,3.4249,3.4891,3.5504,3.5504,3.5504,3.5504,3.5504,3.5504,3.5504,3.5504,3.5504,3.5619,3.6353,3.6569,3.6904,3.8425,3.8358,3.8121,3.9653,3.9516,3.9086,3.9901,4.0096,4.0096,4.0096,4.0096,4.0096,4.0096,4.0096,4.0096,4.0096,4.0096,4.0096,4.0096,4.0096,4.0096,4.0096,3.9462,3.9242,3.9977,3.8802,3.8084,3.8558,3.9785,4.0504,4.0219,3.9296,3.9056,3.9827,3.682,3.5389,3.6266,3.707,3.7492,3.7492,3.8285,3.8707,3.8707,3.8707,3.8707,3.8707,3.8707,3.8707,2.1829,2.2562,2.3793,2.4615,2.5932,2.734,2.8565,2.8373,2.7992,2.8192,2.791,2.7946,2.9082,2.9351,2.9768,3.0887,3.053,3.0023,2.9803,2.8839,2.8551,2.9651,2.9973,3.0519,3.1578,3.1823,3.186,3.1819,3.1444,3.1286,3.1496,3.1511,3.1511,3.1511,3.1511,3.1511,3.1511,3.1511,3.1511,3.1511,3.1511,3.1511,3.1511,3.1511,3.1511,3.154,3.2198,3.2886,3.3589,3.4726,3.5325,3.5504,3.5504,3.5504,3.5504,3.5504,3.5504,3.5504,3.5504,3.5504,3.5537,3.5765,3.6165,3.6691,3.7158,3.7528,3.8007,3.8978,3.9086,3.9086,3.9901,4.0096,4.0096,4.0096,4.0096,4.0096,4.0096,4.0096,4.0096,4.0096,4.0096,4.0096,4.0096,4.0096,4.0096,4.0096,3.9462,3.8684,3.7879,3.8776,3.9095,3.8193,4.0097,4.1197,4.0539,4.0436,3.9994,3.9111,3.7074,3.6285,3.7107,3.6831,3.6923,3.7492,3.8285,3.8707,3.8707,3.8707,3.8707,3.8707,3.8707,3.8707,2.3081,2.3878,2.5062,2.617,2.7025,2.7813,2.8833,2.8756,2.8415,2.8189,2.8072,2.8399,2.9703,3.0108,3.0665,3.1966,3.1261,3.0548,3.0548,2.948,2.9159,3.0395,3.0801,3.1212,3.1766,3.2244,3.2222,3.1566,3.1511,3.1511,3.1511,3.1511,3.1511,3.1511,3.1511,3.1511,3.1511,3.1511,3.1511,3.1511,3.1511,3.1511,3.1511,3.1511,3.1511,3.1555,3.2497,3.344,3.4352,3.5175,3.5504,3.5504,3.5504,3.5504,3.5504,3.5504,3.5504,3.5504,3.5504,3.5504,3.5569,3.5831,3.6259,3.6661,3.6964,3.7427,3.7892,3.833,3.8663,3.9016,3.9489,3.9876,4.0096,4.0096,4.0096,4.0096,4.0096,4.0096,4.0096,4.0096,4.0096,4.0011,3.9723,3.9673,3.9673,3.9673,3.9537,3.8911,3.7415,3.8911,3.9656,3.8464,4.0204,4.113,4.0354,4.0271,3.9861,3.8911,3.693,3.645,3.7918,3.689,3.667,3.7474,3.8285,3.8707,3.8707,3.8707,3.8707,3.8707,3.8707,3.8707,2.5852,2.6367,2.7027,2.8853,2.8525,2.7867,2.8324,2.851,2.8411,2.7801,2.8203,2.9082,3.0347,3.1086,3.1929,3.3201,3.2165,3.1207,3.1275,3.0548,3.0311,3.1106,3.1793,3.2269,3.2383,3.2465,3.2222,3.1537,3.1511,3.1511,3.1511,3.1511,3.1511,3.1511,3.1511,3.1511,3.1511,3.1511,3.1511,3.1511,3.1511,3.1511,3.1511,3.1511,3.157,3.175,3.2976,3.4262,3.5504,3.5504,3.5504,3.5504,3.5504,3.5504,3.5504,3.5504,3.5504,3.5504,3.5504,3.5504,3.5619,3.6275,3.6492,3.6646,3.7368,3.7589,3.7618,3.7764,3.8274,3.8827,3.8962,3.9542,4.0096,4.0096,4.0096,4.0096,4.0096,4.0096,4.0096,4.0096,4.0096,3.9876,3.9123,3.9056,3.9089,3.9089,3.9673,3.9605,3.8176,3.9225,3.9825,3.9073,4.013,4.0608,3.9846,3.9382,3.9103,3.9102,3.6596,3.6197,3.8597,3.7147,3.6707,3.7584,3.8322,3.8707,3.8707,3.8707,3.8707,3.8707,3.8707,3.8707,2.3506,2.4953,2.6838,2.8192,2.912,2.9353,2.8094,2.8578,2.9095,2.8523,2.8906,2.98,3.1125,3.144,3.1926,3.3278,3.2198,3.1393,3.1989,3.0431,2.9738,3.1038,3.1391,3.1554,3.1622,3.2216,3.2268,3.1538,3.1511,3.1511,3.1511,3.1511,3.1511,3.1511,3.1511,3.1511,3.1511,3.1511,3.1511,3.1511,3.1511,3.1511,3.1511,3.1511,3.2064,3.3095,3.3365,3.4262,3.5504,3.5504,3.5504,3.5504,3.5504,3.5504,3.5504,3.5504,3.5504,3.5504,3.5504,3.5504,3.5537,3.5701,3.5718,3.575,3.5941,3.599,3.6258,3.7472,3.7921,3.8318,3.9532,3.9978,4.0096,4.0096,4.0096,4.0096,4.0096,4.0096,4.0096,4.0096,4.0096,3.9876,3.9123,3.9486,3.9859,3.9859,3.9994,3.9791,3.887,3.9554,3.9825,3.9073,4.013,4.0608,3.9846,3.9897,3.9716,3.9138,3.7158,3.6835,3.8634,3.7147,3.6982,3.8414,3.8615,3.8707,3.8707,3.8707,3.8707,3.8707,3.8707,3.8707,2.4575,2.5705,2.6842,2.8098,2.8928,2.9203,2.8247,2.8819,2.9446,2.9135,2.9579,3.0365,3.1411,3.1831,3.236,3.3357,3.2542,3.1909,3.2253,3.1007,3.0482,3.1599,3.1781,3.1854,3.1926,3.2337,3.2299,3.1553,3.1511,3.1511,3.1511,3.1511,3.1511,3.1511,3.1511,3.1511,3.1511,3.1511,3.1511,3.1511,3.1511,3.1511,3.1511,3.1824,3.2557,3.3514,3.3829,3.4547,3.5504,3.5504,3.5504,3.5504,3.5504,3.5504,3.5504,3.5504,3.5504,3.5504,3.5504,3.5504,3.5504,3.5504,3.5718,3.5943,3.5619,3.6037,3.6692,3.71,3.7515,3.7994,3.8805,3.9279,3.9516,3.9516,3.9808,4.0096,4.0096,4.0096,4.0096,4.0096,4.0096,3.9876,3.9123,3.9334,3.9571,3.9571,3.9876,3.996,3.9588,3.9859,3.996,3.9571,4.0122,4.0076,3.8979,3.9206,3.9079,3.824,3.711,3.7155,3.8637,3.7514,3.7441,3.8689,3.8707,3.8707,3.8707,3.8707,3.8707,3.8707,3.8707,3.8707,2.5694,2.6486,2.6892,2.8175,2.8487,2.8463,2.8383,2.8915,2.9472,2.9592,3.0073,3.0687,3.1313,3.1882,3.2426,3.2926,3.2478,3.2094,3.2135,3.151,3.1311,3.2019,3.2177,3.2243,3.2293,3.2373,3.2176,3.1568,3.1511,3.1511,3.1511,3.1511,3.1511,3.1511,3.1511,3.1511,3.1511,3.1511,3.1511,3.1511,3.1511,3.157,3.1705,3.2377,3.2976,3.3529,3.4219,3.4861,3.5504,3.5504,3.5504,3.5504,3.5504,3.5504,3.5504,3.5504,3.5504,3.5504,3.5504,3.5504,3.5504,3.5504,3.5911,3.6306,3.5701,3.6399,3.7279,3.6768,3.7189,3.7835,3.795,3.8569,3.9113,3.9113,3.961,4.0096,4.0096,4.0096,4.0096,4.0096,3.9994,3.9757,3.9259,3.9073,3.9039,3.9157,3.9723,4.0096,4.0096,4.0096,4.0096,4.0096,3.9994,3.9343,3.8024,3.8202,3.8066,3.7242,3.6897,3.7299,3.8637,3.7933,3.7878,3.8689,3.8707,3.8707,3.8707,3.8707,3.8707,3.8707,3.8707,3.8707,2.2272,2.4363,2.6767,2.8148,2.8487,2.8367,2.7835,2.825,2.8891,2.9487,3.0073,3.0535,3.0646,3.0777,3.0886,3.098,3.0871,3.0933,3.145,3.0882,3.0651,3.1269,3.145,3.155,3.1549,3.1628,3.1611,3.1511,3.1511,3.1511,3.1511,3.1511,3.1511,3.1511,3.1511,3.1511,3.1511,3.1511,3.1511,3.1511,3.1511,3.1795,3.2378,3.3066,3.341,3.3529,3.4219,3.4861,3.5504,3.5504,3.5504,3.5504,3.5504,3.5504,3.5504,3.5504,3.5504,3.5504,3.5504,3.5504,3.5504,3.5504,3.5569,3.5651,3.5537,3.5651,3.5926,3.6446,3.7189,3.795,3.858,3.9342,3.9927,3.9927,4.002,4.0096,4.0096,4.0096,4.0096,4.0096,3.9588,3.9334,3.9859,3.9436,3.9208,3.9859,4.0045,4.0096,4.0096,4.0096,4.0096,4.0096,3.9537,3.8802,3.7973,3.7739,3.7509,3.7225,3.6897,3.7299,3.8637,3.7933,3.7878,3.8689,3.8707,3.8707,3.8707,3.8707,3.8707,3.8707,3.8707,3.8707,2.2788,2.4834,2.67,2.7736,2.7993,2.7934,2.766,2.8113,2.8786,2.9472,2.9505,2.9654,3.0372,3.0241,3.002,3.0004,2.9976,3.0022,3.0257,2.9999,2.9892,3.0166,3.0591,3.0905,3.0905,3.1647,3.1951,3.1524,3.1881,3.1938,3.1524,3.1511,3.1511,3.1511,3.1511,3.1511,3.1511,3.1511,3.1511,3.1511,3.1511,3.1645,3.1974,3.3021,3.3694,3.4114,3.4756,3.522,3.5504,3.5504,3.5504,3.5504,3.5504,3.5504,3.5504,3.5504,3.5504,3.5504,3.5504,3.5504,3.5504,3.5504,3.5504,3.5504,3.5504,3.5504,3.5636,3.6384,3.6843,3.7293,3.8076,3.8843,3.9437,3.9437,3.9782,4.0096,4.0096,4.0096,4.0096,4.0096,3.9842,3.9723,4.0045,3.9842,3.974,4.0045,4.0096,4.0096,4.0096,4.0096,4.0096,4.0096,3.9453,3.87,3.7973,3.741,3.7335,3.7844,3.7307,3.7698,3.9316,3.8597,3.834,3.8689,3.8707,3.8707,3.8707,3.8707,3.8707,3.8707,3.8707,3.8707,2.2775,2.4336,2.5399,2.6753,2.7225,2.739,2.7555,2.8004,2.8577,2.9442,2.8921,2.8727,3.0028,2.9609,2.9075,2.9016,2.9039,2.906,2.9167,2.9157,2.9289,2.9624,3.0143,3.0552,3.0722,3.1701,3.2092,3.1524,3.2007,3.2092,3.1524,3.1511,3.1511,3.1511,3.1511,3.1511,3.1511,3.1511,3.1511,3.1511,3.1511,3.1675,3.2034,3.3051,3.3948,3.4788,3.528,3.5504,3.5504,3.5504,3.5504,3.5504,3.5504,3.5504,3.5504,3.5504,3.5504,3.5504,3.5504,3.5504,3.5504,3.5504,3.5504,3.5504,3.5504,3.5504,3.5619,3.6165,3.6477,3.6783,3.7602,3.8358,3.8935,3.9166,3.9662,4.0096,4.0096,4.0096,4.0096,4.0096,4.0096,4.0096,4.0096,4.0096,4.0096,4.0096,4.0096,4.0096,4.0096,4.0096,4.0096,4.0096,3.9259,3.8497,3.7956,3.7212,3.7264,3.8339,3.7829,3.8223,3.9832,3.9129,3.8707,3.8707,3.8707,3.8707,3.8707,3.8707,3.8707,3.8707,3.8707,3.8707,2.0198,2.1049,2.1914,2.4946,2.6183,2.6821,2.745,2.763,2.8019,2.9337,2.8558,2.8064,2.9412,2.8588,2.7715,2.7695,2.7695,2.789,2.8479,2.8559,2.899,3.0202,3.0441,3.0737,3.1288,3.1483,3.1524,3.1511,3.1539,3.1524,3.1511,3.1511,3.1511,3.1511,3.1511,3.1511,3.1511,3.1511,3.1511,3.1511,3.1511,3.2153,3.3395,3.3469,3.4203,3.5444,3.5489,3.5504,3.5504,3.5504,3.5504,3.5504,3.5504,3.5504,3.5504,3.5504,3.5504,3.5504,3.5504,3.5504,3.5504,3.5504,3.5504,3.5504,3.5504,3.5504,3.5504,3.5569,3.6054,3.6783,3.7602,3.8358,3.9086,3.9876,4.007,4.0096,4.0096,4.0096,4.0096,4.0096,4.0096,4.0096,4.0096,4.0096,4.0096,4.0096,4.0096,4.0096,4.0096,4.0096,4.0096,4.0096,3.8802,3.7939,3.7905,3.7212,3.7264,3.8339,3.8304,3.8742,3.985,3.9129,3.8707,3.8707,3.8707,3.8707,3.8707,3.8707,3.8707,3.8707,3.8707,3.8707,1.9391,2.0087,2.1033,2.3774,2.4963,2.5707,2.6732,2.7285,2.7974,2.9337,2.8528,2.8004,2.9352,2.8498,2.76,2.76,2.76,2.7675,2.7894,2.7919,2.8252,2.9148,2.9657,3.0167,3.0761,3.168,3.2007,3.1539,3.1923,3.2007,3.1539,3.1511,3.1511,3.1511,3.1511,3.1511,3.1511,3.1511,3.1511,3.1511,3.1511,3.175,3.2213,3.2677,3.3365,3.4233,3.4666,3.51,3.5504,3.5504,3.5504,3.5504,3.5504,3.5504,3.5504,3.5504,3.5504,3.5504,3.5504,3.5504,3.5504,3.5504,3.5504,3.5504,3.5504,3.5504,3.5504,3.5504,3.6023,3.6676,3.698,3.7975,3.9113,3.9901,4.0096,4.0096,4.0096,4.0096,4.0096,4.0096,4.0096,4.0096,4.0096,4.0096,4.0096,4.0096,4.0096,4.0096,4.0096,4.0096,3.9926,3.9453,3.892,3.8413,3.7939,3.7669,3.7962,3.9045,3.8605,3.8777,3.985,3.9129,3.8707,3.8707,3.8707,3.8707,3.8707,3.8707,3.8707,3.8707,3.8707,3.8707,1.7855,1.874,2.0025,2.2283,2.3328,2.4296,2.6149,2.6753,2.7375,2.8921,2.8573,2.8214,2.9112,2.8543,2.7869,2.763,2.76,2.76,2.76,2.7794,2.8173,2.8846,2.9505,3.0148,3.0763,3.1678,3.2148,3.1881,3.2092,3.212,3.1881,3.164,3.1511,3.1511,3.1511,3.1511,3.1511,3.1511,3.1511,3.1511,3.1511,3.1615,3.1854,3.2542,3.32,3.3858,3.4532,3.5085,3.5504,3.5504,3.5504,3.5504,3.5504,3.5504,3.5504,3.5504,3.5504,3.5504,3.5504,3.5504,3.5504,3.5504,3.5504,3.5504,3.5504,3.5504,3.5504,3.5504,3.5863,3.6275,3.6523,3.7729,3.9016,3.9584,3.9901,4.0096,4.0096,4.0096,4.0096,4.0096,4.0096,4.0096,4.0096,4.0096,4.0096,4.0096,4.0096,4.0096,4.0096,4.0096,3.9825,3.9073,3.8988,3.87,3.7973,3.8125,3.8539,3.9185,3.8627,3.8684,3.9601,3.8758,3.8414,3.8689,3.8707,3.8707,3.8707,3.8707,3.8707,3.8707,3.8707,3.8707,0.0,0.0,0.0,2.0364,2.13,2.2589,2.5632,2.5893,2.6069,2.8128,2.8532,2.8517,2.8562,2.8592,2.8368,2.7705,2.76,2.76,2.763,2.8173,2.8846,2.952,3.0133,3.0748,3.1436,3.1511,3.1796,3.252,3.1923,3.1853,3.2532,3.1881,3.1511,3.1511,3.1511,3.1511,3.1511,3.1511,3.1511,3.1511,3.1511,3.1839,3.2497,3.3155,3.3829,3.4518,3.5175,3.5489,3.5504,3.5504,3.5504,3.5504,3.5504,3.5504,3.5504,3.5504,3.5504,3.5504,3.5504,3.5504,3.5504,3.5504,3.5504,3.5504,3.5504,3.5504,3.5504,3.5504,3.5504,3.5668,3.6415,3.77,3.8854,3.8881,3.9489,4.007,4.0096,4.0096,4.0096,4.0096,4.0096,4.0096,4.0096,4.0096,4.0096,4.0096,4.0096,4.0096,4.0096,4.0096,3.9825,3.9073,3.9005,3.8717,3.8007,3.8616,3.8955,3.8742,3.8418,3.8494,3.9066,3.8102,3.7915,3.8689,3.8707,3.8707,3.8707,3.8707,3.8707,3.8707,3.8707,3.8707,1.5036,0.0,0.0,0.0,0.0,0.0,2.2061,2.2731,2.3723,2.6559,2.6767,2.6737,2.7705,2.8263,2.8368,2.7705,2.76,2.7764,2.8248,2.8472,2.9011,3.0118,3.0402,3.0748,3.1436,3.1511,3.1582,3.1796,3.212,3.2132,3.1824,3.1611,3.1511,3.1511,3.1511,3.1511,3.1511,3.1511,3.1511,3.1511,3.1511,3.16,3.1795,3.2452,3.314,3.3799,3.4472,3.504,3.5504,3.5504,3.5504,3.5504,3.5504,3.5504,3.5504,3.5504,3.5504,3.5504,3.5504,3.5504,3.5504,3.5504,3.5504,3.5504,3.5504,3.5504,3.5504,3.5504,3.5504,3.5668,3.6415,3.6934,3.7526,3.8619,3.9086,3.9394,3.9978,4.0096,4.0096,4.0096,4.0096,4.0096,4.0096,4.0096,4.0096,4.0096,4.0096,4.0096,4.0096,4.0096,3.9825,3.9073,3.9486,3.9503,3.8751,3.9385,3.9681,3.9444,3.9207,3.9064,3.9031,3.8599,3.8469,3.8707,3.8707,3.8707,3.8707,3.8707,3.8707,3.8707,3.8707,3.8707,1.4907,1.5203,1.5932,1.7421,0.0,0.0,2.1065,2.181,2.2819,2.5913,2.6718,2.7006,2.751,2.8154,2.8368,2.7705,2.76,2.7929,2.8876,2.9235,2.9669,3.0417,3.0761,3.1062,3.1466,3.1511,3.164,3.1938,3.2064,3.1951,3.1524,3.1511,3.1511,3.1511,3.1511,3.1511,3.1511,3.1511,3.1511,3.1511,3.1511,3.1645,3.1929,3.2617,3.3275,3.3948,3.4622,3.513,3.5504,3.5504,3.5504,3.5504,3.5504,3.5504,3.5504,3.5504,3.5504,3.5504,3.5504,3.5504,3.5504,3.5504,3.5504,3.5504,3.5504,3.5504,3.5504,3.5504,3.5504,3.5587,3.6023,3.6368,3.6904,3.8145,3.8663,3.9113,3.9927,4.0096,4.0011,3.9706,3.9656,3.9529,3.9225,3.9453,3.9656,3.9656,3.991,4.0096,4.0096,4.0096,3.9825,3.9073,3.9673,3.9808,3.9056,3.969,3.9851,3.9283,3.9028,3.8778,3.8545,3.8326,3.8358,3.8689,3.8707,3.8707,3.8707,3.8707,3.8707,3.8707,3.8707,3.8707,1.525,1.577,1.6748,1.7764,1.7337,0.0,2.1055,2.1688,2.2342,2.5135,2.6737,2.7497,2.6961,2.7593,2.7931,2.7195,2.738,2.8064,2.9412,2.9998,3.0372,3.0597,3.1062,3.1421,3.1496,3.1511,3.1768,3.2437,3.1881,3.1539,3.1611,3.1524,3.1511,3.1511,3.1511,3.1511,3.1511,3.1511,3.1511,3.1511,3.1511,3.1854,3.2512,3.32,3.3858,3.4548,3.5205,3.5504,3.5504,3.5504,3.5504,3.5504,3.5504,3.5504,3.5504,3.5504,3.5504,3.5504,3.5504,3.5504,3.5504,3.5504,3.5504,3.5504,3.5504,3.5504,3.5504,3.5504,3.5504,3.5504,3.5504,3.5975,3.6676,3.7485,3.8246,3.9005,3.9782,4.0045,3.9859,3.9039,3.8937,3.8768,3.8041,3.8497,3.8971,3.8971,3.9622,4.0096,4.0096,4.0096,3.9859,3.9174,3.9723,3.9842,3.9174,3.9656,3.963,3.877,3.8415,3.8157,3.8021,3.7776,3.7955,3.8689,3.8707,3.8707,3.8707,3.8707,3.8707,3.8707,3.8707,3.8707,1.7005,1.6658,1.6553,1.6778,1.7346,0.0,1.7173,1.795,1.916,2.0447,2.1264,2.1883,2.2298,2.4105,2.515,2.3996,2.5951,2.8064,2.9412,2.9235,2.9564,3.1122,3.0928,3.0898,3.1451,3.1511,3.1553,3.1682,3.1582,3.1768,3.2355,3.1824,3.1511,3.1511,3.1511,3.1511,3.1511,3.1511,3.1511,3.1511,3.1511,3.1854,3.2512,3.32,3.3858,3.4548,3.5205,3.5504,3.5504,3.5504,3.5504,3.5504,3.5504,3.5504,3.5504,3.5504,3.5504,3.5504,3.5504,3.5504,3.5504,3.5504,3.5504,3.5504,3.5504,3.5504,3.5504,3.5504,3.5504,3.5504,3.5504,3.5619,3.5894,3.6661,3.744,3.8234,3.8978,3.9636,3.9723,3.8379,3.8582,3.8768,3.8041,3.8331,3.8678,3.8678,3.9487,4.0096,4.0096,4.0096,4.0045,3.991,4.0011,4.0045,3.991,3.9462,3.9282,3.9473,3.8733,3.8444,3.8779,3.8581,3.8542,3.8707,3.8707,3.8707,3.8707,3.8707,3.8707,3.8707,3.8707,3.8707,1.7993,1.7491,1.7348,1.7625,1.7515,0.0,0.0,1.7804,1.8693,2.0243,2.0592,2.0831,2.1484,2.2379,2.2994,2.297,2.4763,2.6525,2.7475,2.8457,2.946,3.0447,3.0253,3.0298,3.0928,3.0987,3.1137,3.1481,3.1511,3.1668,3.2035,3.1697,3.1511,3.1511,3.1511,3.1511,3.1511,3.1511,3.1511,3.1511,3.1839,3.2333,3.3021,3.3679,3.4352,3.5011,3.5355,3.5504,3.5504,3.5504,3.5504,3.5504,3.5504,3.5504,3.5504,3.5504,3.5504,3.5504,3.5504,3.5504,3.5504,3.5504,3.5504,3.5504,3.5504,3.5504,3.5504,3.5504,3.5504,3.5504,3.5504,3.5504,3.5701,3.6415,3.6904,3.7404,3.8177,3.8678,3.8757,3.8036,3.821,3.821,3.7483,3.8152,3.8787,3.8787,3.9546,4.0096,4.0096,4.0096,4.0096,4.0096,4.0096,4.0096,4.0096,3.963,3.9422,3.9547,3.898,3.8708,3.8851,3.8747,3.8707,3.8707,3.8707,3.8707,3.8707,3.8707,3.8707,3.8707,3.8707,3.8707,1.957,1.9175,1.9182,1.9155,1.8405,1.7824,0.0,0.0,0.0,2.0622,2.0666,2.0639,2.1223,2.0946,2.096,2.204,2.3314,2.4347,2.4783,2.6916,2.8603,2.8992,2.9262,2.9594,3.0088,3.0013,3.0372,3.1421,3.1152,3.1107,3.1481,3.1511,3.1511,3.1511,3.1511,3.1511,3.1511,3.1511,3.157,3.1705,3.2228,3.2931,3.3709,3.4264,3.4861,3.5504,3.5504,3.5504,3.5504,3.5504,3.5504,3.5504,3.5504,3.5504,3.5504,3.5504,3.5504,3.5504,3.5504,3.5504,3.5504,3.5504,3.5504,3.5504,3.5504,3.5504,3.5504,3.5504,3.5504,3.5504,3.5504,3.5619,3.5863,3.6477,3.6843,3.716,3.7692,3.7923,3.8009,3.792,3.8024,3.7872,3.7151,3.8075,3.8913,3.8913,3.958,4.0096,4.0096,4.0096,4.0096,4.0096,4.0096,4.0096,4.0096,3.9883,3.9643,3.9405,3.9153,3.8914,3.871,3.8707,3.8707,3.8707,3.8707,3.8707,3.8707,3.8707,3.8707,3.8707,3.8707,3.8707,2.3493,2.3025,2.2572,2.0496,2.0951,2.0998,1.7567,0.0,1.9289,1.8066,0.0,1.7907,1.8466,0.0,0.0,1.9272,2.0877,2.2068,2.2128,2.337,2.4941,2.6722,2.7993,2.8742,2.8816,2.8289,2.8906,3.1316,2.9881,2.9699,3.1406,3.1511,3.1511,3.1511,3.1511,3.1511,3.1511,3.1511,3.1795,3.2378,3.2452,3.3155,3.4399,3.4474,3.4861,3.5504,3.5504,3.5504,3.5504,3.5504,3.5504,3.5504,3.5504,3.5504,3.5504,3.5504,3.5504,3.5504,3.5504,3.5504,3.5504,3.5504,3.5504,3.5504,3.5504,3.5504,3.5504,3.5504,3.5504,3.5504,3.5504,3.5975,3.6492,3.6584,3.7642,3.8477,3.7923,3.837,3.867,3.8017,3.843,3.8633,3.7905,3.8263,3.8661,3.8661,3.9471,4.0096,4.0096,4.0096,4.0096,4.0096,4.0096,4.0096,4.0096,3.9914,3.9687,3.9423,3.919,3.8965,3.871,3.8707,3.8707,3.8707,3.8707,3.8707,3.8707,3.8707,3.8707,3.8707,3.8707,3.8707,2.1834,2.1877,2.1969,2.0338,2.0694,2.0812,1.8425,1.8372,1.8693,1.8307,0.0,0.0,0.0,0.0,0.0,0.0,1.9671,2.0499,0.0,0.0,2.3909,2.4762,0.0,0.0,2.732,2.754,2.8378,3.0253,2.928,2.928,3.0823,3.1286,3.1511,3.1511,3.1511,3.1511,3.1511,3.1511,3.1839,3.2512,3.2901,3.3574,3.4518,3.4891,3.5235,3.5504,3.5504,3.5504,3.5504,3.5504,3.5504,3.5504,3.5504,3.5504,3.5504,3.5504,3.5504,3.5504,3.5504,3.5504,3.5504,3.5504,3.5504,3.5504,3.5504,3.5504,3.5504,3.5504,3.5504,3.5504,3.5504,3.6054,3.6615,3.6615,3.7454,3.7938,3.6821,3.7479,3.8086,3.7403,3.8185,3.9039,3.9157,3.9343,3.9471,3.9471,3.9834,4.0096,4.0096,4.0096,4.0096,4.0096,4.0096,4.0096,4.0096,4.0199,4.001,3.9444,3.9067,3.868,3.8251,3.853,3.8546,3.8251,3.8546,3.8707,3.8707,3.8707,3.8707,3.8707,3.8707,3.8707,2.1712,2.1914,2.2084,2.0278,2.0216,2.0221,1.8698,1.859,1.8874,1.9083,1.8824,0.0,0.0,0.0,1.7545,1.8389,0.0,1.9245,0.0,2.0657,0.0,0.0,0.0,0.0,0.0,2.6027,2.6911,2.9172,2.8188,2.8472,3.0672,3.1062,3.1316,3.1496,3.1511,3.1511,3.1511,3.1511,3.1929,3.2781,3.326,3.3948,3.4771,3.528,3.5504,3.5504,3.5504,3.5504,3.5504,3.5504,3.5504,3.5504,3.5504,3.5504,3.5504,3.5504,3.5504,3.5504,3.5504,3.5504,3.5504,3.5504,3.5504,3.5504,3.5504,3.5504,3.5504,3.5504,3.5504,3.5504,3.5504,3.6054,3.6676,3.6873,3.7528,3.7838,3.6826,3.7413,3.7965,3.751,3.827,3.9225,3.9977,4.0096,4.0096,4.0096,4.0096,4.0096,4.0096,4.0096,4.0096,4.0096,4.0096,4.0096,4.0096,4.0403,4.0296,3.9595,3.8997,3.8465,3.7929,3.8433,3.8449,3.7893,3.8433,3.8707,3.8707,3.8707,3.8707,3.8707,3.8707,3.8707,2.5687,2.526,2.4417,2.0799,2.0302,2.0044,1.753,1.8859,2.0441,1.9803,2.0773,2.1726,2.162,2.0587,1.9754,1.9659,1.8802,0.0,0.0,0.0,0.0,0.0,0.0,0.0,0.0,2.2981,2.3759,0.0,2.6204,2.6697,3.1227,3.0853,3.0823,3.1481,3.1511,3.1511,3.1511,3.1511,3.2153,3.3469,3.3484,3.4188,3.5474,3.5489,3.5504,3.5504,3.5504,3.5504,3.5504,3.5504,3.5504,3.5504,3.5504,3.5504,3.5504,3.5504,3.5504,3.5504,3.5504,3.5504,3.5504,3.5504,3.5504,3.5504,3.5504,3.5504,3.5504,3.5504,3.5504,3.5504,3.5504,3.6054,3.6798,3.7573,3.833,3.8861,3.8891,3.8922,3.8963,3.893,3.8971,3.9225,3.9977,4.0096,4.0096,4.0096,4.0096,4.0096,4.0096,4.0096,4.0096,4.0096,4.0096,4.0096,4.0096,4.0403,4.0401,3.9914,3.915,3.8465,3.7929,3.8433,3.8449,3.7893,3.8433,3.8707,3.8707,3.8707,3.8707,3.8707,3.8707,3.8707,2.5758,2.5736,2.5214,2.244,2.1486,2.0609,1.8232,1.8641,1.9473,1.933,2.0228,2.104,2.1048,2.0336,1.9622,1.9188,1.9137,1.8743,0.0,0.0,0.0,0.0,0.0,0.0,0.0,0.0,0.0,0.0,2.6602,0.0,3.0702,3.0627,3.0821,3.1481,3.1511,3.1511,3.1511,3.1511,3.2168,3.3499,3.3499,3.4203,3.5504,3.5504,3.5504,3.5504,3.5504,3.5504,3.5504,3.5504,3.5504,3.5504,3.5504,3.5504,3.5504,3.5504,3.5504,3.5504,3.5504,3.5504,3.5504,3.5504,3.5504,3.5504,3.5504,3.5504,3.5504,3.5504,3.5504,3.5504,3.5504,3.6054,3.6783,3.7602,3.8358,3.8807,3.8434,3.9068,3.9463,3.8512,3.9085,3.9808,4.0062,4.0096,4.0096,4.0096,4.0096,4.0096,4.0096,4.0096,4.0096,4.0096,4.0096,4.0096,4.0096,3.9911,3.983,3.9907,3.9148,3.8318,3.747,3.8252,3.8302,3.7451,3.8269,3.8707,3.8707,3.8707,3.8707,3.8707,3.8707,3.8707,2.5958,2.5745,2.5132,2.3004,2.2087,2.1103,1.8799,1.9242,2.0059,1.9696,2.0562,2.1535,2.2123,2.107,1.9985,1.9521,1.9139,1.8331,0.0,1.6628,0.0,0.0,0.0,0.0,0.0,0.0,0.0,0.0,0.0,0.0,0.0,3.0642,3.0821,3.1481,3.1511,3.1511,3.1511,3.1735,3.2392,3.3499,3.3724,3.4427,3.5504,3.5504,3.5504,3.5504,3.5504,3.5504,3.5504,3.5504,3.5504,3.5504,3.5504,3.5504,3.5504,3.5504,3.5504,3.5504,3.5504,3.5654,3.5848,3.5848,3.5848,3.5893,3.6118,3.5863,3.5549,3.5789,3.5684,3.5504,3.5504,3.5831,3.6492,3.7544,3.8161,3.8548,3.8698,3.9463,3.9817,3.8905,3.948,4.0096,4.0096,4.0096,4.0096,4.0096,4.0096,4.0096,4.0096,4.0096,4.0096,4.0096,4.0096,3.9951,3.961,3.9221,3.8981,3.8932,3.8789,3.8252,3.7229,3.8168,3.8302,3.747,3.8285,3.8707,3.8707,3.8707,3.8707,3.8707,3.8707,3.8707]}]]